[[{"header":{"parameterUnit":"m.s-1","parameterCategory":1,"la1":31.0,"la2":29.5877,"lo1":-88.7671,"lo2":-86.6584,"dy":0.0162,"dx":0.0185,"nx":115,"ny":88,"refTime":"2023-11-06T18:00:00:Z","depth":0,"parameterNumber":2,"parameterNumberName":"U-component_of_WINDS"},"data":[0.0,0.0,0.0,0.0,0.0,0.0,0.0,0.0,0.0,0.0,0.0,0.0,0.0,0.0,0.0,0.0,0.0,0.0,0.0,0.0,0.0,0.0,0.0,0.0,0.0,0.0,0.0,0.0,0.0,0.0,0.0,0.0,0.0,0.0,0.0,0.0,0.0,0.0,0.0,0.0,0.0,0.0,0.0,0.0,0.0,0.0,0.0,0.0,0.0,0.0,0.0,0.0,0.0,0.0,0.0,0.0,0.0,0.0,0.0,0.0,0.0,0.0,0.0,0.0,0.0,0.0,0.0,0.0,0.0,0.0,0.0,0.0,0.0,0.0,0.0,0.0,0.0,0.0,0.0,0.0,0.0,0.0,0.0,0.0,0.0,0.0,0.0,0.0,0.0,0.0,0.0,0.0,0.0,0.0,0.0,0.0,0.0,0.0,0.0,0.0,0.0,0.0,0.0,0.0,0.0,0.0,0.0,0.0,0.0,0.0,0.0,0.0,0.0,0.0,0.0,0.0,0.0,0.0,0.0,0.0,0.0,0.0,0.0,0.0,0.0,0.0,0.0,0.0,0.0,0.0,0.0,0.0,0.0,0.0,0.0,0.0,0.0,0.0,0.0,0.0,0.0,0.0,0.0,0.0,0.0,0.0,0.0,0.0,0.0,0.0,0.0,0.0,0.0,0.0,0.0,0.0,0.0,0.0,0.0,0.0,0.0,0.0,0.0,0.0,0.0,0.0,0.0,0.0,0.0,0.0,0.0,0.0,0.0,0.0,0.0,0.0,0.0,0.0,0.0,0.0,0.0,0.0,0.0,0.0,0.0,0.0,0.0,0.0,0.0,0.0,0.0,0.0,0.0,0.0,0.0,0.0,0.0,0.0,0.0,0.0,0.0,0.0,0.0,0.0,0.0,0.0,0.0,0.0,0.0,0.0,0.0,0.0,0.0,0.0,0.0,0.0,0.0,0.0,0.0,0.0,0.0,0.0,0.0,0.0,0.0,0.0,0.0,0.0,0.0,0.0,0.0,0.0,0.0,0.0,0.0,0.0,0.0,0.0,0.0,0.0,0.0,0.0,0.0,0.0,0.0,0.0,0.0,0.0,0.0,0.0,0.0,0.0,0.0,0.0,0.0,0.0,0.0,0.0,0.0,0.0,0.0,0.0,0.0,0.0,0.0,0.0,0.0,0.0,0.0,0.0,0.0,0.0,0.0,0.0,0.0,0.0,0.0,0.0,0.0,0.0,0.0,0.0,0.0,0.0,0.0,0.0,0.0,0.0,0.0,0.0,0.0,0.0,0.0,0.0,0.0,0.0,0.0,0.0,0.0,0.0,0.0,0.0,0.0,0.0,0.0,0.0,0.0,0.0,0.0,0.0,0.0,0.0,0.0,0.0,0.0,0.0,0.0,0.0,0.0,0.0,0.0,0.0,0.0,0.0,0.0,0.0,0.0,0.0,0.0,0.0,0.0,0.0,0.0,0.0,0.0,0.0,0.0,0.0,0.0,0.0,0.0,0.0,0.0,0.0,0.0,0.0,0.0,0.0,0.0,0.0,0.0,0.0,0.0,0.0,0.0,0.0,0.0,0.0,0.0,0.0,0.0,0.0,0.0,0.0,0.0,0.0,0.0,0.0,0.0,0.0,0.0,0.0,0.0,0.0,0.0,0.0,0.0,0.0,0.0,0.0,0.0,0.0,0.0,0.0,0.0,0.0,0.0,0.0,0.0,0.0,0.0,0.0,0.0,0.0,0.0,0.0,0.0,0.0,0.0,0.0,0.0,0.0,0.0,0.0,0.0,0.0,0.0,0.0,0.0,0.0,0.0,0.0,0.0,0.0,0.0,0.0,0.0,0.0,0.0,0.0,0.0,0.0,0.0,0.0,0.0,0.0,0.0,0.0,0.0,0.0,0.0,0.0,0.0,0.0,0.0,0.0,0.0,0.0,0.0,0.0,0.0,0.0,0.0,0.0,0.0,0.0,0.0,0.0,0.0,0.0,0.0,0.0,0.0,0.0,0.0,0.0,0.0,0.0,0.0,0.0,0.0,0.0,0.0,0.0,0.0,0.0,0.0,0.0,0.0,0.0,0.0,0.0,0.0,0.0,0.0,0.0,0.0,0.0,0.0,0.0,0.0,0.0,0.0,0.0,0.0,0.0,0.0,0.0,0.0,0.0,0.0,0.0,0.0,0.0,0.0,0.0,0.0,0.0,0.0,0.0,0.0,0.0,0.0,0.0,0.0,0.0,0.0,0.0,0.0,0.0,0.0,0.0,0.0,0.0,0.0,0.0,0.0,0.0,0.0,0.0,0.0,0.0,0.0,0.0,0.0,0.0,0.0,0.0,0.0,0.0,0.0,0.0,0.0,0.0,0.0,0.0,0.0,0.0,0.0,0.0,0.0,0.0,0.0,0.0,0.0,0.0,0.0,0.0,0.0,0.0,0.0,0.0,0.0,0.0,0.0,0.0,0.0,0.0,0.0,0.0,0.0,0.0,0.0,0.0,0.0,0.0,0.0,0.0,0.0,0.0,0.0,0.0,0.0,0.0,0.0,0.0,0.0,0.0,0.0,0.0,0.0,0.0,0.0,0.0,0.0,0.0,0.0,0.0,0.0,0.0,0.0,0.0,0.0,0.0,0.0,0.0,0.0,0.0,0.0,0.0,0.0,0.0,0.0,0.0,0.0,0.0,0.0,0.0,0.0,0.0,0.0,0.0,0.0,0.0,0.0,0.0,0.0,0.0,0.0,0.0,0.0,0.0,0.0,0.0,0.0,0.0,0.0,0.0,0.0,0.0,0.0,0.0,0.0,0.0,0.0,0.0,0.0,0.0,0.0,0.0,0.0,0.0,0.0,0.0,0.0,0.0,0.0,0.0,0.0,0.0,0.0,0.0,0.0,0.0,0.0,0.0,0.0,0.0,0.0,0.0,0.0,0.0,0.0,0.0,0.0,0.0,0.0,0.0,0.0,0.0,0.0,0.0,0.0,0.0,0.0,0.0,0.0,0.0,0.0,0.0,0.0,0.0,0.0,0.0,0.0,0.0,0.0,0.0,0.0,0.0,0.0,0.0,0.0,0.0,0.0,0.0,0.0,0.0,0.0,0.0,0.0,0.0,0.0,0.0,0.0,0.0,0.0,0.0,0.0,0.0,0.0,0.0,0.0,0.0,0.0,0.0,0.0,0.0,0.0,0.0,0.0,0.0,0.0,0.0,0.0,0.0,0.0,0.0,0.0,0.0,0.0,0.0,0.0,0.0,0.0,0.0,0.0,0.0,0.0,0.0,0.0,0.0,0.0,0.0,0.0,0.0,0.0,0.0,0.0,0.0,0.0,0.0,0.0,0.0,0.0,0.0,0.0,0.0,0.0,0.0,0.0,0.0,0.0,0.0,0.0,0.0,0.0,0.0,0.0,0.0,0.0,0.0,0.0,0.0,0.0,0.0,0.0,0.0,0.0,0.0,0.0,0.0,0.0,0.0,0.0,0.0,0.0,0.0,0.0,0.0,0.0,0.0,0.0,0.0,0.0,0.0,0.0,0.0,0.0,0.0,0.0,0.0,0.0,0.0,0.0,0.0,0.0,0.0,0.0,0.0,0.0,0.0,0.0,0.0,0.0,0.0,0.0,0.0,0.0,0.0,0.0,0.0,0.0,0.0,0.0,0.0,0.0,0.0,0.0,0.0,0.0,0.0,0.0,0.0,0.0,0.0,0.0,0.0,0.0,0.0,0.0,0.0,0.0,0.0,0.0,0.0,0.0,0.0,0.0,0.0,0.0,0.0,0.0,0.0,0.0,0.0,0.0,0.0,0.0,0.0,0.0,0.0,0.0,0.0,0.0,0.0,0.0,0.0,0.0,0.0,0.0,0.0,0.0,0.0,0.0,0.0,0.0,0.0,0.0,0.0,0.0,0.0,0.0,0.0,0.0,0.0,0.0,0.0,0.0,0.0,0.0,0.0,0.0,0.0,0.0,0.0,0.0,0.0,0.0,0.0,0.0,0.0,0.0,0.0,0.0,0.0,0.0,0.0,0.0,0.0,0.0,0.0,0.0,0.0,0.0,0.0,0.0,0.0,0.0,0.0,0.0,0.0,0.0,0.0,0.0,0.0,0.0,0.0,0.0,0.0,0.0,0.0,0.0,0.0,0.0,0.0,0.0,0.0,0.0,0.0,0.0,0.0,0.0,0.0,0.0,0.0,0.0,0.0,0.0,0.0,0.0,0.0,0.0,0.0,0.0,0.0,0.0,0.0,0.0,0.0,0.0,0.0,0.0,0.0,0.0,0.0,-3.1151,0.0,0.0,0.0,0.0,0.0,0.0,0.0,0.0,0.0,0.0,0.0,0.0,0.0,0.0,0.0,0.0,0.0,0.0,0.0,0.0,0.0,0.0,0.0,0.0,0.0,0.0,0.0,0.0,0.0,0.0,0.0,0.0,0.0,0.0,0.0,0.0,0.0,0.0,0.0,0.0,0.0,0.0,0.0,0.0,0.0,0.0,0.0,0.0,0.0,0.0,0.0,0.0,0.0,0.0,0.0,0.0,0.0,0.0,0.0,0.0,0.0,0.0,0.0,0.0,0.0,0.0,0.0,0.0,0.0,0.0,0.0,0.0,0.0,0.0,0.0,0.0,0.0,0.0,0.0,0.0,0.0,0.0,0.0,0.0,0.0,0.0,0.0,0.0,0.0,0.0,0.0,0.0,0.0,0.0,0.0,0.0,0.0,0.0,0.0,0.0,0.0,0.0,0.0,0.0,0.0,0.0,0.0,0.0,0.0,0.0,-3.1052,-3.0952,-3.1052,-3.1171,-3.1271,0.0,0.0,0.0,0.0,0.0,0.0,0.0,0.0,0.0,0.0,0.0,0.0,0.0,0.0,0.0,0.0,0.0,0.0,0.0,0.0,0.0,0.0,0.0,0.0,0.0,0.0,0.0,0.0,0.0,0.0,0.0,0.0,0.0,0.0,0.0,0.0,0.0,0.0,0.0,0.0,0.0,0.0,0.0,0.0,0.0,0.0,0.0,0.0,0.0,0.0,0.0,0.0,0.0,0.0,0.0,0.0,0.0,0.0,0.0,0.0,0.0,0.0,0.0,0.0,0.0,0.0,0.0,0.0,0.0,0.0,0.0,0.0,0.0,0.0,0.0,0.0,0.0,0.0,0.0,0.0,0.0,0.0,0.0,0.0,0.0,0.0,0.0,0.0,0.0,0.0,0.0,0.0,0.0,0.0,0.0,0.0,0.0,0.0,0.0,0.0,0.0,0.0,0.0,0.0,0.0,0.0,0.0,0.0,0.0,0.0,0.0,0.0,-3.119,-3.1368,-3.1506,0.0,0.0,0.0,0.0,0.0,0.0,0.0,0.0,0.0,0.0,0.0,0.0,0.0,0.0,0.0,0.0,0.0,0.0,0.0,0.0,0.0,0.0,0.0,0.0,0.0,0.0,0.0,0.0,0.0,0.0,0.0,0.0,0.0,0.0,0.0,0.0,0.0,0.0,0.0,0.0,0.0,0.0,0.0,0.0,0.0,0.0,0.0,0.0,0.0,0.0,0.0,0.0,0.0,0.0,0.0,0.0,0.0,0.0,0.0,0.0,0.0,0.0,0.0,0.0,0.0,0.0,0.0,0.0,0.0,0.0,0.0,0.0,0.0,0.0,0.0,0.0,0.0,0.0,0.0,0.0,0.0,0.0,0.0,0.0,0.0,0.0,0.0,0.0,0.0,0.0,0.0,0.0,0.0,0.0,0.0,0.0,0.0,0.0,0.0,0.0,0.0,0.0,0.0,0.0,0.0,0.0,0.0,0.0,0.0,0.0,-3.1404,-3.1257,-3.1466,0.0,-3.2091,0.0,0.0,0.0,0.0,0.0,0.0,0.0,0.0,0.0,0.0,0.0,0.0,0.0,0.0,0.0,0.0,0.0,0.0,0.0,0.0,0.0,0.0,0.0,0.0,0.0,0.0,0.0,0.0,0.0,0.0,0.0,0.0,0.0,0.0,0.0,0.0,0.0,0.0,0.0,0.0,0.0,0.0,0.0,0.0,0.0,0.0,0.0,0.0,0.0,0.0,0.0,0.0,0.0,0.0,0.0,0.0,0.0,0.0,0.0,0.0,0.0,0.0,0.0,0.0,0.0,0.0,0.0,0.0,0.0,0.0,0.0,0.0,0.0,0.0,0.0,0.0,0.0,0.0,0.0,0.0,0.0,0.0,0.0,0.0,0.0,0.0,0.0,0.0,0.0,0.0,0.0,0.0,0.0,0.0,0.0,0.0,0.0,0.0,0.0,0.0,0.0,0.0,0.0,0.0,0.0,0.0,0.0,0.0,0.0,0.0,-3.1349,-3.1232,-3.1559,-3.1875,0.0,0.0,0.0,0.0,0.0,0.0,0.0,0.0,0.0,0.0,0.0,0.0,0.0,0.0,0.0,0.0,0.0,0.0,0.0,0.0,0.0,0.0,0.0,0.0,0.0,0.0,0.0,0.0,0.0,0.0,0.0,0.0,0.0,0.0,0.0,0.0,0.0,0.0,0.0,0.0,0.0,0.0,0.0,0.0,0.0,0.0,0.0,0.0,0.0,0.0,0.0,0.0,0.0,0.0,0.0,0.0,0.0,0.0,0.0,0.0,0.0,0.0,0.0,0.0,0.0,0.0,0.0,0.0,0.0,0.0,0.0,0.0,0.0,0.0,0.0,0.0,0.0,0.0,0.0,0.0,0.0,0.0,0.0,0.0,0.0,0.0,0.0,0.0,0.0,0.0,0.0,0.0,0.0,0.0,0.0,0.0,0.0,0.0,0.0,0.0,0.0,0.0,0.0,0.0,0.0,0.0,0.0,0.0,0.0,0.0,-3.1504,-3.1389,-3.1308,-3.1578,-3.1911,-3.2249,0.0,0.0,0.0,0.0,0.0,0.0,0.0,0.0,0.0,0.0,0.0,0.0,0.0,0.0,0.0,0.0,0.0,0.0,0.0,0.0,0.0,0.0,0.0,0.0,0.0,0.0,0.0,0.0,0.0,0.0,0.0,0.0,0.0,0.0,0.0,0.0,0.0,0.0,0.0,0.0,0.0,0.0,0.0,0.0,0.0,0.0,0.0,0.0,0.0,0.0,0.0,0.0,0.0,0.0,0.0,0.0,0.0,0.0,0.0,0.0,0.0,0.0,0.0,0.0,0.0,0.0,0.0,0.0,0.0,0.0,0.0,0.0,0.0,0.0,0.0,0.0,0.0,0.0,0.0,0.0,0.0,0.0,0.0,0.0,0.0,0.0,0.0,0.0,0.0,0.0,0.0,0.0,0.0,0.0,0.0,0.0,0.0,0.0,0.0,0.0,0.0,0.0,0.0,0.0,0.0,0.0,0.0,0.0,-3.2055,-3.1856,-3.167,-3.1479,-3.1559,-3.1783,0.0,0.0,0.0,0.0,0.0,0.0,0.0,0.0,0.0,0.0,0.0,0.0,0.0,0.0,0.0,0.0,0.0,0.0,0.0,0.0,0.0,0.0,0.0,0.0,0.0,0.0,0.0,0.0,0.0,0.0,0.0,0.0,0.0,0.0,0.0,0.0,0.0,0.0,0.0,0.0,0.0,0.0,0.0,0.0,0.0,0.0,0.0,0.0,0.0,0.0,0.0,0.0,0.0,0.0,0.0,0.0,0.0,0.0,0.0,0.0,0.0,0.0,0.0,0.0,0.0,0.0,0.0,0.0,0.0,0.0,0.0,0.0,0.0,0.0,0.0,0.0,0.0,0.0,0.0,0.0,0.0,0.0,0.0,0.0,0.0,0.0,0.0,0.0,0.0,0.0,0.0,0.0,0.0,0.0,0.0,0.0,0.0,0.0,0.0,0.0,0.0,0.0,0.0,0.0,0.0,0.0,0.0,0.0,0.0,-3.1893,-3.1502,-3.1291,-3.1308,-3.1387,-3.1581,0.0,0.0,0.0,0.0,0.0,0.0,0.0,0.0,0.0,0.0,0.0,0.0,0.0,0.0,0.0,0.0,0.0,0.0,0.0,0.0,0.0,0.0,0.0,0.0,0.0,0.0,0.0,0.0,0.0,0.0,0.0,0.0,0.0,0.0,0.0,0.0,0.0,0.0,0.0,0.0,0.0,0.0,0.0,0.0,0.0,0.0,0.0,0.0,0.0,0.0,0.0,0.0,0.0,0.0,0.0,0.0,0.0,0.0,0.0,0.0,0.0,0.0,0.0,0.0,0.0,0.0,0.0,0.0,0.0,0.0,0.0,0.0,0.0,0.0,0.0,0.0,0.0,0.0,0.0,0.0,0.0,0.0,0.0,0.0,0.0,0.0,0.0,0.0,0.0,0.0,0.0,0.0,0.0,0.0,0.0,0.0,0.0,0.0,0.0,0.0,0.0,0.0,0.0,0.0,0.0,0.0,0.0,0.0,0.0,-3.1709,0.0,-3.1055,-3.1109,-3.1213,-3.1428,0.0,0.0,0.0,0.0,0.0,0.0,0.0,0.0,0.0,0.0,0.0,0.0,0.0,0.0,0.0,0.0,0.0,0.0,0.0,0.0,0.0,0.0,0.0,0.0,0.0,0.0,0.0,0.0,0.0,0.0,0.0,0.0,0.0,0.0,0.0,0.0,0.0,0.0,0.0,0.0,0.0,0.0,0.0,0.0,0.0,0.0,0.0,0.0,0.0,0.0,0.0,0.0,0.0,0.0,0.0,0.0,0.0,0.0,0.0,0.0,0.0,0.0,0.0,0.0,0.0,0.0,0.0,0.0,0.0,0.0,0.0,0.0,0.0,0.0,0.0,0.0,0.0,0.0,0.0,0.0,0.0,0.0,0.0,0.0,0.0,0.0,0.0,0.0,0.0,0.0,0.0,0.0,0.0,0.0,0.0,0.0,0.0,0.0,0.0,0.0,0.0,0.0,0.0,0.0,0.0,0.0,0.0,0.0,-3.2161,-3.154,-3.1291,-3.1092,-3.0912,-3.1092,-3.1291,0.0,0.0,0.0,0.0,0.0,0.0,0.0,0.0,0.0,0.0,0.0,0.0,0.0,0.0,0.0,0.0,0.0,0.0,0.0,0.0,0.0,0.0,0.0,0.0,0.0,0.0,0.0,0.0,0.0,0.0,0.0,0.0,0.0,0.0,0.0,0.0,0.0,0.0,0.0,0.0,0.0,0.0,0.0,0.0,0.0,0.0,0.0,0.0,0.0,0.0,0.0,0.0,0.0,0.0,0.0,0.0,0.0,0.0,0.0,0.0,0.0,0.0,0.0,0.0,0.0,0.0,0.0,0.0,0.0,0.0,0.0,0.0,0.0,0.0,0.0,0.0,0.0,0.0,0.0,0.0,0.0,0.0,0.0,0.0,0.0,0.0,0.0,0.0,0.0,0.0,0.0,0.0,0.0,0.0,0.0,0.0,0.0,0.0,0.0,0.0,0.0,0.0,0.0,0.0,0.0,0.0,0.0,0.0,0.0,-3.1291,-3.1092,-3.0932,-3.0773,-3.0912,-3.1131,0.0,0.0,0.0,0.0,0.0,0.0,0.0,0.0,0.0,0.0,0.0,0.0,0.0,0.0,0.0,0.0,0.0,0.0,0.0,0.0,0.0,0.0,0.0,0.0,0.0,0.0,0.0,0.0,0.0,0.0,0.0,0.0,0.0,0.0,0.0,0.0,0.0,0.0,0.0,0.0,0.0,0.0,0.0,0.0,0.0,0.0,0.0,0.0,0.0,0.0,0.0,0.0,0.0,0.0,0.0,0.0,0.0,0.0,0.0,0.0,0.0,0.0,0.0,0.0,0.0,0.0,0.0,0.0,0.0,0.0,0.0,0.0,0.0,0.0,0.0,0.0,0.0,0.0,0.0,0.0,0.0,0.0,0.0,0.0,0.0,0.0,0.0,0.0,0.0,0.0,0.0,0.0,0.0,0.0,0.0,0.0,0.0,0.0,0.0,0.0,0.0,0.0,0.0,0.0,0.0,0.0,0.0,0.0,0.0,-3.1151,-3.0972,-3.0851,-3.0692,-3.0871,-3.1075,-3.137,0.0,0.0,0.0,0.0,0.0,0.0,0.0,0.0,0.0,0.0,0.0,0.0,0.0,0.0,0.0,0.0,0.0,0.0,0.0,0.0,0.0,0.0,0.0,0.0,0.0,0.0,0.0,0.0,0.0,0.0,0.0,0.0,0.0,0.0,0.0,0.0,0.0,0.0,0.0,0.0,0.0,0.0,0.0,0.0,0.0,0.0,0.0,0.0,0.0,0.0,0.0,0.0,0.0,0.0,0.0,0.0,0.0,0.0,0.0,0.0,0.0,0.0,0.0,0.0,0.0,0.0,0.0,0.0,0.0,0.0,0.0,0.0,0.0,0.0,0.0,0.0,0.0,0.0,0.0,0.0,0.0,0.0,0.0,0.0,0.0,0.0,0.0,0.0,0.0,0.0,0.0,0.0,0.0,0.0,0.0,0.0,0.0,0.0,0.0,0.0,0.0,0.0,0.0,0.0,0.0,0.0,0.0,0.0,-3.0995,-3.0932,-3.0831,-3.0708,-3.0875,-3.1154,0.0,0.0,0.0,0.0,0.0,0.0,0.0,0.0,0.0,0.0,0.0,0.0,0.0,0.0,0.0,0.0,0.0,0.0,0.0,0.0,0.0,0.0,0.0,0.0,0.0,0.0,0.0,0.0,0.0,0.0,0.0,0.0,0.0,0.0,0.0,0.0,0.0,0.0,0.0,0.0,0.0,0.0,0.0,0.0,0.0,0.0,0.0,0.0,0.0,0.0,0.0,0.0,0.0,0.0,0.0,0.0,0.0,0.0,0.0,0.0,0.0,0.0,0.0,0.0,0.0,0.0,0.0,0.0,0.0,0.0,0.0,0.0,0.0,0.0,0.0,0.0,0.0,0.0,0.0,0.0,0.0,0.0,0.0,0.0,0.0,0.0,0.0,0.0,0.0,0.0,0.0,0.0,0.0,0.0,0.0,0.0,0.0,0.0,0.0,0.0,0.0,0.0,0.0,0.0,0.0,0.0,0.0,0.0,0.0,-3.1015,-3.0834,-3.0692,-3.0568,-3.081,-3.1055,0.0,0.0,0.0,0.0,0.0,0.0,0.0,0.0,0.0,0.0,0.0,0.0,0.0,0.0,0.0,0.0,0.0,0.0,0.0,0.0,0.0,0.0,0.0,0.0,0.0,0.0,0.0,0.0,0.0,0.0,0.0,0.0,0.0,0.0,0.0,0.0,0.0,0.0,0.0,0.0,0.0,0.0,0.0,0.0,0.0,0.0,0.0,0.0,0.0,0.0,0.0,0.0,0.0,0.0,0.0,0.0,0.0,0.0,0.0,0.0,0.0,0.0,0.0,0.0,0.0,0.0,0.0,0.0,0.0,0.0,0.0,0.0,0.0,0.0,0.0,0.0,0.0,0.0,0.0,0.0,0.0,0.0,0.0,0.0,0.0,0.0,0.0,0.0,0.0,0.0,0.0,0.0,0.0,0.0,0.0,0.0,0.0,0.0,0.0,0.0,0.0,0.0,0.0,0.0,0.0,0.0,0.0,0.0,-3.1232,-3.0955,-3.0716,-3.0589,-3.0489,-3.0794,-3.1078,0.0,0.0,0.0,0.0,0.0,0.0,0.0,0.0,0.0,0.0,0.0,0.0,0.0,0.0,0.0,0.0,0.0,0.0,0.0,0.0,0.0,0.0,0.0,0.0,0.0,0.0,0.0,0.0,0.0,0.0,0.0,0.0,0.0,0.0,0.0,0.0,0.0,0.0,0.0,0.0,0.0,0.0,0.0,0.0,0.0,0.0,0.0,0.0,0.0,0.0,0.0,0.0,0.0,0.0,0.0,0.0,0.0,0.0,0.0,0.0,0.0,0.0,0.0,0.0,0.0,0.0,0.0,0.0,0.0,0.0,0.0,0.0,0.0,0.0,0.0,0.0,0.0,0.0,0.0,0.0,0.0,0.0,0.0,0.0,0.0,0.0,0.0,0.0,0.0,0.0,0.0,0.0,0.0,0.0,0.0,0.0,0.0,0.0,0.0,0.0,0.0,0.0,0.0,0.0,0.0,0.0,0.0,0.0,-3.1075,-3.0892,-3.0613,-3.0489,-3.0489,-3.0834,-3.1173,0.0,0.0,0.0,0.0,0.0,0.0,0.0,0.0,0.0,0.0,0.0,0.0,0.0,0.0,0.0,0.0,0.0,0.0,0.0,0.0,0.0,0.0,0.0,0.0,0.0,0.0,0.0,0.0,0.0,0.0,0.0,0.0,0.0,0.0,0.0,0.0,0.0,0.0,0.0,0.0,0.0,0.0,0.0,0.0,0.0,0.0,0.0,0.0,0.0,0.0,0.0,0.0,0.0,0.0,0.0,0.0,0.0,0.0,0.0,0.0,0.0,0.0,0.0,0.0,0.0,0.0,0.0,0.0,0.0,0.0,0.0,0.0,0.0,0.0,0.0,0.0,0.0,0.0,0.0,0.0,0.0,0.0,0.0,0.0,0.0,0.0,0.0,0.0,0.0,0.0,0.0,0.0,0.0,0.0,0.0,0.0,0.0,0.0,0.0,0.0,0.0,0.0,0.0,0.0,0.0,0.0,0.0,0.0,-3.0952,-3.0753,-3.0589,-3.0489,-3.0489,-3.0773,-3.1055,0.0,0.0,0.0,0.0,0.0,0.0,0.0,0.0,0.0,0.0,0.0,0.0,0.0,0.0,0.0,0.0,0.0,0.0,0.0,0.0,0.0,0.0,0.0,0.0,0.0,0.0,0.0,0.0,0.0,0.0,0.0,0.0,0.0,0.0,0.0,0.0,0.0,0.0,0.0,0.0,0.0,0.0,0.0,0.0,0.0,0.0,0.0,0.0,-3.7595,0.0,0.0,0.0,0.0,0.0,0.0,0.0,0.0,0.0,0.0,0.0,0.0,0.0,0.0,0.0,0.0,0.0,0.0,0.0,0.0,0.0,0.0,0.0,0.0,0.0,0.0,0.0,0.0,0.0,0.0,0.0,0.0,0.0,0.0,0.0,0.0,0.0,0.0,0.0,0.0,0.0,0.0,0.0,0.0,0.0,0.0,0.0,0.0,0.0,0.0,0.0,0.0,0.0,0.0,0.0,0.0,0.0,0.0,0.0,-3.0692,-3.0547,-3.0443,-3.0359,-3.0363,-3.0651,-3.0975,0.0,0.0,0.0,0.0,0.0,0.0,0.0,0.0,0.0,0.0,0.0,0.0,0.0,0.0,0.0,0.0,0.0,0.0,0.0,0.0,0.0,0.0,0.0,0.0,0.0,0.0,0.0,0.0,0.0,0.0,0.0,0.0,0.0,0.0,0.0,0.0,0.0,0.0,0.0,0.0,0.0,0.0,0.0,0.0,0.0,0.0,0.0,0.0,0.0,0.0,0.0,0.0,0.0,0.0,0.0,0.0,0.0,0.0,0.0,0.0,0.0,0.0,0.0,0.0,0.0,0.0,0.0,0.0,0.0,0.0,0.0,0.0,0.0,0.0,0.0,0.0,0.0,0.0,0.0,0.0,0.0,0.0,0.0,0.0,0.0,0.0,0.0,0.0,0.0,0.0,0.0,0.0,0.0,0.0,0.0,0.0,0.0,0.0,0.0,0.0,0.0,0.0,0.0,0.0,0.0,0.0,0.0,-3.0699,-3.0485,-3.038,-3.0295,-3.0253,-3.0253,-3.0547,-3.0915,-3.1274,0.0,0.0,0.0,0.0,0.0,0.0,0.0,0.0,0.0,0.0,0.0,0.0,0.0,0.0,0.0,0.0,0.0,0.0,0.0,0.0,0.0,0.0,0.0,0.0,0.0,0.0,0.0,0.0,0.0,0.0,0.0,0.0,0.0,0.0,0.0,0.0,0.0,0.0,-3.7429,-3.7353,0.0,0.0,0.0,0.0,0.0,0.0,0.0,0.0,-3.7595,0.0,0.0,0.0,0.0,0.0,0.0,0.0,0.0,0.0,0.0,0.0,0.0,0.0,0.0,0.0,0.0,0.0,0.0,0.0,0.0,0.0,0.0,0.0,0.0,0.0,0.0,0.0,0.0,0.0,0.0,0.0,0.0,0.0,0.0,0.0,0.0,0.0,0.0,0.0,0.0,0.0,0.0,0.0,0.0,0.0,0.0,0.0,0.0,0.0,0.0,0.0,0.0,0.0,0.0,0.0,0.0,-3.0848,-3.0736,-3.0584,-3.0401,-3.0422,-3.0447,-3.0464,-3.0712,-3.0992,-3.1213,0.0,0.0,0.0,0.0,0.0,0.0,0.0,0.0,0.0,0.0,0.0,0.0,0.0,0.0,0.0,0.0,0.0,0.0,0.0,0.0,0.0,0.0,0.0,0.0,0.0,0.0,0.0,0.0,0.0,0.0,0.0,0.0,0.0,0.0,0.0,0.0,0.0,0.0,0.0,-3.7336,-3.7297,0.0,0.0,0.0,0.0,0.0,0.0,0.0,0.0,-3.7595,0.0,0.0,0.0,0.0,0.0,0.0,0.0,0.0,0.0,0.0,0.0,0.0,0.0,0.0,0.0,0.0,0.0,0.0,0.0,0.0,0.0,0.0,0.0,0.0,0.0,0.0,0.0,0.0,0.0,0.0,0.0,0.0,0.0,0.0,0.0,0.0,0.0,0.0,0.0,0.0,0.0,0.0,0.0,0.0,0.0,0.0,0.0,0.0,0.0,0.0,0.0,0.0,0.0,0.0,0.0,-3.0634,-3.0489,-3.0354,-3.0162,-3.021,-3.0253,-3.0236,-3.0609,-3.0895,0.0,0.0,0.0,0.0,0.0,0.0,0.0,0.0,0.0,0.0,0.0,0.0,0.0,0.0,0.0,0.0,0.0,0.0,0.0,0.0,0.0,0.0,0.0,0.0,0.0,0.0,0.0,0.0,0.0,0.0,0.0,0.0,0.0,0.0,0.0,0.0,0.0,0.0,0.0,0.0,-3.7182,-3.7066,-3.7143,0.0,0.0,0.0,0.0,0.0,0.0,-3.7447,-3.7447,0.0,0.0,0.0,0.0,0.0,0.0,0.0,0.0,0.0,0.0,0.0,0.0,0.0,0.0,0.0,0.0,0.0,0.0,0.0,0.0,0.0,0.0,0.0,0.0,0.0,0.0,0.0,0.0,0.0,0.0,0.0,0.0,0.0,0.0,0.0,0.0,0.0,0.0,0.0,0.0,0.0,0.0,0.0,0.0,0.0,0.0,0.0,0.0,0.0,0.0,0.0,0.0,0.0,0.0,0.0,-3.0417,-3.0295,-3.0141,-2.9908,-3.0033,-3.0081,-3.0081,-3.0506,-3.0834,0.0,0.0,0.0,0.0,0.0,0.0,0.0,0.0,0.0,0.0,0.0,0.0,0.0,0.0,0.0,0.0,0.0,0.0,0.0,0.0,0.0,0.0,0.0,0.0,0.0,0.0,0.0,0.0,0.0,0.0,0.0,0.0,0.0,0.0,0.0,0.0,0.0,0.0,0.0,0.0,0.0,-3.6849,-3.6948,-3.695,0.0,0.0,0.0,0.0,-3.7297,-3.7297,0.0,0.0,0.0,0.0,0.0,0.0,0.0,0.0,0.0,0.0,0.0,0.0,0.0,0.0,0.0,0.0,0.0,0.0,0.0,0.0,0.0,0.0,0.0,0.0,0.0,0.0,0.0,0.0,0.0,0.0,0.0,0.0,0.0,0.0,0.0,0.0,0.0,0.0,0.0,0.0,0.0,0.0,0.0,0.0,0.0,0.0,0.0,0.0,0.0,0.0,0.0,0.0,0.0,0.0,0.0,0.0,-3.0422,-3.0396,-3.0253,-3.0017,-3.0231,-3.0338,-3.0354,-3.0708,-3.0972,0.0,0.0,0.0,0.0,0.0,0.0,0.0,0.0,0.0,0.0,0.0,0.0,0.0,0.0,0.0,0.0,0.0,0.0,0.0,0.0,0.0,0.0,0.0,0.0,0.0,0.0,0.0,0.0,0.0,0.0,0.0,0.0,0.0,0.0,0.0,0.0,0.0,0.0,0.0,0.0,0.0,-3.6809,-3.6811,-3.6811,-3.6851,0.0,0.0,-3.7164,-3.7278,-3.7297,0.0,0.0,0.0,0.0,0.0,0.0,0.0,0.0,0.0,0.0,0.0,0.0,0.0,0.0,0.0,0.0,0.0,0.0,0.0,0.0,0.0,0.0,0.0,0.0,0.0,0.0,0.0,0.0,0.0,0.0,0.0,0.0,0.0,0.0,0.0,0.0,0.0,0.0,0.0,0.0,0.0,0.0,0.0,0.0,0.0,0.0,0.0,0.0,0.0,0.0,0.0,0.0,0.0,0.0,0.0,-3.0855,-3.0417,-3.0253,-3.0103,-2.9946,-3.0081,-3.0167,-3.0167,-3.0506,-3.0773,0.0,0.0,0.0,0.0,0.0,0.0,0.0,0.0,0.0,0.0,0.0,0.0,0.0,0.0,0.0,0.0,0.0,0.0,0.0,0.0,0.0,0.0,0.0,0.0,0.0,0.0,0.0,0.0,0.0,0.0,0.0,0.0,0.0,0.0,0.0,0.0,0.0,0.0,0.0,0.0,0.0,0.0,-3.6745,-3.6687,0.0,0.0,0.0,-3.6906,-3.6928,0.0,0.0,0.0,0.0,0.0,0.0,0.0,0.0,0.0,0.0,0.0,0.0,0.0,0.0,0.0,0.0,0.0,0.0,0.0,0.0,0.0,0.0,0.0,0.0,0.0,0.0,0.0,0.0,0.0,0.0,0.0,0.0,0.0,0.0,0.0,0.0,0.0,0.0,0.0,0.0,0.0,0.0,0.0,0.0,0.0,0.0,0.0,0.0,0.0,0.0,0.0,0.0,0.0,0.0,0.0,0.0,0.0,-3.0417,-3.0167,-2.9995,-2.9918,-2.9995,-3.0055,-3.006,-3.0422,0.0,0.0,0.0,0.0,0.0,0.0,0.0,0.0,0.0,0.0,0.0,0.0,0.0,0.0,0.0,0.0,0.0,0.0,0.0,0.0,0.0,0.0,0.0,0.0,0.0,0.0,0.0,-3.2371,0.0,0.0,0.0,0.0,0.0,0.0,0.0,0.0,0.0,0.0,0.0,0.0,0.0,0.0,-3.6643,-3.6643,-3.6582,-3.6523,0.0,0.0,-3.6719,-3.6719,-3.6719,-3.6705,0.0,0.0,0.0,0.0,0.0,0.0,0.0,0.0,0.0,0.0,0.0,0.0,0.0,0.0,0.0,0.0,0.0,0.0,0.0,0.0,0.0,0.0,0.0,0.0,0.0,0.0,0.0,0.0,0.0,0.0,0.0,0.0,0.0,0.0,0.0,0.0,0.0,0.0,0.0,0.0,0.0,0.0,0.0,0.0,0.0,0.0,0.0,0.0,0.0,0.0,0.0,0.0,0.0,0.0,0.0,-3.0417,-3.0269,-3.0098,-2.9902,-3.0098,-3.0167,-3.0189,-3.063,-3.0895,0.0,0.0,0.0,0.0,0.0,0.0,0.0,0.0,0.0,0.0,0.0,0.0,0.0,0.0,0.0,0.0,0.0,0.0,0.0,0.0,0.0,0.0,0.0,0.0,0.0,0.0,0.0,0.0,0.0,0.0,0.0,0.0,0.0,0.0,0.0,0.0,0.0,0.0,0.0,0.0,0.0,-3.6541,-3.6502,-3.6502,-3.6502,0.0,0.0,-3.6719,-3.6702,-3.6719,-3.6719,-3.6702,0.0,0.0,0.0,0.0,0.0,0.0,0.0,0.0,0.0,0.0,0.0,0.0,0.0,0.0,0.0,0.0,0.0,0.0,0.0,0.0,0.0,0.0,0.0,0.0,0.0,0.0,0.0,0.0,0.0,0.0,0.0,0.0,0.0,0.0,0.0,0.0,0.0,0.0,0.0,0.0,0.0,0.0,0.0,0.0,0.0,0.0,0.0,0.0,0.0,0.0,0.0,0.0,0.0,-3.0781,-3.0464,-3.0184,-3.0011,-2.9968,-3.0055,-3.0103,-3.0205,-3.0459,-3.0651,0.0,0.0,0.0,0.0,0.0,0.0,0.0,0.0,0.0,0.0,0.0,0.0,0.0,0.0,0.0,0.0,0.0,0.0,0.0,0.0,0.0,0.0,0.0,0.0,0.0,0.0,0.0,0.0,-3.209,-3.209,-3.2108,0.0,0.0,0.0,0.0,0.0,0.0,0.0,0.0,0.0,0.0,-3.6482,-3.6402,-3.6381,0.0,0.0,-3.644,-3.6444,-3.6444,-3.6444,-3.6464,-3.6582,-3.6582,0.0,0.0,0.0,0.0,0.0,0.0,0.0,0.0,0.0,0.0,0.0,0.0,0.0,0.0,0.0,0.0,0.0,0.0,0.0,0.0,0.0,0.0,0.0,0.0,0.0,0.0,0.0,0.0,0.0,0.0,0.0,0.0,0.0,0.0,0.0,0.0,0.0,0.0,0.0,0.0,0.0,0.0,0.0,0.0,0.0,0.0,0.0,0.0,0.0,0.0,0.0,0.0,-3.0662,-3.0422,-3.0081,-2.9924,-2.9924,-2.9995,-3.0103,-3.0189,-3.0338,-3.0506,0.0,0.0,0.0,0.0,0.0,0.0,0.0,0.0,0.0,0.0,0.0,0.0,0.0,0.0,0.0,0.0,0.0,0.0,0.0,0.0,0.0,0.0,0.0,0.0,0.0,0.0,0.0,0.0,-3.2001,-3.2001,-3.2001,0.0,0.0,0.0,0.0,0.0,0.0,0.0,0.0,0.0,0.0,-3.6419,-3.6322,-3.6284,-3.6284,-3.6284,-3.6284,-3.6284,-3.6284,-3.6284,-3.6339,-3.6423,0.0,0.0,0.0,0.0,0.0,0.0,0.0,0.0,0.0,0.0,0.0,0.0,0.0,0.0,0.0,0.0,0.0,0.0,0.0,0.0,0.0,0.0,0.0,0.0,0.0,0.0,0.0,0.0,0.0,0.0,-3.1413,0.0,0.0,0.0,0.0,0.0,0.0,0.0,0.0,0.0,0.0,0.0,0.0,0.0,0.0,0.0,0.0,0.0,0.0,0.0,0.0,0.0,0.0,-3.0601,-3.0227,-3.006,-2.9902,-2.9726,-3.0033,-3.0189,-3.0189,-3.0384,-3.0568,-3.0692,0.0,0.0,0.0,0.0,0.0,0.0,0.0,0.0,0.0,0.0,0.0,0.0,0.0,0.0,0.0,0.0,0.0,0.0,0.0,0.0,0.0,0.0,0.0,0.0,0.0,0.0,-3.1818,-3.1818,-3.1818,0.0,0.0,0.0,0.0,0.0,0.0,0.0,0.0,0.0,0.0,-3.6301,-3.6301,-3.6284,-3.6284,-3.6284,-3.6284,-3.6284,-3.6301,-3.6318,-3.6301,-3.6284,0.0,0.0,0.0,0.0,0.0,0.0,0.0,0.0,0.0,0.0,0.0,0.0,0.0,0.0,0.0,0.0,0.0,0.0,0.0,0.0,0.0,0.0,0.0,0.0,0.0,0.0,0.0,-2.9603,-2.961,0.0,0.0,0.0,0.0,0.0,0.0,0.0,0.0,0.0,0.0,0.0,-3.0266,-3.0093,0.0,0.0,0.0,0.0,0.0,0.0,0.0,0.0,0.0,0.0,0.0,0.0,-3.033,-3.006,-2.9792,-2.9659,-2.9681,-2.983,-2.9886,-2.9919,-3.0006,-3.0215,-3.0568,0.0,0.0,0.0,0.0,0.0,0.0,0.0,0.0,0.0,0.0,0.0,0.0,0.0,0.0,0.0,0.0,0.0,0.0,0.0,0.0,0.0,0.0,0.0,0.0,0.0,-3.1837,0.0,0.0,0.0,0.0,0.0,0.0,0.0,0.0,0.0,0.0,0.0,-3.6284,-3.6284,-3.6284,-3.6284,-3.6284,-3.6284,-3.6297,0.0,0.0,0.0,0.0,0.0,0.0,0.0,0.0,0.0,0.0,0.0,0.0,0.0,0.0,-3.5321,-3.5519,-3.5259,-3.5015,-3.4975,0.0,0.0,0.0,0.0,0.0,0.0,0.0,0.0,0.0,0.0,0.0,0.0,0.0,0.0,-2.9408,0.0,-2.9408,0.0,0.0,0.0,0.0,0.0,0.0,0.0,0.0,-2.9848,-2.9856,-2.984,-2.984,-2.9895,0.0,-2.9796,-2.9994,0.0,0.0,0.0,0.0,0.0,0.0,0.0,0.0,-3.007,-2.9842,-2.9554,-2.9473,-2.9502,-2.9547,-2.9576,-2.9633,-2.97,-2.9919,-3.03,-3.0651,-3.0975,0.0,0.0,0.0,0.0,0.0,0.0,0.0,0.0,0.0,0.0,0.0,0.0,0.0,0.0,0.0,0.0,0.0,0.0,0.0,0.0,0.0,0.0,0.0,-3.18,0.0,0.0,0.0,0.0,0.0,0.0,0.0,0.0,0.0,-3.468,-3.5456,-3.6008,-3.6266,-3.6284,-3.6301,-3.6276,0.0,0.0,0.0,0.0,0.0,0.0,0.0,-3.6534,-3.7763,-3.7624,-3.7597,-3.8319,-3.8045,-3.7616,-3.7204,0.0,0.0,-3.5967,-3.5625,-3.5383,-3.5355,-3.5297,-3.5003,-3.407,-3.4441,-3.4706,0.0,0.0,0.0,0.0,0.0,0.0,0.0,0.0,-3.0371,-3.0356,0.0,-3.0366,0.0,0.0,0.0,0.0,0.0,-3.1155,0.0,0.0,-3.0942,-3.0914,-3.0772,-3.0756,-3.0848,-3.0927,-3.0237,-3.002,-3.0141,-3.0208,0.0,0.0,0.0,0.0,0.0,0.0,-2.982,-2.9493,-2.9373,-2.9236,-2.9121,-2.9236,-2.9305,-2.9312,-2.9515,-2.9738,-2.9995,-3.0321,-3.0671,-3.0975,-3.1196,0.0,0.0,0.0,0.0,0.0,0.0,0.0,0.0,0.0,0.0,0.0,0.0,0.0,0.0,0.0,0.0,0.0,0.0,0.0,0.0,-3.18,0.0,0.0,0.0,0.0,0.0,0.0,0.0,0.0,0.0,0.0,-3.416,-3.48,-3.549,-3.6215,0.0,0.0,0.0,0.0,-3.6161,-3.5997,-3.5997,-3.6014,-3.6027,-3.6031,-3.6288,-3.708,0.0,0.0,-3.8371,-3.8662,-3.8601,-3.8157,-3.7544,-3.702,-3.6477,-3.6146,-3.5925,-3.5895,-3.5895,-3.5457,-3.4319,-3.4431,-3.4649,-2.9369,0.0,0.0,0.0,0.0,-3.0114,-3.0193,-3.0256,-3.0256,-3.0308,-3.0402,-3.0402,0.0,0.0,0.0,0.0,0.0,0.0,-3.1285,-3.0721,-3.0721,-3.0629,-3.0505,-3.0505,-3.0516,-3.0567,-3.0468,-3.041,-3.047,-3.0774,-3.0525,-2.9738,0.0,0.0,0.0,0.0,-2.9509,-2.922,-2.9167,-2.9144,-2.9114,-2.9144,-2.9213,-2.9305,-2.9457,-2.9681,-2.9973,-3.0316,-3.0654,-3.0975,-3.1196,0.0,0.0,0.0,0.0,0.0,0.0,0.0,0.0,0.0,0.0,0.0,0.0,0.0,0.0,0.0,0.0,0.0,0.0,0.0,-3.1576,-3.1593,-3.1593,0.0,0.0,0.0,0.0,0.0,0.0,0.0,0.0,0.0,-3.4525,-3.5296,-3.5844,0.0,0.0,-3.6084,-3.6079,-3.6058,-3.6014,-3.5883,-3.5861,0.0,-3.6503,-3.6174,-3.6474,-3.8312,-3.8955,-3.9251,-3.9139,-3.8875,-3.8455,-3.7918,-3.7405,-3.6966,-3.6674,-3.646,-3.6353,-3.6353,-3.6307,-3.5905,-3.4684,-3.4498,-3.4405,-3.0213,-3.0576,-3.0386,-3.0458,-3.0716,-3.077,-3.0837,-3.0902,-3.0918,-3.0972,-3.1041,-3.1041,-3.1294,-3.1728,-3.1905,0.0,0.0,0.0,-3.1944,-3.1382,-3.1398,-3.1319,-3.1197,-3.1197,-3.1171,-3.1197,-3.1051,-3.098,-3.098,-3.1083,-3.078,-3.0108,0.0,0.0,-3.0256,-3.0318,-3.0098,-2.9634,-2.9641,-2.9545,-2.9259,-2.9259,-2.9328,-2.9425,-2.9509,-2.9687,-2.9995,-3.0279,-3.0572,-3.0875,-3.1078,-3.1252,0.0,0.0,0.0,0.0,0.0,0.0,0.0,0.0,0.0,0.0,0.0,-3.1688,-3.167,0.0,0.0,0.0,-3.1614,-3.1557,-3.1481,-3.1481,0.0,0.0,0.0,0.0,0.0,0.0,0.0,-3.296,-3.3247,-3.3754,-3.4657,-3.5385,-3.5888,-3.5975,-3.6014,-3.5975,-3.5932,0.0,-3.5883,-3.5751,-3.5728,-3.5859,-3.6231,-3.6265,-3.6864,-3.8708,-3.9421,-3.9575,-3.9169,-3.865,-3.8132,-3.761,-3.7225,-3.6938,-3.6723,-3.6616,-3.6492,-3.6492,-3.6492,-3.6122,-3.5106,-3.489,-3.469,-3.0943,-3.148,-3.1035,-3.1196,-3.1769,-3.1912,-3.1953,-3.1996,-3.1981,-3.1996,-3.2012,-3.2012,-3.2066,-3.2219,-3.2484,0.0,-3.2594,-3.2773,-3.2746,-3.2594,-3.2594,-3.2523,-3.2398,-3.2382,-3.2398,-3.2367,-3.1917,-3.1677,-3.1672,-3.1336,-3.1175,-3.12,-3.1595,-3.1653,-3.1404,-3.1518,-3.1254,-3.0545,-3.0615,-3.0332,-2.9753,-2.9672,-2.9685,-2.9758,-2.9671,-2.9788,-3.006,-3.0225,-3.0456,-3.0712,-3.0895,-3.1075,-3.119,0.0,0.0,0.0,0.0,0.0,0.0,0.0,0.0,0.0,0.0,0.0,0.0,0.0,0.0,0.0,-3.1498,0.0,-3.1479,-3.153,0.0,0.0,0.0,-3.2656,-3.2656,-3.3253,-3.3676,-3.3675,0.0,0.0,-3.4612,-3.5182,-3.5689,-3.5932,-3.5975,-3.5966,-3.5902,-3.5914,-3.5852,-3.5876,-3.5802,-3.5802,-3.6062,-3.6552,-3.7442,-3.8638,-3.9046,-3.9135,-3.875,-3.8274,-3.7801,-3.73,-3.7075,-3.6938,-3.6723,-3.6569,-3.6492,-3.6492,-3.6492,-3.6276,-3.5599,-3.5414,-3.5245,-3.1361,-3.1496,-3.1389,-3.1419,-3.1568,-3.1597,-3.1712,-3.1841,-3.1856,-3.1898,-3.1996,-3.2012,-3.2066,-3.2191,-3.229,-3.2358,-3.2468,-3.248,-3.2496,-3.2453,-3.2468,-3.2425,-3.2398,-3.2398,-3.2398,-3.2425,-3.2353,-3.2373,-3.2358,-3.2513,-3.2646,-3.2777,-3.3061,-3.2579,-3.1453,-3.1614,-3.1654,-3.1477,-3.1665,-3.1785,-3.1697,-3.1159,-3.0942,-3.103,-3.0451,-3.0246,-3.0526,-3.0654,-3.0814,-3.0898,-3.1072,-3.1154,-3.119,-3.119,0.0,0.0,0.0,0.0,0.0,0.0,0.0,0.0,0.0,-3.1481,-3.1481,0.0,-3.1481,0.0,-3.1406,-3.1329,-3.1269,-3.1777,0.0,0.0,-3.2778,-3.3198,-3.3198,-3.3367,-3.3672,-3.421,-3.443,-3.4747,-3.5301,-3.5481,-3.5605,-3.5689,-3.5706,-3.5909,-3.6469,-3.6547,-3.6768,-3.7212,-3.729,-3.7364,-3.7358,-3.799,-3.8565,-3.8888,-3.9311,-3.9382,-3.886,-3.8488,-3.802,-3.7255,-3.703,-3.6877,-3.6616,-3.6523,-3.6492,-3.6492,-3.6492,-3.6322,-3.566,-3.5491,-3.546,-3.1496,-3.1496,-3.1496,-3.1496,-3.1496,-3.1496,-3.1568,-3.167,-3.167,-3.1727,-3.1798,-3.1925,-3.2053,-3.2122,-3.2302,-3.2413,-3.2496,-3.2594,-3.2594,-3.248,-3.2496,-3.2453,-3.2398,-3.2398,-3.2398,-3.2425,-3.2621,-3.2746,-3.273,-3.3081,-3.3361,-3.3492,-3.3797,-3.3596,-3.2894,-3.2951,-3.286,-3.259,-3.2551,-3.2584,-3.268,-3.2321,-3.2144,-3.2187,-3.1788,-3.162,-3.1763,-3.1901,-3.1963,-3.2025,-3.2127,-3.2171,-3.2171,-3.2188,-3.2171,0.0,0.0,0.0,0.0,0.0,0.0,0.0,0.0,0.0,0.0,0.0,-3.1499,-3.1825,-3.1783,-3.1859,-3.2158,-3.2527,-3.278,-3.278,-3.344,-3.3897,-3.388,-3.4184,-3.4539,-3.4945,-3.4979,-3.5148,-3.5549,-3.5616,-3.5616,-3.5616,-3.5616,-3.591,-3.662,-3.6812,-3.7066,-3.777,-3.7898,-3.8041,-3.8328,-3.8734,-3.9123,-3.9345,-3.9512,-3.9415,-3.8887,-3.85,-3.8017,-3.7359,-3.7119,-3.6984,-3.6677,-3.6569,-3.6585,-3.6523,-3.6492,-3.6353,-3.6014,-3.5922,-3.5922,-3.1511,-3.1524,-3.1524,-3.1524,-3.1597,-3.1582,-3.1553,-3.1539,-3.1553,-3.1568,-3.1626,-3.1925,-3.2066,-3.2122,-3.2468,-3.2648,-3.2703,-3.2854,-3.2843,-3.2648,-3.2605,-3.2523,-3.2398,-3.241,-3.241,-3.2425,-3.2757,-3.2924,-3.2951,-3.3319,-3.3565,-3.3761,-3.4109,-3.4472,-3.4739,-3.4667,-3.4378,-3.3829,-3.3428,-3.3289,-3.3398,-3.3335,-3.3285,-3.3268,-3.3184,-3.3151,-3.3151,-3.3249,-3.3292,-3.3308,-3.336,-3.3389,-3.3389,-3.3389,-3.3389,0.0,-3.3389,0.0,0.0,0.0,0.0,0.0,0.0,0.0,0.0,-3.1478,-3.1769,-3.2395,-3.2446,-3.2696,-3.3334,-3.3491,-3.3541,-3.3575,-3.4184,-3.4641,-3.4658,-3.5233,-3.5616,-3.5616,-3.5616,-3.56,-3.56,-3.5616,-3.5616,-3.5616,-3.5752,-3.6146,-3.6772,-3.6998,-3.7303,-3.8041,-3.8193,-3.8565,-3.9005,-3.9182,-3.9352,-3.9783,-3.9729,-3.9388,-3.8942,-3.8511,-3.8014,-3.7565,-3.7298,-3.7088,-3.6769,-3.6693,-3.6677,-3.6523,-3.6492,-3.6476,-3.6445,-3.643,-3.6492,-3.1597,-3.1756,-3.1756,-3.1898,-3.2066,-3.2066,-3.1925,-3.1771,-3.1855,-3.1953,-3.2094,-3.2231,-3.2437,-3.2641,-3.2722,-3.29,-3.3176,-3.3112,-3.2978,-3.2843,-3.2691,-3.2523,-3.2425,-3.2523,-3.2551,-3.2594,-3.2908,-3.3139,-3.3214,-3.3414,-3.3668,-3.4025,-3.4325,-3.4643,-3.5034,0.0,0.0,0.0,-3.5054,-3.5037,-3.5116,-3.4542,-3.4242,-3.4226,-3.3664,0.0,-3.3343,-3.3364,-3.3381,-3.3381,-3.3385,0.0,0.0,0.0,0.0,0.0,0.0,0.0,0.0,0.0,0.0,0.0,-3.3152,-3.2979,-3.3,-3.3,-3.3051,-3.3186,-3.3203,-3.3237,-3.3406,-3.3947,-3.4286,-3.432,-3.4923,-3.538,-3.5397,-3.5515,-3.5616,-3.5616,-3.5616,-3.5616,-3.5616,-3.5616,-3.5616,-3.5633,-3.6163,-3.684,-3.755,-3.7669,-3.8176,-3.9385,-3.9571,-3.9706,-3.9876,-3.9859,-3.9851,-4.0045,-3.9935,-3.9651,-3.9222,-3.8871,-3.8415,-3.7801,-3.7492,-3.7238,-3.68,-3.6723,-3.6662,-3.6523,-3.6492,-3.6492,-3.6492,-3.6492,-3.6492,-3.1896,0.0,-3.215,-3.2259,0.0,-3.2535,-3.2535,-3.2496,-3.2342,-3.237,-3.2508,-3.2711,-3.2873,-3.3018,-3.3308,-3.3497,-3.3591,-3.3607,-3.345,-3.3176,-3.3027,-3.2839,-3.2648,-3.28,-3.2854,-3.2866,-3.3214,-3.3424,-3.3529,-3.3822,-3.4126,-3.4399,-3.4732,-3.5018,-3.5291,-3.5475,-3.5566,-3.5566,-3.5566,-3.5554,-3.5583,-3.5228,-3.5047,-3.5047,-3.4692,0.0,0.0,0.0,0.0,0.0,0.0,0.0,0.0,-3.4467,0.0,-3.4484,-3.4467,-3.4467,-3.4467,-3.4506,-3.4489,-3.4506,-3.4489,-3.4163,-3.3474,-3.3389,-3.3558,-3.3914,-3.3947,-3.41,-3.445,-3.4805,-3.503,-3.5064,-3.5363,-3.5616,-3.5616,-3.5616,-3.5616,-3.5616,-3.5616,-3.5616,-3.5616,-3.5616,-3.5616,-3.5633,-3.6299,-3.7083,-3.777,-3.8227,-3.8853,-3.991,-4.0113,-4.0096,-4.0113,-4.0113,-4.0113,-4.007,-3.9986,-3.9781,-3.9504,-3.9158,-3.8738,-3.8217,-3.7886,-3.7506,-3.7074,-3.6907,-3.677,-3.6554,-3.6492,-3.6492,-3.6492,-3.6492,-3.6492,-3.2302,-3.2342,-3.2586,-3.2722,-3.2819,-3.3076,-3.3272,-3.3403,0.0,0.0,0.0,-3.3308,-3.3455,-3.3491,-3.3984,-3.4151,-3.4075,-3.4151,-3.3975,-3.3633,-3.3477,-3.3282,-3.3058,-3.3176,-3.324,-3.3309,-3.3617,-3.3822,-3.3899,-3.4341,-3.4618,-3.4804,-3.5111,-3.536,-3.5514,-3.5571,-3.5616,-3.5616,-3.5616,-3.5616,-3.5616,-3.5616,-3.5616,-3.5616,-3.5616,-3.5616,-3.5616,-3.5616,-3.5616,-3.5616,-3.5616,-3.5616,-3.5616,-3.5616,-3.5616,-3.5616,-3.5616,-3.5616,-3.5616,-3.5616,-3.5616,-3.5616,-3.5616,-3.5076,-3.3858,-3.3774,-3.4049,-3.4641,-3.4692,-3.4945,-3.5549,-3.56,-3.5616,-3.5616,-3.5616,-3.5616,-3.5616,-3.5616,-3.5616,-3.5616,-3.5616,-3.5616,-3.5616,-3.5616,-3.5616,-3.5718,-3.6451,-3.7354,-3.8142,-3.8853,-3.9377,-3.9977,-4.0113,-4.0113,-4.0113,-4.0113,-4.0113,-4.0113,-4.0011,-3.9884,-3.9703,-3.9388,-3.8996,-3.8595,-3.823,-3.7711,-3.7238,-3.6998,-3.6831,-3.6554,-3.6492,-3.6492,-3.6492,-3.6492,-3.6492,-3.2683,-3.29,-3.306,-3.3288,-3.3565,-3.372,-3.3958,-3.4284,-3.4009,-3.3908,-3.3933,-3.4209,-3.4399,-3.448,-3.4586,-3.4667,-3.4739,-3.4546,-3.4349,-3.4176,-3.3924,-3.3736,-3.3607,-3.3736,-3.3864,-3.3975,-3.4134,-3.4325,-3.4546,-3.4618,-3.4804,-3.5041,-3.5222,-3.5406,-3.5554,-3.56,-3.5616,-3.5616,-3.5616,-3.5616,-3.5616,-3.5616,-3.5616,-3.5616,-3.5616,-3.5616,-3.5616,-3.5616,-3.5616,-3.5616,-3.5616,-3.5616,-3.5616,-3.5616,-3.5616,-3.5616,-3.5616,-3.5616,-3.5616,-3.5616,-3.5616,-3.5616,-3.5616,-3.5498,-3.5312,-3.5295,-3.5329,-3.5453,-3.5414,-3.5481,-3.56,-3.5616,-3.5616,-3.5616,-3.5616,-3.5616,-3.5616,-3.5616,-3.5616,-3.5616,-3.5616,-3.5616,-3.5616,-3.5616,-3.5616,-3.5802,-3.6749,-3.8176,-3.9334,-3.9876,-3.9977,-4.0079,-4.0113,-4.0113,-4.0113,-4.0113,-4.0113,-4.0113,-4.007,-3.9995,-3.9884,-3.9616,-3.9228,-3.8722,-3.8258,-3.774,-3.7195,-3.6892,-3.6723,-3.6554,-3.6523,-3.6523,-3.6492,-3.6492,-3.6492,-3.3314,-3.3481,-3.3713,-3.3866,-3.405,-3.4325,-3.4546,-3.4715,-3.4828,-3.4732,-3.457,-3.4756,-3.4859,-3.4923,-3.5081,-3.5128,-3.5105,-3.5011,-3.4828,-3.4618,-3.4423,-3.4275,-3.4151,-3.4259,-3.4374,-3.4423,-3.4643,-3.4787,-3.4923,-3.5065,-3.5198,-3.5331,-3.5429,-3.5509,-3.56,-3.5616,-3.5616,-3.5616,-3.5616,-3.5616,-3.5616,-3.5616,-3.5616,-3.5616,-3.5616,-3.5616,-3.5616,-3.5616,-3.5616,-3.5616,-3.5616,-3.5616,-3.5616,-3.5616,-3.5616,-3.5616,-3.5616,-3.5616,-3.5616,-3.5616,-3.5616,-3.5616,-3.5616,-3.5616,-3.5616,-3.5616,-3.5616,-3.5616,-3.5616,-3.5616,-3.5616,-3.5616,-3.5616,-3.5616,-3.5616,-3.5616,-3.5616,-3.5616,-3.5616,-3.5616,-3.5616,-3.5616,-3.5616,-3.5616,-3.5616,-3.5735,-3.6935,-3.843,-3.9859,-4.0096,-4.0113,-4.0113,-4.0113,-4.0113,-4.0113,-4.0113,-4.0113,-4.0113,-4.0113,-4.007,-3.9986,-3.9798,-3.9441,-3.9007,-3.8511,-3.8004,-3.748,-3.715,-3.6892,-3.6662,-3.66,-3.66,-3.6523,-3.6492,-3.6492,-3.3899,-3.405,-3.43,-3.4423,-3.4497,-3.4828,-3.497,-3.5081,-3.536,-3.5337,-3.5088,-3.5182,-3.5205,-3.5228,-3.5429,-3.5475,-3.5383,-3.5337,-3.5245,-3.5041,-3.4899,-3.4763,-3.4691,-3.4787,-3.4851,-3.4899,-3.5088,-3.5198,-3.5245,-3.5412,-3.552,-3.552,-3.5594,-3.5616,-3.5616,-3.5616,-3.5616,-3.5616,-3.5616,-3.5616,-3.5616,-3.5616,-3.5616,-3.5616,-3.5616,-3.5616,-3.5616,-3.5616,-3.5616,-3.5616,-3.5616,-3.5616,-3.5616,-3.5616,-3.5616,-3.5616,-3.5616,-3.5616,-3.5616,-3.5616,-3.5616,-3.5616,-3.5616,-3.5616,-3.5616,-3.5616,-3.5616,-3.5616,-3.5616,-3.5616,-3.5616,-3.5616,-3.5616,-3.5616,-3.5616,-3.5616,-3.5616,-3.5616,-3.5616,-3.5616,-3.5616,-3.5616,-3.5616,-3.5616,-3.5684,-3.6062,-3.7053,-3.8396,-3.9571,-3.996,-4.0096,-4.0113,-4.0113,-4.0113,-4.0113,-4.0113,-4.0113,-4.0113,-4.0113,-4.0096,-4.0045,-3.991,-3.9609,-3.9249,-3.8805,-3.8319,-3.786,-3.7462,-3.7134,-3.6846,-3.6723,-3.6662,-3.6523,-3.6492,-3.6492,-3.4325,-3.4448,-3.4594,-3.4787,-3.5018,-3.5081,-3.5205,-3.5423,-3.5492,-3.552,-3.5526,-3.5554,-3.5549,-3.5554,-3.5594,-3.5577,-3.5554,-3.5498,-3.5469,-3.5406,-3.5308,-3.5245,-3.5222,-3.5245,-3.5314,-3.5383,-3.5429,-3.5475,-3.5532,-3.5577,-3.5577,-3.5577,-3.5583,-3.5616,-3.5616,-3.5616,-3.5616,-3.5616,-3.5616,-3.5616,-3.5616,-3.5616,-3.5616,-3.5616,-3.5616,-3.5616,-3.5616,-3.5616,-3.5616,-3.5616,-3.5616,-3.5616,-3.5616,-3.5616,-3.5616,-3.5616,-3.5616,-3.5616,-3.5616,-3.5616,-3.5616,-3.5616,-3.5616,-3.5616,-3.5616,-3.5616,-3.5616,-3.5616,-3.5616,-3.5616,-3.5616,-3.5616,-3.5616,-3.5616,-3.5616,-3.5616,-3.5616,-3.5616,-3.5616,-3.5616,-3.5616,-3.5616,-3.5616,-3.5616,-3.587,-3.6485,-3.7313,-3.821,-3.9056,-3.9757,-4.0096,-4.0113,-4.0113,-4.0113,-4.0113,-4.0113,-4.0113,-4.0113,-4.0113,-4.0113,-4.0045,-3.9961,-3.9755,-3.9355,-3.898,-3.8583,-3.8087,-3.7623,-3.7344,-3.7105,-3.6892,-3.6662,-3.6554,-3.6523,-3.6523,-3.4851,-3.4994,-3.5018,-3.5111,-3.5222,-3.5291,-3.5383,-3.5492,-3.5526,-3.5594,-3.56,-3.5616,-3.5616,-3.5616,-3.5616,-3.5616,-3.56,-3.5571,-3.5549,-3.5566,-3.5503,-3.5464,-3.5481,-3.5481,-3.5503,-3.5549,-3.5571,-3.5588,-3.56,-3.5616,-3.5616,-3.5616,-3.5616,-3.5616,-3.5616,-3.5616,-3.5616,-3.5616,-3.5616,-3.5616,-3.5616,-3.5616,-3.5616,-3.5616,-3.5616,-3.5616,-3.5616,-3.5616,-3.5616,-3.5616,-3.5616,-3.5616,-3.5616,-3.5616,-3.5616,-3.5616,-3.5616,-3.5616,-3.5616,-3.5616,-3.5616,-3.5616,-3.5616,-3.5616,-3.5616,-3.5616,-3.5616,-3.5616,-3.5616,-3.5616,-3.5616,-3.5616,-3.5616,-3.5616,-3.5616,-3.5616,-3.5616,-3.5616,-3.5616,-3.5616,-3.5616,-3.5616,-3.5616,-3.5616,-3.596,-3.6694,-3.7432,-3.8159,-3.887,-3.9614,-4.0045,-4.0113,-4.0113,-4.0113,-4.0113,-4.0113,-4.0113,-4.0113,-4.0113,-4.0113,-4.007,-3.9986,-3.9781,-3.9513,-3.9249,-3.8925,-3.8539,-3.8173,-3.7828,-3.7478,-3.709,-3.6831,-3.6677,-3.6631,-3.66,-3.5222,-3.5308,-3.5308,-3.5314,-3.536,-3.5469,-3.5514,-3.5537,-3.5577,-3.5616,-3.5616,-3.5616,-3.5616,-3.5616,-3.5616,-3.5616,-3.5616,-3.5616,-3.5616,-3.5616,-3.5616,-3.5616,-3.5616,-3.5616,-3.5616,-3.5616,-3.56,-3.56,-3.5616,-3.5616,-3.5616,-3.5616,-3.5616,-3.5616,-3.5616,-3.5616,-3.5616,-3.5616,-3.5616,-3.5616,-3.5616,-3.5616,-3.5616,-3.5616,-3.5616,-3.5616,-3.5616,-3.5616,-3.5616,-3.5616,-3.5616,-3.5616,-3.5616,-3.5616,-3.5616,-3.5616,-3.5616,-3.5616,-3.5616,-3.5616,-3.5616,-3.5616,-3.5616,-3.5616,-3.5616,-3.5616,-3.5616,-3.5616,-3.5616,-3.5616,-3.5616,-3.5616,-3.5616,-3.5616,-3.5616,-3.5616,-3.5616,-3.5616,-3.5616,-3.5616,-3.5616,-3.5616,-3.5616,-3.5616,-3.5819,-3.6366,-3.728,-3.8041,-3.87,-3.9428,-4.0113,-4.0113,-4.0113,-4.0113,-4.0113,-4.0113,-4.0113,-4.0113,-4.0113,-4.0113,-4.0113,-4.0011,-3.991,-3.9713,-3.9513,-3.9302,-3.9023,-3.8694,-3.8286,-3.7844,-3.7419,-3.7044,-3.6831,-3.6754,-3.6662,-3.5308,-3.5308,-3.5314,-3.5383,-3.5492,-3.5492,-3.5543,-3.5594,-3.56,-3.5616,-3.5616,-3.5616,-3.5616,-3.5616,-3.5616,-3.5616,-3.5616,-3.5616,-3.5616,-3.5616,-3.5616,-3.5616,-3.5616,-3.5616,-3.5616,-3.5616,-3.5701,-3.5718,-3.5718,-3.5684,-3.5616,-3.565,-3.5735,-3.5667,-3.5735,-3.5769,-3.565,-3.5769,-3.5718,-3.565,-3.5633,-3.5633,-3.5616,-3.5616,-3.5616,-3.5616,-3.5616,-3.5616,-3.5616,-3.5616,-3.5616,-3.5616,-3.5616,-3.5616,-3.5616,-3.5616,-3.5616,-3.5616,-3.5616,-3.5616,-3.5616,-3.5616,-3.5616,-3.5616,-3.5616,-3.5616,-3.5616,-3.5616,-3.5616,-3.5616,-3.5616,-3.5616,-3.5616,-3.5616,-3.5616,-3.5616,-3.5616,-3.5616,-3.5616,-3.5616,-3.5616,-3.5616,-3.5616,-3.5616,-3.5633,-3.6011,-3.6975,-3.7939,-3.821,-3.9208,-3.9977,-4.0113,-4.0113,-4.0113,-4.0113,-4.0113,-4.0113,-4.0113,-4.0113,-4.0113,-4.0113,-4.0087,-4.0011,-3.9952,-3.9833,-3.9677,-3.9484,-3.9121,-3.865,-3.8201,-3.7711,-3.7373,-3.7059,-3.6846,-3.6693,-3.5503,-3.5503,-3.5487,-3.5526,-3.5549,-3.5571,-3.5594,-3.5616,-3.5616,-3.5616,-3.5616,-3.5616,-3.5616,-3.5616,-3.5616,-3.5616,-3.5616,-3.5616,-3.5616,-3.5616,-3.5616,-3.5616,-3.5616,-3.5616,-3.5616,-3.5667,-3.6113,-3.662,-3.706,-3.707,-3.7077,-3.7053,-3.707,-3.7053,-3.7053,-3.7094,-3.7053,-3.7043,-3.662,-3.6366,-3.6315,-3.587,-3.5616,-3.5616,-3.5616,-3.5616,-3.5616,-3.5616,-3.5616,-3.5616,-3.5616,-3.5616,-3.5616,-3.5616,-3.5616,-3.5616,-3.5616,-3.5616,-3.5616,-3.5616,-3.5616,-3.5616,-3.5616,-3.5616,-3.5616,-3.5616,-3.5616,-3.5616,-3.5616,-3.5616,-3.5616,-3.5616,-3.5616,-3.5616,-3.5616,-3.5616,-3.5616,-3.5616,-3.5616,-3.5616,-3.5616,-3.5616,-3.5616,-3.5616,-3.5616,-3.5752,-3.6918,-3.7746,-3.8125,-3.9157,-4.0113,-4.0113,-4.0113,-4.0113,-4.0113,-4.0113,-4.0113,-4.0113,-4.0113,-4.0113,-4.0113,-4.0113,-4.0037,-4.0037,-4.0011,-3.991,-3.9677,-3.9398,-3.8936,-3.8595,-3.8144,-3.7711,-3.7314,-3.7074,-3.6785,-3.5616,-3.5616,-3.5616,-3.5616,-3.5616,-3.5616,-3.5616,-3.5616,-3.5616,-3.5616,-3.5616,-3.5616,-3.5616,-3.5616,-3.5616,-3.5616,-3.5616,-3.5616,-3.5616,-3.5633,-3.5876,-3.5994,-3.6022,-3.6225,-3.6326,-3.6411,-3.6874,-3.7432,-3.7855,-3.7898,-3.7898,-3.7889,-3.7898,-3.7898,-3.7898,-3.7898,-3.7898,-3.7787,-3.7398,-3.7168,-3.7077,-3.6614,-3.6343,-3.6343,-3.6343,-3.6073,-3.565,-3.5616,-3.5616,-3.5616,-3.5616,-3.5616,-3.5616,-3.5616,-3.5616,-3.5616,-3.5616,-3.5616,-3.5616,-3.5616,-3.5616,-3.5616,-3.5616,-3.5616,-3.5616,-3.5616,-3.5616,-3.5616,-3.5616,-3.5616,-3.5616,-3.5616,-3.5616,-3.5616,-3.5616,-3.5616,-3.5616,-3.5616,-3.5616,-3.5616,-3.5616,-3.5616,-3.5616,-3.5616,-3.5616,-3.5616,-3.6941,-3.7831,-3.8075,-3.9106,-4.0113,-4.0113,-4.0113,-4.0113,-4.0113,-4.0113,-4.0113,-4.0113,-4.0113,-4.0113,-4.0113,-4.0113,-4.0113,-4.0113,-4.0087,-4.0011,-3.9841,-3.9592,-3.9329,-3.9023,-3.8623,-3.8173,-3.774,-3.7284,-3.6998,-3.5616,-3.5616,-3.5616,-3.5616,-3.5616,-3.5616,-3.5616,-3.5616,-3.5616,-3.5616,-3.5616,-3.5616,-3.5616,-3.5616,-3.5701,-3.5667,-3.5718,-3.5819,-3.5802,-3.5785,-3.6451,-3.6795,-3.684,-3.7381,-3.7736,-3.7787,-3.7889,-3.7915,-3.8108,-3.8142,-3.8125,-3.8024,-3.8125,-3.821,-3.8007,-3.8142,-3.8058,-3.8058,-3.8007,-3.7922,-3.7905,-3.7787,-3.7702,-3.7729,-3.7736,-3.7104,-3.5802,-3.5701,-3.5718,-3.5684,-3.5616,-3.5616,-3.5616,-3.5616,-3.5616,-3.5616,-3.5616,-3.5616,-3.5616,-3.5616,-3.5616,-3.5616,-3.5616,-3.5616,-3.5616,-3.5616,-3.5616,-3.5616,-3.5616,-3.5616,-3.5616,-3.5616,-3.5616,-3.5616,-3.5616,-3.5616,-3.5616,-3.5616,-3.5616,-3.5616,-3.5616,-3.5616,-3.5616,-3.5616,-3.5633,-3.5971,-3.6952,-3.7973,-3.8176,-3.9266,-3.9977,-4.0113,-4.0113,-4.0113,-4.0113,-4.0113,-4.0113,-4.0113,-4.0113,-4.0113,-4.0113,-4.0113,-4.0113,-4.0113,-4.0113,-4.0062,-3.9995,-3.9764,-3.9661,-3.9345,-3.8996,-3.8595,-3.8116,-3.7623,-3.7194,-3.5616,-3.5616,-3.5616,-3.5616,-3.5616,-3.5616,-3.5616,-3.5616,-3.5616,-3.5616,-3.5616,-3.5616,-3.5616,-3.5752,-3.6163,-3.6417,-3.6468,-3.6907,-3.6924,-3.6637,-3.7212,-3.755,-3.7601,-3.7804,-3.8176,-3.8582,-3.8667,-3.8937,-3.9292,-3.936,-3.9394,-3.9436,-3.9394,-3.9436,-3.9368,-3.9394,-3.9419,-3.9368,-3.8903,-3.865,-3.8599,-3.8176,-3.7922,-3.7898,-3.7882,-3.7635,-3.7188,-3.6705,-3.6434,-3.64,-3.5887,-3.5616,-3.5616,-3.5616,-3.5616,-3.5616,-3.5616,-3.5616,-3.5616,-3.5616,-3.5616,-3.5616,-3.5616,-3.5616,-3.5616,-3.5616,-3.5616,-3.5616,-3.5616,-3.5616,-3.5616,-3.5616,-3.5616,-3.5616,-3.5616,-3.5616,-3.5616,-3.5616,-3.5616,-3.5616,-3.5616,-3.5616,-3.5616,-3.5616,-3.5876,-3.6349,-3.7297,-3.8041,-3.8667,-3.9436,-4.0062,-4.0113,-4.0113,-4.0113,-4.0113,-4.0113,-4.0113,-4.0113,-4.0113,-4.0113,-4.0113,-4.0113,-4.0113,-4.0113,-4.0113,-4.007,-4.002,-3.9961,-3.9833,-3.9677,-3.9329,-3.8898,-3.8455,-3.8001,-3.7506,-3.5616,-3.5616,-3.5616,-3.5616,-3.5616,-3.5616,-3.5616,-3.5616,-3.5616,-3.5616,-3.565,-3.5943,-3.6062,-3.6214,-3.684,-3.7202,-3.7297,-3.7973,-3.8058,-3.7726,-3.8041,-3.8294,-3.8362,-3.8616,-3.892,-3.9317,-3.9394,-3.9656,-4.0079,-4.0113,-4.0096,-4.0096,-4.0113,-4.0079,-4.0113,-4.0113,-4.0113,-4.0028,-3.9656,-3.9394,-3.9334,-3.8954,-3.8717,-3.8717,-3.8717,-3.8717,-3.865,-3.8007,-3.7483,-3.7195,-3.6705,-3.6462,-3.6445,-3.6502,-3.6445,-3.6411,-3.6191,-3.6062,-3.6028,-3.5785,-3.5616,-3.5616,-3.5616,-3.5616,-3.5616,-3.5616,-3.5616,-3.5616,-3.5616,-3.5616,-3.5616,-3.5616,-3.5616,-3.5616,-3.5616,-3.5616,-3.5616,-3.5616,-3.5616,-3.5616,-3.5616,-3.5616,-3.5616,-3.596,-3.6197,-3.6829,-3.7669,-3.8379,-3.9022,-3.9622,-3.9926,-4.0113,-4.0113,-4.0113,-4.0113,-4.0113,-4.0113,-4.0113,-4.0113,-4.0113,-4.0113,-4.0113,-4.0113,-4.0113,-4.0113,-4.0113,-4.0045,-4.007,-4.0011,-3.979,-3.9609,-3.9222,-3.8788,-3.8315,-3.7857,-3.5616,-3.5616,-3.5616,-3.5616,-3.5616,-3.5616,-3.5616,-3.5616,-3.5616,-3.5667,-3.5859,-3.64,-3.6795,-3.6998,-3.7618,-3.7956,-3.8091,-3.8717,-3.9039,-3.8971,-3.9056,-3.9056,-3.9123,-3.9605,-3.9876,-3.9977,-4.0011,-4.0062,-4.0113,-4.0113,-4.0113,-4.0113,-4.0113,-4.0113,-4.0113,-4.0113,-4.0113,-4.0096,-4.0062,-4.0028,-4.0028,-4.0011,-3.9994,-3.996,-3.9926,-3.9926,-3.9791,-3.9283,-3.8616,-3.8024,-3.7713,-3.7662,-3.7838,-3.7889,-3.7729,-3.7686,-3.7178,-3.6931,-3.6711,-3.6349,-3.5955,-3.5971,-3.5988,-3.5718,-3.5955,-3.6039,-3.6039,-3.6005,-3.5955,-3.5887,-3.5904,-3.5921,-3.5921,-3.5785,-3.5735,-3.5633,-3.5616,-3.5616,-3.5616,-3.5616,-3.5616,-3.565,-3.5752,-3.6332,-3.6728,-3.7286,-3.82,-3.8809,-3.9266,-3.9723,-4.0011,-4.0113,-4.0113,-4.0113,-4.0113,-4.0113,-4.0113,-4.0113,-4.0113,-4.0113,-4.0113,-4.0113,-4.0113,-4.0113,-4.0113,-4.0113,-4.0113,-4.0113,-4.0087,-3.9935,-3.9713,-3.9478,-3.9131,-3.8678,-3.8286,-3.5616,-3.5616,-3.5616,-3.5616,-3.5616,-3.5616,-3.5616,-3.5616,-3.5633,-3.5977,-3.6434,-3.6694,-3.7144,-3.7669,-3.8362,-3.8717,-3.8886,-3.9453,-3.9825,-3.9825,-3.9808,-3.9808,-3.9825,-3.9994,-4.0096,-4.0096,-4.0138,-4.0113,-4.0113,-4.0096,-4.0096,-4.0113,-4.0113,-4.0113,-4.0113,-4.0113,-4.0113,-4.0113,-4.0113,-4.0113,-4.0113,-4.0113,-4.0113,-4.0113,-4.0113,-4.0113,-4.0113,-3.9943,-3.9199,-3.8024,-3.7898,-3.7898,-3.8007,-3.8007,-3.8041,-3.799,-3.7787,-3.7618,-3.7567,-3.7381,-3.728,-3.7273,-3.7138,-3.729,-3.7313,-3.7273,-3.729,-3.729,-3.729,-3.7239,-3.7263,-3.7229,-3.7239,-3.7138,-3.636,-3.5735,-3.5718,-3.5616,-3.5616,-3.5616,-3.5684,-3.5977,-3.64,-3.6755,-3.7286,-3.8132,-3.8717,-3.9208,-3.9622,-3.9808,-4.0113,-4.0113,-4.0113,-4.0113,-4.0113,-4.0113,-4.0113,-4.0113,-4.0113,-4.0113,-4.0113,-4.0113,-4.0113,-4.0113,-4.0113,-4.0113,-4.0113,-4.0113,-4.0062,-4.0037,-3.991,-3.9703,-3.9504,-3.9158,-3.8761,-3.5616,-3.5616,-3.5616,-3.5616,-3.5616,-3.5616,-3.5785,-3.6079,-3.6129,-3.6552,-3.7195,-3.7601,-3.7956,-3.8413,-3.9106,-3.9445,-3.9512,-3.991,-4.0104,-4.0188,-4.0229,-4.0179,-4.0146,-4.0138,-4.0171,-4.0188,-4.0238,-4.0238,-4.0188,-4.0188,-4.0163,-4.0096,-4.0113,-4.0113,-4.0113,-4.0113,-4.0113,-4.0113,-4.0113,-4.0113,-4.0113,-4.0113,-4.0113,-4.0113,-4.0113,-4.0113,-4.0113,-4.0096,-3.9673,-3.8988,-3.8819,-3.8819,-3.8819,-3.8802,-3.8819,-3.8819,-3.8565,-3.8362,-3.8294,-3.8108,-3.7898,-3.7882,-3.7898,-3.7898,-3.7872,-3.7898,-3.7898,-3.7831,-3.7898,-3.7898,-3.7898,-3.7898,-3.7898,-3.7736,-3.7094,-3.6563,-3.6586,-3.6631,-3.6586,-3.6563,-3.6597,-3.6705,-3.7246,-3.7483,-3.8075,-3.8768,-3.9249,-3.9639,-3.9977,-4.0062,-4.0113,-4.0113,-4.0113,-4.0113,-4.0113,-4.0113,-4.0113,-4.0113,-4.0113,-4.0113,-4.0113,-4.0113,-4.0113,-4.0113,-4.0113,-4.0113,-4.0113,-4.0113,-4.0087,-4.0062,-4.0011,-3.991,-3.9729,-3.9547,-3.9185,-3.5616,-3.5616,-3.5616,-3.5633,-3.5752,-3.5735,-3.6231,-3.6823,-3.6891,-3.7313,-3.8024,-3.8684,-3.8903,-3.9157,-3.9706,-4.0062,-4.0062,-4.0079,-4.0171,-4.0288,-4.0387,-4.0387,-4.0246,-4.0288,-4.0313,-4.0337,-4.0436,-4.0387,-4.0313,-4.0305,-4.0213,-4.0138,-4.0113,-4.0113,-4.0113,-4.0113,-4.0113,-4.0113,-4.0113,-4.0113,-4.0113,-4.0113,-4.0113,-4.0113,-4.0113,-4.0113,-4.0113,-4.0113,-4.0011,-4.0079,-4.0113,-3.996,-3.9994,-4.0045,-4.0011,-3.9876,-3.9394,-3.9089,-3.9022,-3.8616,-3.8244,-3.8311,-3.8294,-3.8125,-3.8311,-3.8396,-3.8379,-3.8413,-3.8159,-3.8328,-3.8345,-3.8244,-3.8328,-3.8362,-3.8176,-3.8142,-3.8091,-3.8007,-3.7898,-3.7898,-3.7848,-3.7905,-3.8176,-3.8548,-3.9022,-3.9266,-3.9656,-3.9859,-4.0062,-4.0079,-4.0113,-4.0113,-4.0113,-4.0113,-4.0113,-4.0113,-4.0113,-4.0113,-4.0113,-4.0113,-4.0113,-4.0113,-4.0113,-4.0113,-4.0113,-4.0113,-4.0113,-4.0113,-4.0113,-4.0113,-4.0062,-4.0011,-3.9935,-3.9781,-3.9494,-3.5616,-3.5616,-3.5616,-3.596,-3.6485,-3.6552,-3.6958,-3.7652,-3.7669,-3.8075,-3.8684,-3.8954,-3.9326,-3.9842,-4.0011,-4.0113,-4.0096,-4.0121,-4.0188,-4.0288,-4.0419,-4.0534,-4.051,-4.0551,-4.0485,-4.0485,-4.0485,-4.0436,-4.0379,-4.0355,-4.0238,-4.0163,-4.0163,-4.0096,-4.0121,-4.0121,-4.0113,-4.0096,-4.0096,-4.0121,-4.0138,-4.0138,-4.0121,-4.0121,-4.0113,-4.0113,-4.0113,-4.0113,-4.0113,-4.0113,-4.0113,-4.0113,-4.0113,-4.0113,-4.0113,-4.0062,-3.9977,-3.9842,-3.9808,-3.9639,-3.958,-3.9486,-3.9436,-3.9622,-3.9639,-3.9554,-3.9571,-3.9639,-3.9639,-3.9486,-3.9469,-3.9588,-3.9503,-3.9453,-3.9462,-3.9495,-3.9411,-3.8616,-3.8125,-3.8024,-3.8041,-3.8125,-3.8684,-3.8853,-3.9276,-3.9723,-3.9926,-4.0079,-4.0113,-4.0113,-4.0113,-4.0113,-4.0113,-4.0113,-4.0113,-4.0113,-4.0113,-4.0113,-4.0113,-4.0113,-4.0113,-4.0113,-4.0113,-4.0113,-4.0113,-4.0113,-4.0113,-4.0113,-4.0113,-4.0113,-4.0113,-4.0062,-4.0011,-3.991,-3.9824,-3.5819,-3.6163,-3.6163,-3.6603,-3.7246,-3.733,-3.7736,-3.8311,-3.8413,-3.8819,-3.9377,-3.9537,-3.9757,-4.0079,-4.0113,-4.0113,-4.0121,-4.0246,-4.0362,-4.0527,-4.068,-4.0834,-4.0888,-4.0894,-4.0877,-4.0799,-4.0813,-4.0758,-4.0697,-4.0648,-4.06,-4.0387,-4.0362,-4.0362,-4.0313,-4.0296,-4.0296,-4.0313,-4.0271,-4.0271,-4.0271,-4.0271,-4.0271,-4.0246,-4.0238,-4.0188,-4.0188,-4.0121,-4.0096,-4.0113,-4.0113,-4.0096,-4.0113,-4.0113,-4.0113,-4.0113,-4.0113,-4.0113,-4.0096,-4.0113,-4.0062,-4.0113,-4.0113,-4.0113,-4.0113,-4.0113,-4.0113,-4.0113,-4.0079,-4.0096,-4.0113,-4.0079,-4.0113,-4.0113,-4.0113,-4.0113,-3.996,-3.9385,-3.892,-3.892,-3.9022,-3.9157,-3.9377,-3.9377,-3.9512,-3.996,-3.9977,-4.0113,-4.0113,-4.0113,-4.0113,-4.0113,-4.0113,-4.0113,-4.0113,-4.0113,-4.0113,-4.0113,-4.0113,-4.0113,-4.0113,-4.0113,-4.0113,-4.0113,-4.0113,-4.0113,-4.0113,-4.0113,-4.0113,-4.0113,-4.0113,-4.0113,-4.0087,-4.0011,-3.9952,-3.6349,-3.6988,-3.6988,-3.7428,-3.8055,-3.8139,-3.8529,-3.9139,-3.9182,-3.9486,-4.0011,-4.0113,-4.0028,-4.0113,-4.0113,-4.0096,-4.0196,-4.0345,-4.0534,-4.0721,-4.0929,-4.1093,-4.1169,-4.1267,-4.1358,-4.1279,-4.1226,-4.118,-4.1129,-4.114,-4.0965,-4.0799,-4.0752,-4.071,-4.0638,-4.0614,-4.0621,-4.0638,-4.0638,-4.0638,-4.0638,-4.0638,-4.0614,-4.0566,-4.051,-4.0436,-4.0387,-4.0288,-4.0213,-4.0163,-4.0163,-4.0146,-4.0121,-4.0096,-4.0113,-4.0113,-4.0113,-4.0113,-4.0113,-4.0113,-4.0113,-4.0113,-4.0113,-4.0113,-4.0113,-4.0113,-4.0113,-4.0113,-4.0113,-4.0113,-4.0113,-4.0113,-4.0113,-4.0113,-4.0113,-4.0113,-4.0113,-4.0113,-3.9943,-3.9943,-3.974,-3.9757,-3.9876,-3.991,-4.0028,-4.0113,-4.0113,-4.0113,-4.0113,-4.0113,-4.0113,-4.0113,-4.0113,-4.0113,-4.0113,-4.0113,-4.0113,-4.0113,-4.0113,-4.0113,-4.0113,-4.0113,-4.0113,-4.0113,-4.0113,-4.0113,-4.0113,-4.0113,-4.0113,-4.0113,-4.0113,-4.0113,-4.0113,-4.0113,-4.0011,-3.7672,-3.7891,-3.7891,-3.8363,-3.9065,-3.9013,-3.9372,-4.0,-3.9901,-3.9977,-4.0079,-4.0113,-4.0113,-4.0113,-4.0113,-4.0163,-4.0313,-4.0485,-4.068,-4.0888,-4.1093,-4.1256,-4.1471,-4.1582,-4.1714,-4.1805,-4.1719,-4.152,-4.1413,-4.1346,-4.1318,-4.1163,-4.114,-4.1117,-4.1076,-4.1076,-4.1094,-4.1076,-4.1094,-4.1094,-4.1094,-4.1071,-4.1007,-4.0931,-4.086,-4.0758,-4.0648,-4.06,-4.0551,-4.0461,-4.0436,-4.0362,-4.0263,-4.0146,-4.0096,-4.0113,-4.0113,-4.0113,-4.0113,-4.0113,-4.0113,-4.0113,-4.0113,-4.0113,-4.0113,-4.0113,-4.0113,-4.0113,-4.0113,-4.0113,-4.0113,-4.0113,-4.0113,-4.0113,-4.0113,-4.0113,-4.0113,-4.0113,-4.0113,-4.0113,-4.0113,-4.0113,-4.0113,-4.0113,-4.0113,-4.0113,-4.0113,-4.0113,-4.0113,-4.0113,-4.0113,-4.0113,-4.0113,-4.0113,-4.0113,-4.0113,-4.0113,-4.0113,-4.0113,-4.0113,-4.0113,-4.0113,-4.0113,-4.0113,-4.0113,-4.0113,-4.0113,-4.0113,-4.0113,-4.0113,-4.0113,-4.0113,-4.0113,-4.0113,-4.0037,-3.8269,-3.8656,-3.8751,-3.9225,-3.987,-3.9907,-4.0022,-4.0271,-4.023,-4.0146,-4.0121,-4.0096,-4.0138,-4.0188,-4.0213,-4.0337,-4.0583,-4.071,-4.0901,-4.1152,-4.1358,-4.1533,-4.1736,-4.1866,-4.2019,-4.2145,-4.2124,-4.2016,-4.1874,-4.1874,-4.1766,-4.1701,-4.1679,-4.1618,-4.1556,-4.1574,-4.1609,-4.1591,-4.1626,-4.1609,-4.1569,-4.1525,-4.1418,-4.1333,-4.1169,-4.1024,-4.0894,-4.0745,-4.0631,-4.0517,-4.051,-4.0436,-4.0313,-4.0238,-4.0163,-4.0113,-4.0113,-4.0113,-4.0113,-4.0113,-4.0113,-4.0113,-4.0113,-4.0113,-4.0113,-4.0113,-4.0113,-4.0113,-4.0113,-4.0113,-4.0113,-4.0113,-4.0113,-4.0113,-4.0113,-4.0113,-4.0113,-4.0113,-4.0113,-4.0113,-4.0113,-4.0113,-4.0113,-4.0113,-4.0113,-4.0113,-4.0113,-4.0113,-4.0113,-4.0113,-4.0113,-4.0113,-4.0113,-4.0113,-4.0113,-4.0113,-4.0113,-4.0113,-4.0113,-4.0113,-4.0096,-4.0096,-4.0113,-4.0113,-4.0113,-4.0146,-4.0113,-4.0113,-4.0113,-4.0113,-4.0113,-4.0113,-4.0113,-4.0087,-4.0011,-3.8925,-3.9518,-3.9614,-4.0011,-4.0531,-4.0541,-4.0468,-4.0379,-4.033,-4.0263,-4.0188,-4.0163,-4.0196,-4.0313,-4.0404,-4.0576,-4.0894,-4.0971,-4.1186,-4.1471,-4.1692,-4.1823,-4.1995,-4.2163,-4.2348,-4.2447,-4.2815,-4.2673,-4.2348,-4.2328,-4.2287,-4.2207,-4.2187,-4.2291,-4.2296,-4.242,-4.2313,-4.2509,-4.2527,-4.2491,-4.2292,-4.2154,-4.1941,-4.177,-4.1503,-4.1237,-4.1065,-4.0912,-4.0769,-4.0655,-4.0583,-4.051,-4.0387,-4.0337,-4.0263,-4.0121,-4.0113,-4.0113,-4.0113,-4.0113,-4.0113,-4.0113,-4.0113,-4.0113,-4.0113,-4.0113,-4.0113,-4.0113,-4.0113,-4.0113,-4.0113,-4.0113,-4.0113,-4.0113,-4.0113,-4.0113,-4.0113,-4.0113,-4.0113,-4.0113,-4.0113,-4.0096,-4.0121,-4.0113,-4.0113,-4.0113,-4.0113,-4.0113,-4.0113,-4.0113,-4.0113,-4.0113,-4.0113,-4.0113,-4.0113,-4.0113,-4.0113,-4.0113,-4.0113,-4.0113,-4.0096,-4.0121,-4.0121,-4.0163,-4.0221,-4.0246,-4.0171,-4.0113,-4.0113,-4.0113,-4.0113,-4.0113,-4.0113,-4.0087,-4.0011,-4.0248,-4.0511,-4.0535,-4.0676,-4.0799,-4.0704,-4.0673,-4.0624,-4.0404,-4.0379,-4.0412,-4.0337,-4.0362,-4.0485,-4.06,-4.0745,-4.0918,-4.1157,-4.1408,-4.1736,-4.187,-4.2082,-4.229,-4.2333,-4.2673,-4.2917,-4.352,-4.3282,-4.2985,-4.2821,-4.2695,-4.2729,-4.2853,-4.2889,-4.3494,-4.3512,-4.3948,-4.445,-4.454,-4.4217,-4.3658,-4.3411,-4.2926,-4.2363,-4.1947,-4.173,-4.1505,-4.1371,-4.1194,-4.1019,-4.0909,-4.0762,-4.0517,-4.0485,-4.032,-4.0171,-4.0113,-4.0113,-4.0113,-4.0113,-4.0113,-4.0113,-4.0113,-4.0113,-4.0113,-4.0113,-4.0113,-4.0113,-4.0113,-4.0113,-4.0096,-4.0096,-4.0096,-4.0138,-4.0163,-4.0146,-4.0121,-4.0213,-4.0213,-4.0188,-4.0213,-4.0171,-4.0146,-4.0121,-4.0113,-4.0113,-4.0113,-4.0096,-4.0113,-4.0113,-4.0113,-4.0113,-4.0113,-4.0113,-4.0113,-4.0113,-4.0113,-4.0113,-4.0113,-4.0113,-4.0163,-4.0188,-4.0263,-4.0288,-4.0345,-4.0345,-4.0263,-4.0188,-4.0138,-4.0113,-4.0138,-4.0113,-4.0113,-4.0045,-4.002,-4.06,-4.0714,-4.0769,-4.084,-4.0894,-4.084,-4.0769,-4.0673,-4.0558,-4.051,-4.0485,-4.0436,-4.0485,-4.0631,-4.0817,-4.0965,-4.1111,-4.1386,-4.1697,-4.2009,-4.2178,-4.2382,-4.2615,-4.3021,-4.341,-4.363,-4.4214,-4.4596,-4.4175,-4.4121,-4.4121,-4.4048,-4.4085,-4.4301,-4.4606,-4.4644,-4.4825,-4.5041,-4.5114,-4.4987,-4.4712,-4.4464,-4.4136,-4.3607,-4.3227,-4.2879,-4.2608,-4.2437,-4.2327,-4.2127,-4.1861,-4.1436,-4.1146,-4.0808,-4.0412,-4.0238,-4.0138,-4.0113,-4.0113,-4.0113,-4.0113,-4.0113,-4.0113,-4.0113,-4.0113,-4.0113,-4.0113,-4.0113,-4.0113,-4.0113,-4.0138,-4.0163,-4.0188,-4.0213,-4.0263,-4.0271,-4.0296,-4.0337,-4.0362,-4.0337,-4.0313,-4.0271,-4.0246,-4.0171,-4.0171,-4.0163,-4.0146,-4.0121,-4.0121,-4.0113,-4.0113,-4.0113,-4.0113,-4.0113,-4.0113,-4.0113,-4.0121,-4.0121,-4.0121,-4.0163,-4.0213,-4.0263,-4.0337,-4.0387,-4.0461,-4.0412,-4.0337,-4.0263,-4.0213,-4.0188,-4.0163,-4.0138,-4.0113,-4.007,-3.9944,-4.0745,-4.0769,-4.0864,-4.0894,-4.0894,-4.0894,-4.084,-4.0745,-4.0697,-4.0673,-4.0607,-4.0607,-4.068,-4.0799,-4.1029,-4.1175,-4.134,-4.167,-4.2115,-4.2418,-4.277,-4.3073,-4.3554,-4.4085,-4.4361,-4.4357,-4.5196,-4.5488,-4.5615,-4.5687,-4.5687,-4.5345,-4.5015,-4.5325,-4.5544,-4.5596,-4.5723,-4.6047,-4.6067,-4.5886,-4.561,-4.5392,-4.5102,-4.4725,-4.4383,-4.4055,-4.381,-4.3533,-4.3364,-4.3194,-4.2781,-4.2438,-4.224,-4.1849,-4.1462,-4.1228,-4.1008,-4.067,-4.0535,-4.04,-4.0172,-4.0113,-4.0113,-4.0113,-4.0113,-4.0113,-4.0113,-4.0113,-4.0163,-4.0163,-4.0163,-4.0263,-4.0337,-4.0387,-4.0419,-4.0468,-4.051,-4.0485,-4.0461,-4.0436,-4.0436,-4.0461,-4.037,-4.0296,-4.0246,-4.0221,-4.0196,-4.0171,-4.0171,-4.0171,-4.0188,-4.0196,-4.0221,-4.0221,-4.0188,-4.0163,-4.0163,-4.0171,-4.0171,-4.0221,-4.0313,-4.0387,-4.0461,-4.051,-4.0558,-4.0607,-4.0607,-4.0436,-4.0305,-4.0255,-4.0188,-4.0138,-4.0096,-4.007,-3.9918,-4.0871,-4.0888,-4.0912,-4.0894,-4.0894,-4.0894,-4.0894,-4.0864,-4.0745,-4.0769,-4.0823,-4.0864,-4.0953,-4.1122,-4.1314,-4.148,-4.167,-4.1858,-4.2658,-4.3361,-4.38,-4.4229,-4.469,-4.5059,-4.5352,-4.5363,-4.6033,-4.6377,-4.654,-4.692,-4.6395,-4.5526,-4.5743,-4.5943,-4.6196,-4.6432,-4.6703,-4.7047,-4.7174,-4.692,-4.6533,-4.6152,-4.5767,-4.504,-4.456,-4.4221,-4.4101,-4.4097,-4.4073,-4.4049,-4.3733,-4.3515,-4.3378,-4.3013,-4.2711,-4.2492,-4.2007,-4.1727,-4.1574,-4.0712,-4.0172,-4.0113,-4.0113,-4.0113,-4.0113,-4.0113,-4.0113,-4.0138,-4.0213,-4.0263,-4.0313,-4.0387,-4.0485,-4.051,-4.0558,-4.0566,-4.0607,-4.0583,-4.0558,-4.051,-4.0534,-4.0583,-4.0607,-4.0493,-4.0395,-4.037,-4.0345,-4.0345,-4.037,-4.037,-4.032,-4.0345,-4.0395,-4.0387,-4.033,-4.033,-4.0337,-4.0345,-4.0345,-4.0395,-4.0468,-4.0534,-4.06,-4.0673,-4.0721,-4.0799,-4.0799,-4.0558,-4.0362,-4.0288,-4.0213,-4.0138,-4.0087,-4.0062,-3.9884,-4.0894,-4.0894,-4.0894,-4.0894,-4.0894,-4.0894,-4.0894,-4.0888,-4.084,-4.084,-4.0929,-4.1,-4.1306,-4.1719,-4.2131,-4.2542,-4.3115,-4.3496,-4.3996,-4.4389,-4.4791,-4.5077,-4.5538,-4.5976,-4.6228,-4.6313,-4.6871,-4.7246,-4.7301,-4.7572,-4.7407,-4.6882,-4.6649,-4.692,-4.7192,-4.7174,-4.7409,-4.7554,-4.7699,-4.7482,-4.7368,-4.7081,-4.6766,-4.6337,-4.6002,-4.5728,-4.5558,-4.5404,-4.5339,-4.5174,-4.4817,-4.4629,-4.4417,-4.4017,-4.3729,-4.3604,-4.3107,-4.2853,-4.2447,-4.1329,-4.0247,-4.0113,-4.0113,-4.0113,-4.0113,-4.0113,-4.0163,-4.0213,-4.0263,-4.0313,-4.0436,-4.0534,-4.0607,-4.0631,-4.0655,-4.0704,-4.0704,-4.0704,-4.0704,-4.068,-4.0728,-4.0776,-4.0752,-4.0752,-4.0614,-4.0517,-4.0493,-4.051,-4.0534,-4.0534,-4.0493,-4.0485,-4.0517,-4.0534,-4.0453,-4.0461,-4.051,-4.0534,-4.0534,-4.0583,-4.0607,-4.0624,-4.0673,-4.0769,-4.084,-4.0847,-4.0776,-4.0583,-4.0461,-4.0387,-4.0263,-4.0113,-4.0087,-4.0037,-3.9884,-4.0894,-4.0894,-4.0894,-4.0894,-4.0894,-4.0894,-4.0894,-4.0894,-4.0894,-4.1067,-4.1222,-4.1393,-4.1862,-4.2525,-4.3022,-4.3512,-4.4085,-4.4517,-4.5033,-4.5443,-4.5733,-4.5959,-4.6401,-4.6785,-4.7146,-4.7211,-4.742,-4.7723,-4.7627,-4.7699,-4.7609,-4.7591,-4.7699,-4.7645,-4.7645,-4.7699,-4.7699,-4.7699,-4.7699,-4.7699,-4.766,-4.7518,-4.7371,-4.712,-4.6864,-4.6641,-4.6419,-4.6247,-4.6229,-4.6081,-4.5822,-4.5569,-4.5275,-4.494,-4.4552,-4.4364,-4.4176,-4.394,-4.3374,-4.2066,-4.0804,-4.0771,-4.0298,-4.0239,-4.0163,-4.0138,-4.0138,-4.0213,-4.0288,-4.0387,-4.051,-4.0631,-4.0745,-4.0769,-4.0799,-4.0823,-4.0823,-4.0823,-4.0847,-4.0847,-4.0871,-4.0864,-4.0847,-4.0823,-4.0776,-4.0686,-4.0704,-4.0704,-4.068,-4.068,-4.0631,-4.0631,-4.0631,-4.0607,-4.06,-4.0631,-4.068,-4.0704,-4.0704,-4.0704,-4.0728,-4.0745,-4.0769,-4.084,-4.0888,-4.0894,-4.0817,-4.0707,-4.06,-4.0485,-4.0313,-4.0113,-4.0113,-4.0062,-3.9961,-4.0894,-4.0894,-4.0894,-4.0912,-4.0963,-4.0894,-4.0929,-4.105,-4.1101,-4.1447,-4.1988,-4.2144,-4.268,-4.3398,-4.391,-4.4408,-4.4844,-4.5143,-4.5691,-4.6481,-4.671,-4.7189,-4.7595,-4.7889,-4.7793,-4.787,-4.7881,-4.7822,-4.772,-4.7738,-4.7738,-4.7717,-4.7717,-4.7699,-4.7699,-4.7699,-4.7699,-4.7699,-4.7699,-4.7699,-4.7678,-4.7575,-4.7468,-4.7276,-4.7187,-4.6985,-4.6754,-4.6684,-4.6613,-4.6454,-4.6436,-4.6265,-4.6092,-4.6075,-4.5914,-4.5828,-4.5326,-4.5032,-4.4729,-4.2874,-4.2016,-4.1601,-4.106,-4.0551,-4.0365,-4.0247,-4.0163,-4.0288,-4.0387,-4.0485,-4.0607,-4.0704,-4.0817,-4.0864,-4.0871,-4.0894,-4.0894,-4.1153,-4.1205,-4.1067,-4.0963,-4.0905,-4.0912,-4.0871,-4.0871,-4.0871,-4.0871,-4.0888,-4.0858,-4.0799,-4.0752,-4.0752,-4.0752,-4.0728,-4.0728,-4.0799,-4.0847,-4.0888,-4.0847,-4.0823,-4.0823,-4.084,-4.0864,-4.0912,-4.0929,-4.0963,-4.0933,-4.0872,-4.1067,-4.121,-4.0432,-4.0138,-4.0113,-4.0087,-4.0011,-4.0894,-4.0894,-4.0894,-4.1188,-4.1516,-4.1101,-4.117,-4.1664,-4.2171,-4.2551,-4.2807,-4.2972,-4.351,-4.4226,-4.4847,-4.5394,-4.6092,-4.6529,-4.7132,-4.7458,-4.7615,-4.7876,-4.8152,-4.8169,-4.8148,-4.8107,-4.8046,-4.7968,-4.7909,-4.7845,-4.7822,-4.7801,-4.7738,-4.7699,-4.7699,-4.7699,-4.7699,-4.7699,-4.7699,-4.7699,-4.7696,-4.7636,-4.7533,-4.732,-4.7276,-4.712,-4.6824,-4.6801,-4.6731,-4.6613,-4.6613,-4.6542,-4.6429,-4.6381,-4.6326,-4.6228,-4.5817,-4.5786,-4.5411,-4.4287,-4.331,-4.2618,-4.1791,-4.1204,-4.117,-4.0551,-4.0423,-4.0497,-4.069,-4.0771,-4.0752,-4.0858,-4.0922,-4.0888,-4.0894,-4.0894,-4.0998,-4.1447,-4.1654,-4.1343,-4.1147,-4.1205,-4.1205,-4.1378,-4.1395,-4.1291,-4.1326,-4.1101,-4.1026,-4.094,-4.0864,-4.0847,-4.0847,-4.0847,-4.0922,-4.125,-4.1326,-4.1285,-4.1095,-4.0871,-4.0871,-4.1153,-4.1119,-4.1257,-4.1136,-4.1032,-4.1381,-4.1746,-4.2045,-4.1954,-4.1231,-4.0603,-4.0502,-4.0341,-4.0087,-4.1274,-4.1326,-4.1585,-4.1964,-4.2258,-4.1602,-4.1723,-4.2413,-4.2982,-4.331,-4.3585,-4.3794,-4.4292,-4.503,-4.5663,-4.6191,-4.7053,-4.7432,-4.7728,-4.8052,-4.8169,-4.8229,-4.8248,-4.8247,-4.8208,-4.8187,-4.811,-4.805,-4.799,-4.7947,-4.7925,-4.7842,-4.7759,-4.7699,-4.7699,-4.7699,-4.7699,-4.7699,-4.7699,-4.7699,-4.7699,-4.7657,-4.7575,-4.7446,-4.7341,-4.7209,-4.698,-4.6842,-4.6795,-4.6661,-4.659,-4.6542,-4.6447,-4.6332,-4.6277,-4.6161,-4.6013,-4.5945,-4.5585,-4.5182,-4.4311,-4.3924,-4.2783,-4.2158,-4.203,-4.1613,-4.1468,-4.1416,-4.1302,-4.1435,-4.1533,-4.1571,-4.1567,-4.1585,-4.1602,-4.1636,-4.1757,-4.2258,-4.2327,-4.1981,-4.1826,-4.1792,-4.174,-4.1861,-4.2016,-4.1895,-4.1774,-4.155,-4.136,-4.1309,-4.1395,-4.1498,-4.1602,-4.1792,-4.1871,-4.1981,-4.1964,-4.1757,-4.1602,-4.1481,-4.1757,-4.2137,-4.1861,-4.1688,-4.193,-4.2154,-4.2371,-4.2659,-4.2799,-4.2637,-4.2108,-4.1529,-4.1011,-4.0739,-4.0553,-4.205,-4.2154,-4.2886,-4.3197,-4.3103,-4.2551,-4.2654,-4.3241,-4.331,-4.3741,-4.4354,-4.4506,-4.5005,-4.5755,-4.6346,-4.6771,-4.7133,-4.7585,-4.7893,-4.813,-4.8247,-4.8267,-4.8287,-4.8305,-4.8267,-4.8226,-4.8187,-4.8131,-4.8032,-4.799,-4.7947,-4.7881,-4.7759,-4.7717,-4.7699,-4.7699,-4.7699,-4.7699,-4.7699,-4.7699,-4.7699,-4.7678,-4.7597,-4.7511,-4.7428,-4.7294,-4.7111,-4.6998,-4.6865,-4.6731,-4.6613,-4.6518,-4.6423,-4.6259,-4.613,-4.5955,-4.5752,-4.5675,-4.5555,-4.5207,-4.5181,-4.4759,-4.3915,-4.3297,-4.2885,-4.2638,-4.2398,-4.2423,-4.2439,-4.2653,-4.2824,-4.2856,-4.2861,-4.2879,-4.2879,-4.2913,-4.2948,-4.3086,-4.3103,-4.2982,-4.2913,-4.2844,-4.2758,-4.2792,-4.2654,-4.2568,-4.2516,-4.2568,-4.2361,-4.2102,-4.2258,-4.2603,-4.2741,-4.293,-4.2948,-4.2706,-4.262,-4.2413,-4.262,-4.2603,-4.2896,-4.2913,-4.2637,-4.2585,-4.3,-4.3241,-4.3268,-4.3337,-4.3424,-4.3193,-4.316,-4.2552,-4.2082,-4.1614,-4.1325,-4.3138,-4.3173,-4.3399,-4.3732,-4.411,-4.4311,-4.4285,-4.4069,-4.4509,-4.4993,-4.5252,-4.538,-4.5653,-4.6112,-4.6542,-4.6898,-4.7262,-4.7606,-4.7913,-4.813,-4.8267,-4.8305,-4.8324,-4.8305,-4.8287,-4.8286,-4.8267,-4.8229,-4.819,-4.8092,-4.7988,-4.7881,-4.778,-4.7738,-4.7717,-4.7699,-4.7699,-4.7699,-4.7699,-4.7699,-4.7699,-4.7699,-4.7615,-4.7533,-4.7511,-4.7377,-4.7223,-4.7133,-4.698,-4.6819,-4.6731,-4.6613,-4.6259,-4.6211,-4.6105,-4.5744,-4.5615,-4.5537,-4.5363,-4.5327,-4.5318,-4.5274,-4.4758,-4.4475,-4.3984,-4.3477,-4.3168,-4.3297,-4.3331,-4.3426,-4.3511,-4.3553,-4.3603,-4.3603,-4.3603,-4.3621,-4.3672,-4.3845,-4.3845,-4.3655,-4.3603,-4.3603,-4.3552,-4.3448,-4.331,-4.3258,-4.3276,-4.3414,-4.3345,-4.3069,-4.312,-4.35,-4.3586,-4.3707,-4.3414,-4.3155,-4.3138,-4.3138,-4.3396,-4.35,-4.3396,-4.3362,-4.3258,-4.3431,-4.3776,-4.3931,-4.4,-4.4078,-4.4242,-4.4621,-4.4595,-4.3846,-4.3151,-4.2637,-4.2244,-4.4115,-4.4167,-4.4447,-4.4732,-4.5033,-4.5347,-4.526,-4.5069,-4.5364,-4.5563,-4.5752,-4.5811,-4.6038,-4.6357,-4.669,-4.7035,-4.7407,-4.7728,-4.8012,-4.8149,-4.8267,-4.8305,-4.8324,-4.8324,-4.8305,-4.8324,-4.8324,-4.8305,-4.8286,-4.8169,-4.8048,-4.7945,-4.7842,-4.7759,-4.7717,-4.7699,-4.7699,-4.7699,-4.7699,-4.7699,-4.7699,-4.7699,-4.7636,-4.7593,-4.7572,-4.7464,-4.7334,-4.729,-4.7116,-4.6934,-4.6847,-4.6572,-4.6259,-4.6154,-4.5905,-4.5589,-4.5494,-4.5327,-4.514,-4.5086,-4.5103,-4.513,-4.5184,-4.4989,-4.475,-4.4371,-4.4242,-4.4234,-4.4122,-4.4027,-4.4062,-4.4096,-4.4113,-4.413,-4.413,-4.413,-4.4302,-4.4527,-4.4406,-4.4199,-4.4147,-4.4182,-4.413,-4.4027,-4.4096,-4.4268,-4.4354,-4.4423,-4.4251,-4.3949,-4.4044,-4.4371,-4.4337,-4.4302,-4.4009,-4.388,-4.4035,-4.4147,-4.4337,-4.4337,-4.4044,-4.4061,-4.4251,-4.4354,-4.4492,-4.4578,-4.4613,-4.4941,-4.5173,-4.5414,-4.5414,-4.4819,-4.4112,-4.364,-4.327,-4.5054,-4.5106,-4.5715,-4.5825,-4.5803,-4.5675,-4.5786,-4.6013,-4.5829,-4.5829,-4.6038,-4.6062,-4.6332,-4.669,-4.6967,-4.724,-4.7578,-4.7891,-4.8072,-4.8207,-4.8267,-4.8324,-4.8324,-4.8324,-4.8324,-4.8324,-4.8324,-4.8324,-4.8286,-4.8208,-4.811,-4.803,-4.7927,-4.7863,-4.7783,-4.7783,-4.7783,-4.7804,-4.7783,-4.7762,-4.7699,-4.7699,-4.7699,-4.7678,-4.7657,-4.7615,-4.749,-4.7385,-4.7254,-4.707,-4.6824,-4.6548,-4.6211,-4.6005,-4.5675,-4.552,-4.5468,-4.523,-4.5032,-4.4978,-4.4896,-4.4896,-4.4923,-4.5062,-4.4963,-4.4983,-4.4897,-4.488,-4.4768,-4.4768,-4.4777,-4.4803,-4.482,-4.482,-4.482,-4.482,-4.4906,-4.5027,-4.4975,-4.482,-4.482,-4.4837,-4.4837,-4.4751,-4.4699,-4.5087,-4.5173,-4.5173,-4.5027,-4.4665,-4.4751,-4.5001,-4.4914,-4.4828,-4.4897,-4.4854,-4.5052,-4.5207,-4.5173,-4.5121,-4.4785,-4.4992,-4.5345,-4.5156,-4.4975,-4.5139,-4.5276,-4.5414,-4.5414,-4.5414,-4.5414,-4.5414,-4.5017,-4.4474,-4.4205,-4.6188,-4.6182,-4.6059,-4.603,-4.608,-4.598,-4.6112,-4.6453,-4.6442,-4.6418,-4.6477,-4.659,-4.6783,-4.7107,-4.7363,-4.7621,-4.785,-4.803,-4.8189,-4.8247,-4.8305,-4.8324,-4.8324,-4.8324,-4.8324,-4.8324,-4.8324,-4.8324,-4.8287,-4.8228,-4.8187,-4.8148,-4.8048,-4.7949,-4.7909,-4.7909,-4.7909,-4.7888,-4.7888,-4.7845,-4.7741,-4.7699,-4.7699,-4.7699,-4.7678,-4.7636,-4.7533,-4.7468,-4.7227,-4.6934,-4.6731,-4.6332,-4.5811,-4.5701,-4.5572,-4.5441,-4.5441,-4.5247,-4.5059,-4.4951,-4.4923,-4.4896,-4.4978,-4.5113,-4.523,-4.5327,-4.5397,-4.5397,-4.5414,-4.5414,-4.5414,-4.5414,-4.5414,-4.5414,-4.5414,-4.5414,-4.5414,-4.5414,-4.5414,-4.5414,-4.5414,-4.5414,-4.5414,-4.5414,-4.5414,-4.538,-4.5363,-4.5345,-4.5328,-4.513,-4.5079,-4.5242,-4.5276,-4.5276,-4.5414,-4.5414,-4.5414,-4.5414,-4.5311,-4.5345,-4.5414,-4.5414,-4.5414,-4.5414,-4.5363,-4.5414,-4.5414,-4.5414,-4.5414,-4.5414,-4.5414,-4.5414,-4.5414,-4.5,-4.4875,-4.6613,-4.6566,-4.6228,-4.6253,-4.6405,-4.6363,-4.6537,-4.688,-4.7035,-4.7084,-4.7107,-4.7147,-4.7258,-4.75,-4.7726,-4.7927,-4.809,-4.8189,-4.8247,-4.8305,-4.8324,-4.8324,-4.8324,-4.8324,-4.8324,-4.8324,-4.8324,-4.8287,-4.8287,-4.8267,-4.8228,-4.8207,-4.811,-4.8052,-4.8032,-4.8012,-4.8012,-4.7992,-4.8012,-4.7949,-4.7824,-4.7804,-4.778,-4.778,-4.7717,-4.7636,-4.7508,-4.7381,-4.707,-4.6637,-4.6284,-4.5963,-4.558,-4.5468,-4.5389,-4.5336,-4.5327,-4.5291,-4.5076,-4.4968,-4.494,-4.4886,-4.4951,-4.5059,-4.514,-4.522,-4.5397,-4.5414,-4.5414,-4.5414,-4.5414,-4.5414,-4.5414,-4.5414,-4.5414,-4.5414,-4.5414,-4.5414,-4.5414,-4.5414,-4.5414,-4.5414,-4.5414,-4.5414,-4.5414,-4.5414,-4.5414,-4.5414,-4.5414,-4.5414,-4.5414,-4.5414,-4.5414,-4.5414,-4.5414,-4.5414,-4.5414,-4.5414,-4.5414,-4.5414,-4.5414,-4.5414,-4.5414,-4.5414,-4.5414,-4.5414,-4.5414,-4.5414,-4.5414,-4.5414,-4.5414,-4.5414,-4.5414,-4.5414,-4.5186,-4.6678,-4.6613,-4.6423,-4.6501,-4.6806,-4.6835,-4.6999,-4.7327,-4.7493,-4.7645,-4.7772,-4.7645,-4.7726,-4.785,-4.7974,-4.8092,-4.8189,-4.8248,-4.8287,-4.8324,-4.8324,-4.8324,-4.8324,-4.8324,-4.8324,-4.8324,-4.8324,-4.8324,-4.8305,-4.8287,-4.8267,-4.8226,-4.8187,-4.8149,-4.8072,-4.8052,-4.809,-4.809,-4.8092,-4.8072,-4.801,-4.7947,-4.7925,-4.7863,-4.778,-4.7639,-4.7446,-4.7183,-4.6888,-4.6308,-4.5811,-4.5441,-4.5283,-4.515,-4.5167,-4.514,-4.5177,-4.5059,-4.4886,-4.4831,-4.4765,-4.4709,-4.4869,-4.4978,-4.5076,-4.5184,-4.5344,-4.5414,-4.5414,-4.5414,-4.5414,-4.5414,-4.5414,-4.5414,-4.5414,-4.5414,-4.5414,-4.5414,-4.5414,-4.5414,-4.5414,-4.5414,-4.5414,-4.5414,-4.5414,-4.5414,-4.5414,-4.5414,-4.5414,-4.5414,-4.5414,-4.5414,-4.5414,-4.5414,-4.5414,-4.5414,-4.5414,-4.5414,-4.5414,-4.5414,-4.5414,-4.5414,-4.5414,-4.5414,-4.5414,-4.5414,-4.5414,-4.5414,-4.5414,-4.5414,-4.5414,-4.5414,-4.5414,-4.5371,-4.5247,-4.6934,-4.6911,-4.6865,-4.6985,-4.7209,-4.732,-4.7475,-4.7689,-4.7832,-4.7992,-4.8052,-4.8151,-4.8169,-4.8148,-4.8228,-4.8267,-4.8267,-4.8287,-4.8287,-4.8324,-4.8324,-4.8324,-4.8324,-4.8324,-4.8324,-4.8324,-4.8324,-4.8324,-4.8324,-4.8324,-4.8305,-4.8286,-4.8286,-4.8267,-4.8267,-4.8247,-4.8228,-4.8228,-4.8228,-4.8209,-4.817,-4.811,-4.801,-4.7947,-4.7886,-4.7639,-4.7403,-4.7138,-4.6596,-4.5988,-4.5363,-4.5005,-4.4886,-4.4869,-4.4913,-4.494,-4.4978,-4.494,-4.482,-4.4793,-4.4682,-4.4626,-4.4776,-4.4913,-4.5022,-4.514,-4.5291,-4.5414,-4.5414,-4.5414,-4.5414,-4.5414,-4.5414,-4.5414,-4.5414,-4.5414,-4.5414,-4.5414,-4.5414,-4.5414,-4.5414,-4.5414,-4.5414,-4.5414,-4.5414,-4.5414,-4.5414,-4.5414,-4.5414,-4.5414,-4.5414,-4.5414,-4.5414,-4.5414,-4.5414,-4.5414,-4.5414,-4.5414,-4.5414,-4.5414,-4.5414,-4.5414,-4.5414,-4.5414,-4.5414,-4.5414,-4.5414,-4.5414,-4.5414,-4.5414,-4.5414,-4.5414,-4.5414,-4.5371,-4.5274]},{"header":{"parameterUnit":"m.s-1","parameterCategory":1,"la1":31.0,"la2":29.5877,"lo1":-88.7671,"lo2":-86.6584,"dy":0.0162,"dx":0.0185,"nx":115,"ny":88,"refTime":"2023-11-06T18:00:00:Z","depth":0,"parameterNumber":3,"parameterNumberName":"V-component_of_WINDS"},"data":[0.0,0.0,0.0,0.0,0.0,0.0,0.0,0.0,0.0,0.0,0.0,0.0,0.0,0.0,0.0,0.0,0.0,0.0,0.0,0.0,0.0,0.0,0.0,0.0,0.0,0.0,0.0,0.0,0.0,0.0,0.0,0.0,0.0,0.0,0.0,0.0,0.0,0.0,0.0,0.0,0.0,0.0,0.0,0.0,0.0,0.0,0.0,0.0,0.0,0.0,0.0,0.0,0.0,0.0,0.0,0.0,0.0,0.0,0.0,0.0,0.0,0.0,0.0,0.0,0.0,0.0,0.0,0.0,0.0,0.0,0.0,0.0,0.0,0.0,0.0,0.0,0.0,0.0,0.0,0.0,0.0,0.0,0.0,0.0,0.0,0.0,0.0,0.0,0.0,0.0,0.0,0.0,0.0,0.0,0.0,0.0,0.0,0.0,0.0,0.0,0.0,0.0,0.0,0.0,0.0,0.0,0.0,0.0,0.0,0.0,0.0,0.0,0.0,0.0,0.0,0.0,0.0,0.0,0.0,0.0,0.0,0.0,0.0,0.0,0.0,0.0,0.0,0.0,0.0,0.0,0.0,0.0,0.0,0.0,0.0,0.0,0.0,0.0,0.0,0.0,0.0,0.0,0.0,0.0,0.0,0.0,0.0,0.0,0.0,0.0,0.0,0.0,0.0,0.0,0.0,0.0,0.0,0.0,0.0,0.0,0.0,0.0,0.0,0.0,0.0,0.0,0.0,0.0,0.0,0.0,0.0,0.0,0.0,0.0,0.0,0.0,0.0,0.0,0.0,0.0,0.0,0.0,0.0,0.0,0.0,0.0,0.0,0.0,0.0,0.0,0.0,0.0,0.0,0.0,0.0,0.0,0.0,0.0,0.0,0.0,0.0,0.0,0.0,0.0,0.0,0.0,0.0,0.0,0.0,0.0,0.0,0.0,0.0,0.0,0.0,0.0,0.0,0.0,0.0,0.0,0.0,0.0,0.0,0.0,0.0,0.0,0.0,0.0,0.0,0.0,0.0,0.0,0.0,0.0,0.0,0.0,0.0,0.0,0.0,0.0,0.0,0.0,0.0,0.0,0.0,0.0,0.0,0.0,0.0,0.0,0.0,0.0,0.0,0.0,0.0,0.0,0.0,0.0,0.0,0.0,0.0,0.0,0.0,0.0,0.0,0.0,0.0,0.0,0.0,0.0,0.0,0.0,0.0,0.0,0.0,0.0,0.0,0.0,0.0,0.0,0.0,0.0,0.0,0.0,0.0,0.0,0.0,0.0,0.0,0.0,0.0,0.0,0.0,0.0,0.0,0.0,0.0,0.0,0.0,0.0,0.0,0.0,0.0,0.0,0.0,0.0,0.0,0.0,0.0,0.0,0.0,0.0,0.0,0.0,0.0,0.0,0.0,0.0,0.0,0.0,0.0,0.0,0.0,0.0,0.0,0.0,0.0,0.0,0.0,0.0,0.0,0.0,0.0,0.0,0.0,0.0,0.0,0.0,0.0,0.0,0.0,0.0,0.0,0.0,0.0,0.0,0.0,0.0,0.0,0.0,0.0,0.0,0.0,0.0,0.0,0.0,0.0,0.0,0.0,0.0,0.0,0.0,0.0,0.0,0.0,0.0,0.0,0.0,0.0,0.0,0.0,0.0,0.0,0.0,0.0,0.0,0.0,0.0,0.0,0.0,0.0,0.0,0.0,0.0,0.0,0.0,0.0,0.0,0.0,0.0,0.0,0.0,0.0,0.0,0.0,0.0,0.0,0.0,0.0,0.0,0.0,0.0,0.0,0.0,0.0,0.0,0.0,0.0,0.0,0.0,0.0,0.0,0.0,0.0,0.0,0.0,0.0,0.0,0.0,0.0,0.0,0.0,0.0,0.0,0.0,0.0,0.0,0.0,0.0,0.0,0.0,0.0,0.0,0.0,0.0,0.0,0.0,0.0,0.0,0.0,0.0,0.0,0.0,0.0,0.0,0.0,0.0,0.0,0.0,0.0,0.0,0.0,0.0,0.0,0.0,0.0,0.0,0.0,0.0,0.0,0.0,0.0,0.0,0.0,0.0,0.0,0.0,0.0,0.0,0.0,0.0,0.0,0.0,0.0,0.0,0.0,0.0,0.0,0.0,0.0,0.0,0.0,0.0,0.0,0.0,0.0,0.0,0.0,0.0,0.0,0.0,0.0,0.0,0.0,0.0,0.0,0.0,0.0,0.0,0.0,0.0,0.0,0.0,0.0,0.0,0.0,0.0,0.0,0.0,0.0,0.0,0.0,0.0,0.0,0.0,0.0,0.0,0.0,0.0,0.0,0.0,0.0,0.0,0.0,0.0,0.0,0.0,0.0,0.0,0.0,0.0,0.0,0.0,0.0,0.0,0.0,0.0,0.0,0.0,0.0,0.0,0.0,0.0,0.0,0.0,0.0,0.0,0.0,0.0,0.0,0.0,0.0,0.0,0.0,0.0,0.0,0.0,0.0,0.0,0.0,0.0,0.0,0.0,0.0,0.0,0.0,0.0,0.0,0.0,0.0,0.0,0.0,0.0,0.0,0.0,0.0,0.0,0.0,0.0,0.0,0.0,0.0,0.0,0.0,0.0,0.0,0.0,0.0,0.0,0.0,0.0,0.0,0.0,0.0,0.0,0.0,0.0,0.0,0.0,0.0,0.0,0.0,0.0,0.0,0.0,0.0,0.0,0.0,0.0,0.0,0.0,0.0,0.0,0.0,0.0,0.0,0.0,0.0,0.0,0.0,0.0,0.0,0.0,0.0,0.0,0.0,0.0,0.0,0.0,0.0,0.0,0.0,0.0,0.0,0.0,0.0,0.0,0.0,0.0,0.0,0.0,0.0,0.0,0.0,0.0,0.0,0.0,0.0,0.0,0.0,0.0,0.0,0.0,0.0,0.0,0.0,0.0,0.0,0.0,0.0,0.0,0.0,0.0,0.0,0.0,0.0,0.0,0.0,0.0,0.0,0.0,0.0,0.0,0.0,0.0,0.0,0.0,0.0,0.0,0.0,0.0,0.0,0.0,0.0,0.0,0.0,0.0,0.0,0.0,0.0,0.0,0.0,0.0,0.0,0.0,0.0,0.0,0.0,0.0,0.0,0.0,0.0,0.0,0.0,0.0,0.0,0.0,0.0,0.0,0.0,0.0,0.0,0.0,0.0,0.0,0.0,0.0,0.0,0.0,0.0,0.0,0.0,0.0,0.0,0.0,0.0,0.0,0.0,0.0,0.0,0.0,0.0,0.0,0.0,0.0,0.0,0.0,0.0,0.0,0.0,0.0,0.0,0.0,0.0,0.0,0.0,0.0,0.0,0.0,0.0,0.0,0.0,0.0,0.0,0.0,0.0,0.0,0.0,0.0,0.0,0.0,0.0,0.0,0.0,0.0,0.0,0.0,0.0,0.0,0.0,0.0,0.0,0.0,0.0,0.0,0.0,0.0,0.0,0.0,0.0,0.0,0.0,0.0,0.0,0.0,0.0,0.0,0.0,0.0,0.0,0.0,0.0,0.0,0.0,0.0,0.0,0.0,0.0,0.0,0.0,0.0,0.0,0.0,0.0,0.0,0.0,0.0,0.0,0.0,0.0,0.0,0.0,0.0,0.0,0.0,0.0,0.0,0.0,0.0,0.0,0.0,0.0,0.0,0.0,0.0,0.0,0.0,0.0,0.0,0.0,0.0,0.0,0.0,0.0,0.0,0.0,0.0,0.0,0.0,0.0,0.0,0.0,0.0,0.0,0.0,0.0,0.0,0.0,0.0,0.0,0.0,0.0,0.0,0.0,0.0,0.0,0.0,0.0,0.0,0.0,0.0,0.0,0.0,0.0,0.0,0.0,0.0,0.0,0.0,0.0,0.0,0.0,0.0,0.0,0.0,0.0,0.0,0.0,0.0,0.0,0.0,0.0,0.0,0.0,0.0,0.0,0.0,0.0,0.0,0.0,0.0,0.0,0.0,0.0,0.0,0.0,0.0,0.0,0.0,0.0,0.0,0.0,0.0,0.0,0.0,0.0,0.0,0.0,0.0,0.0,0.0,0.0,0.0,0.0,0.0,0.0,0.0,0.0,0.0,0.0,0.0,0.0,0.0,0.0,0.0,0.0,0.0,0.0,0.0,0.0,0.0,0.0,0.0,0.0,0.0,0.0,0.0,0.0,0.0,0.0,0.0,0.0,0.0,0.0,0.0,0.0,0.0,0.0,0.0,0.0,0.0,0.0,0.0,0.0,0.0,0.0,0.0,0.0,0.0,0.0,0.0,0.0,0.0,0.0,0.0,0.0,1.8076,0.0,0.0,0.0,0.0,0.0,0.0,0.0,0.0,0.0,0.0,0.0,0.0,0.0,0.0,0.0,0.0,0.0,0.0,0.0,0.0,0.0,0.0,0.0,0.0,0.0,0.0,0.0,0.0,0.0,0.0,0.0,0.0,0.0,0.0,0.0,0.0,0.0,0.0,0.0,0.0,0.0,0.0,0.0,0.0,0.0,0.0,0.0,0.0,0.0,0.0,0.0,0.0,0.0,0.0,0.0,0.0,0.0,0.0,0.0,0.0,0.0,0.0,0.0,0.0,0.0,0.0,0.0,0.0,0.0,0.0,0.0,0.0,0.0,0.0,0.0,0.0,0.0,0.0,0.0,0.0,0.0,0.0,0.0,0.0,0.0,0.0,0.0,0.0,0.0,0.0,0.0,0.0,0.0,0.0,0.0,0.0,0.0,0.0,0.0,0.0,0.0,0.0,0.0,0.0,0.0,0.0,0.0,0.0,0.0,0.0,1.8245,1.8414,1.8245,1.8042,1.7828,0.0,0.0,0.0,0.0,0.0,0.0,0.0,0.0,0.0,0.0,0.0,0.0,0.0,0.0,0.0,0.0,0.0,0.0,0.0,0.0,0.0,0.0,0.0,0.0,0.0,0.0,0.0,0.0,0.0,0.0,0.0,0.0,0.0,0.0,0.0,0.0,0.0,0.0,0.0,0.0,0.0,0.0,0.0,0.0,0.0,0.0,0.0,0.0,0.0,0.0,0.0,0.0,0.0,0.0,0.0,0.0,0.0,0.0,0.0,0.0,0.0,0.0,0.0,0.0,0.0,0.0,0.0,0.0,0.0,0.0,0.0,0.0,0.0,0.0,0.0,0.0,0.0,0.0,0.0,0.0,0.0,0.0,0.0,0.0,0.0,0.0,0.0,0.0,0.0,0.0,0.0,0.0,0.0,0.0,0.0,0.0,0.0,0.0,0.0,0.0,0.0,0.0,0.0,0.0,0.0,0.0,0.0,0.0,0.0,0.0,0.0,0.0,1.8008,1.7657,1.7329,0.0,0.0,0.0,0.0,0.0,0.0,0.0,0.0,0.0,0.0,0.0,0.0,0.0,0.0,0.0,0.0,0.0,0.0,0.0,0.0,0.0,0.0,0.0,0.0,0.0,0.0,0.0,0.0,0.0,0.0,0.0,0.0,0.0,0.0,0.0,0.0,0.0,0.0,0.0,0.0,0.0,0.0,0.0,0.0,0.0,0.0,0.0,0.0,0.0,0.0,0.0,0.0,0.0,0.0,0.0,0.0,0.0,0.0,0.0,0.0,0.0,0.0,0.0,0.0,0.0,0.0,0.0,0.0,0.0,0.0,0.0,0.0,0.0,0.0,0.0,0.0,0.0,0.0,0.0,0.0,0.0,0.0,0.0,0.0,0.0,0.0,0.0,0.0,0.0,0.0,0.0,0.0,0.0,0.0,0.0,0.0,0.0,0.0,0.0,0.0,0.0,0.0,0.0,0.0,0.0,0.0,0.0,0.0,0.0,0.0,1.7632,1.7774,1.7442,0.0,1.6263,0.0,0.0,0.0,0.0,0.0,0.0,0.0,0.0,0.0,0.0,0.0,0.0,0.0,0.0,0.0,0.0,0.0,0.0,0.0,0.0,0.0,0.0,0.0,0.0,0.0,0.0,0.0,0.0,0.0,0.0,0.0,0.0,0.0,0.0,0.0,0.0,0.0,0.0,0.0,0.0,0.0,0.0,0.0,0.0,0.0,0.0,0.0,0.0,0.0,0.0,0.0,0.0,0.0,0.0,0.0,0.0,0.0,0.0,0.0,0.0,0.0,0.0,0.0,0.0,0.0,0.0,0.0,0.0,0.0,0.0,0.0,0.0,0.0,0.0,0.0,0.0,0.0,0.0,0.0,0.0,0.0,0.0,0.0,0.0,0.0,0.0,0.0,0.0,0.0,0.0,0.0,0.0,0.0,0.0,0.0,0.0,0.0,0.0,0.0,0.0,0.0,0.0,0.0,0.0,0.0,0.0,0.0,0.0,0.0,0.0,1.7691,1.7896,1.7314,1.6682,0.0,0.0,0.0,0.0,0.0,0.0,0.0,0.0,0.0,0.0,0.0,0.0,0.0,0.0,0.0,0.0,0.0,0.0,0.0,0.0,0.0,0.0,0.0,0.0,0.0,0.0,0.0,0.0,0.0,0.0,0.0,0.0,0.0,0.0,0.0,0.0,0.0,0.0,0.0,0.0,0.0,0.0,0.0,0.0,0.0,0.0,0.0,0.0,0.0,0.0,0.0,0.0,0.0,0.0,0.0,0.0,0.0,0.0,0.0,0.0,0.0,0.0,0.0,0.0,0.0,0.0,0.0,0.0,0.0,0.0,0.0,0.0,0.0,0.0,0.0,0.0,0.0,0.0,0.0,0.0,0.0,0.0,0.0,0.0,0.0,0.0,0.0,0.0,0.0,0.0,0.0,0.0,0.0,0.0,0.0,0.0,0.0,0.0,0.0,0.0,0.0,0.0,0.0,0.0,0.0,0.0,0.0,0.0,0.0,0.0,1.7373,1.7579,1.7803,1.7279,1.6656,1.5947,0.0,0.0,0.0,0.0,0.0,0.0,0.0,0.0,0.0,0.0,0.0,0.0,0.0,0.0,0.0,0.0,0.0,0.0,0.0,0.0,0.0,0.0,0.0,0.0,0.0,0.0,0.0,0.0,0.0,0.0,0.0,0.0,0.0,0.0,0.0,0.0,0.0,0.0,0.0,0.0,0.0,0.0,0.0,0.0,0.0,0.0,0.0,0.0,0.0,0.0,0.0,0.0,0.0,0.0,0.0,0.0,0.0,0.0,0.0,0.0,0.0,0.0,0.0,0.0,0.0,0.0,0.0,0.0,0.0,0.0,0.0,0.0,0.0,0.0,0.0,0.0,0.0,0.0,0.0,0.0,0.0,0.0,0.0,0.0,0.0,0.0,0.0,0.0,0.0,0.0,0.0,0.0,0.0,0.0,0.0,0.0,0.0,0.0,0.0,0.0,0.0,0.0,0.0,0.0,0.0,0.0,0.0,0.0,1.6377,1.676,1.7151,1.7539,1.7314,1.6899,0.0,0.0,0.0,0.0,0.0,0.0,0.0,0.0,0.0,0.0,0.0,0.0,0.0,0.0,0.0,0.0,0.0,0.0,0.0,0.0,0.0,0.0,0.0,0.0,0.0,0.0,0.0,0.0,0.0,0.0,0.0,0.0,0.0,0.0,0.0,0.0,0.0,0.0,0.0,0.0,0.0,0.0,0.0,0.0,0.0,0.0,0.0,0.0,0.0,0.0,0.0,0.0,0.0,0.0,0.0,0.0,0.0,0.0,0.0,0.0,0.0,0.0,0.0,0.0,0.0,0.0,0.0,0.0,0.0,0.0,0.0,0.0,0.0,0.0,0.0,0.0,0.0,0.0,0.0,0.0,0.0,0.0,0.0,0.0,0.0,0.0,0.0,0.0,0.0,0.0,0.0,0.0,0.0,0.0,0.0,0.0,0.0,0.0,0.0,0.0,0.0,0.0,0.0,0.0,0.0,0.0,0.0,0.0,0.0,1.6691,1.7417,1.7794,1.7803,1.7623,1.7192,0.0,0.0,0.0,0.0,0.0,0.0,0.0,0.0,0.0,0.0,0.0,0.0,0.0,0.0,0.0,0.0,0.0,0.0,0.0,0.0,0.0,0.0,0.0,0.0,0.0,0.0,0.0,0.0,0.0,0.0,0.0,0.0,0.0,0.0,0.0,0.0,0.0,0.0,0.0,0.0,0.0,0.0,0.0,0.0,0.0,0.0,0.0,0.0,0.0,0.0,0.0,0.0,0.0,0.0,0.0,0.0,0.0,0.0,0.0,0.0,0.0,0.0,0.0,0.0,0.0,0.0,0.0,0.0,0.0,0.0,0.0,0.0,0.0,0.0,0.0,0.0,0.0,0.0,0.0,0.0,0.0,0.0,0.0,0.0,0.0,0.0,0.0,0.0,0.0,0.0,0.0,0.0,0.0,0.0,0.0,0.0,0.0,0.0,0.0,0.0,0.0,0.0,0.0,0.0,0.0,0.0,0.0,0.0,0.0,1.7038,0.0,1.8202,1.8187,1.793,1.751,0.0,0.0,0.0,0.0,0.0,0.0,0.0,0.0,0.0,0.0,0.0,0.0,0.0,0.0,0.0,0.0,0.0,0.0,0.0,0.0,0.0,0.0,0.0,0.0,0.0,0.0,0.0,0.0,0.0,0.0,0.0,0.0,0.0,0.0,0.0,0.0,0.0,0.0,0.0,0.0,0.0,0.0,0.0,0.0,0.0,0.0,0.0,0.0,0.0,0.0,0.0,0.0,0.0,0.0,0.0,0.0,0.0,0.0,0.0,0.0,0.0,0.0,0.0,0.0,0.0,0.0,0.0,0.0,0.0,0.0,0.0,0.0,0.0,0.0,0.0,0.0,0.0,0.0,0.0,0.0,0.0,0.0,0.0,0.0,0.0,0.0,0.0,0.0,0.0,0.0,0.0,0.0,0.0,0.0,0.0,0.0,0.0,0.0,0.0,0.0,0.0,0.0,0.0,0.0,0.0,0.0,0.0,0.0,1.6123,1.7348,1.7794,1.8178,1.8482,1.8178,1.7794,0.0,0.0,0.0,0.0,0.0,0.0,0.0,0.0,0.0,0.0,0.0,0.0,0.0,0.0,0.0,0.0,0.0,0.0,0.0,0.0,0.0,0.0,0.0,0.0,0.0,0.0,0.0,0.0,0.0,0.0,0.0,0.0,0.0,0.0,0.0,0.0,0.0,0.0,0.0,0.0,0.0,0.0,0.0,0.0,0.0,0.0,0.0,0.0,0.0,0.0,0.0,0.0,0.0,0.0,0.0,0.0,0.0,0.0,0.0,0.0,0.0,0.0,0.0,0.0,0.0,0.0,0.0,0.0,0.0,0.0,0.0,0.0,0.0,0.0,0.0,0.0,0.0,0.0,0.0,0.0,0.0,0.0,0.0,0.0,0.0,0.0,0.0,0.0,0.0,0.0,0.0,0.0,0.0,0.0,0.0,0.0,0.0,0.0,0.0,0.0,0.0,0.0,0.0,0.0,0.0,0.0,0.0,0.0,0.0,1.7794,1.8178,1.8448,1.8674,1.8482,1.811,0.0,0.0,0.0,0.0,0.0,0.0,0.0,0.0,0.0,0.0,0.0,0.0,0.0,0.0,0.0,0.0,0.0,0.0,0.0,0.0,0.0,0.0,0.0,0.0,0.0,0.0,0.0,0.0,0.0,0.0,0.0,0.0,0.0,0.0,0.0,0.0,0.0,0.0,0.0,0.0,0.0,0.0,0.0,0.0,0.0,0.0,0.0,0.0,0.0,0.0,0.0,0.0,0.0,0.0,0.0,0.0,0.0,0.0,0.0,0.0,0.0,0.0,0.0,0.0,0.0,0.0,0.0,0.0,0.0,0.0,0.0,0.0,0.0,0.0,0.0,0.0,0.0,0.0,0.0,0.0,0.0,0.0,0.0,0.0,0.0,0.0,0.0,0.0,0.0,0.0,0.0,0.0,0.0,0.0,0.0,0.0,0.0,0.0,0.0,0.0,0.0,0.0,0.0,0.0,0.0,0.0,0.0,0.0,0.0,1.8076,1.8381,1.8583,1.8808,1.8549,1.8168,1.7613,0.0,0.0,0.0,0.0,0.0,0.0,0.0,0.0,0.0,0.0,0.0,0.0,0.0,0.0,0.0,0.0,0.0,0.0,0.0,0.0,0.0,0.0,0.0,0.0,0.0,0.0,0.0,0.0,0.0,0.0,0.0,0.0,0.0,0.0,0.0,0.0,0.0,0.0,0.0,0.0,0.0,0.0,0.0,0.0,0.0,0.0,0.0,0.0,0.0,0.0,0.0,0.0,0.0,0.0,0.0,0.0,0.0,0.0,0.0,0.0,0.0,0.0,0.0,0.0,0.0,0.0,0.0,0.0,0.0,0.0,0.0,0.0,0.0,0.0,0.0,0.0,0.0,0.0,0.0,0.0,0.0,0.0,0.0,0.0,0.0,0.0,0.0,0.0,0.0,0.0,0.0,0.0,0.0,0.0,0.0,0.0,0.0,0.0,0.0,0.0,0.0,0.0,0.0,0.0,0.0,0.0,0.0,0.0,1.8303,1.8448,1.8617,1.8818,1.8506,1.8032,0.0,0.0,0.0,0.0,0.0,0.0,0.0,0.0,0.0,0.0,0.0,0.0,0.0,0.0,0.0,0.0,0.0,0.0,0.0,0.0,0.0,0.0,0.0,0.0,0.0,0.0,0.0,0.0,0.0,0.0,0.0,0.0,0.0,0.0,0.0,0.0,0.0,0.0,0.0,0.0,0.0,0.0,0.0,0.0,0.0,0.0,0.0,0.0,0.0,0.0,0.0,0.0,0.0,0.0,0.0,0.0,0.0,0.0,0.0,0.0,0.0,0.0,0.0,0.0,0.0,0.0,0.0,0.0,0.0,0.0,0.0,0.0,0.0,0.0,0.0,0.0,0.0,0.0,0.0,0.0,0.0,0.0,0.0,0.0,0.0,0.0,0.0,0.0,0.0,0.0,0.0,0.0,0.0,0.0,0.0,0.0,0.0,0.0,0.0,0.0,0.0,0.0,0.0,0.0,0.0,0.0,0.0,0.0,0.0,1.8269,1.8573,1.8808,1.9008,1.865,1.8202,0.0,0.0,0.0,0.0,0.0,0.0,0.0,0.0,0.0,0.0,0.0,0.0,0.0,0.0,0.0,0.0,0.0,0.0,0.0,0.0,0.0,0.0,0.0,0.0,0.0,0.0,0.0,0.0,0.0,0.0,0.0,0.0,0.0,0.0,0.0,0.0,0.0,0.0,0.0,0.0,0.0,0.0,0.0,0.0,0.0,0.0,0.0,0.0,0.0,0.0,0.0,0.0,0.0,0.0,0.0,0.0,0.0,0.0,0.0,0.0,0.0,0.0,0.0,0.0,0.0,0.0,0.0,0.0,0.0,0.0,0.0,0.0,0.0,0.0,0.0,0.0,0.0,0.0,0.0,0.0,0.0,0.0,0.0,0.0,0.0,0.0,0.0,0.0,0.0,0.0,0.0,0.0,0.0,0.0,0.0,0.0,0.0,0.0,0.0,0.0,0.0,0.0,0.0,0.0,0.0,0.0,0.0,0.0,1.7896,1.8371,1.8731,1.8975,1.9098,1.864,1.8124,0.0,0.0,0.0,0.0,0.0,0.0,0.0,0.0,0.0,0.0,0.0,0.0,0.0,0.0,0.0,0.0,0.0,0.0,0.0,0.0,0.0,0.0,0.0,0.0,0.0,0.0,0.0,0.0,0.0,0.0,0.0,0.0,0.0,0.0,0.0,0.0,0.0,0.0,0.0,0.0,0.0,0.0,0.0,0.0,0.0,0.0,0.0,0.0,0.0,0.0,0.0,0.0,0.0,0.0,0.0,0.0,0.0,0.0,0.0,0.0,0.0,0.0,0.0,0.0,0.0,0.0,0.0,0.0,0.0,0.0,0.0,0.0,0.0,0.0,0.0,0.0,0.0,0.0,0.0,0.0,0.0,0.0,0.0,0.0,0.0,0.0,0.0,0.0,0.0,0.0,0.0,0.0,0.0,0.0,0.0,0.0,0.0,0.0,0.0,0.0,0.0,0.0,0.0,0.0,0.0,0.0,0.0,0.0,1.8168,1.8516,1.8898,1.9098,1.9098,1.8573,1.7998,0.0,0.0,0.0,0.0,0.0,0.0,0.0,0.0,0.0,0.0,0.0,0.0,0.0,0.0,0.0,0.0,0.0,0.0,0.0,0.0,0.0,0.0,0.0,0.0,0.0,0.0,0.0,0.0,0.0,0.0,0.0,0.0,0.0,0.0,0.0,0.0,0.0,0.0,0.0,0.0,0.0,0.0,0.0,0.0,0.0,0.0,0.0,0.0,0.0,0.0,0.0,0.0,0.0,0.0,0.0,0.0,0.0,0.0,0.0,0.0,0.0,0.0,0.0,0.0,0.0,0.0,0.0,0.0,0.0,0.0,0.0,0.0,0.0,0.0,0.0,0.0,0.0,0.0,0.0,0.0,0.0,0.0,0.0,0.0,0.0,0.0,0.0,0.0,0.0,0.0,0.0,0.0,0.0,0.0,0.0,0.0,0.0,0.0,0.0,0.0,0.0,0.0,0.0,0.0,0.0,0.0,0.0,0.0,1.8414,1.8707,1.8975,1.9098,1.9098,1.8674,1.8202,0.0,0.0,0.0,0.0,0.0,0.0,0.0,0.0,0.0,0.0,0.0,0.0,0.0,0.0,0.0,0.0,0.0,0.0,0.0,0.0,0.0,0.0,0.0,0.0,0.0,0.0,0.0,0.0,0.0,0.0,0.0,0.0,0.0,0.0,0.0,0.0,0.0,0.0,0.0,0.0,0.0,0.0,0.0,0.0,0.0,0.0,0.0,0.0,1.6689,0.0,0.0,0.0,0.0,0.0,0.0,0.0,0.0,0.0,0.0,0.0,0.0,0.0,0.0,0.0,0.0,0.0,0.0,0.0,0.0,0.0,0.0,0.0,0.0,0.0,0.0,0.0,0.0,0.0,0.0,0.0,0.0,0.0,0.0,0.0,0.0,0.0,0.0,0.0,0.0,0.0,0.0,0.0,0.0,0.0,0.0,0.0,0.0,0.0,0.0,0.0,0.0,0.0,0.0,0.0,0.0,0.0,0.0,0.0,1.8808,1.9042,1.9208,1.9341,1.9297,1.8875,1.8337,0.0,0.0,0.0,0.0,0.0,0.0,0.0,0.0,0.0,0.0,0.0,0.0,0.0,0.0,0.0,0.0,0.0,0.0,0.0,0.0,0.0,0.0,0.0,0.0,0.0,0.0,0.0,0.0,0.0,0.0,0.0,0.0,0.0,0.0,0.0,0.0,0.0,0.0,0.0,0.0,0.0,0.0,0.0,0.0,0.0,0.0,0.0,0.0,0.0,0.0,0.0,0.0,0.0,0.0,0.0,0.0,0.0,0.0,0.0,0.0,0.0,0.0,0.0,0.0,0.0,0.0,0.0,0.0,0.0,0.0,0.0,0.0,0.0,0.0,0.0,0.0,0.0,0.0,0.0,0.0,0.0,0.0,0.0,0.0,0.0,0.0,0.0,0.0,0.0,0.0,0.0,0.0,0.0,0.0,0.0,0.0,0.0,0.0,0.0,0.0,0.0,0.0,0.0,0.0,0.0,0.0,0.0,1.8721,1.9142,1.9308,1.944,1.9506,1.9506,1.9042,1.8438,1.7784,0.0,0.0,0.0,0.0,0.0,0.0,0.0,0.0,0.0,0.0,0.0,0.0,0.0,0.0,0.0,0.0,0.0,0.0,0.0,0.0,0.0,0.0,0.0,0.0,0.0,0.0,0.0,0.0,0.0,0.0,0.0,0.0,0.0,0.0,0.0,0.0,0.0,0.0,1.7057,1.727,0.0,0.0,0.0,0.0,0.0,0.0,0.0,0.0,1.6689,0.0,0.0,0.0,0.0,0.0,0.0,0.0,0.0,0.0,0.0,0.0,0.0,0.0,0.0,0.0,0.0,0.0,0.0,0.0,0.0,0.0,0.0,0.0,0.0,0.0,0.0,0.0,0.0,0.0,0.0,0.0,0.0,0.0,0.0,0.0,0.0,0.0,0.0,0.0,0.0,0.0,0.0,0.0,0.0,0.0,0.0,0.0,0.0,0.0,0.0,0.0,0.0,0.0,0.0,0.0,0.0,1.8398,1.8697,1.9019,1.9274,1.9241,1.9164,1.9175,1.8774,1.8347,1.793,0.0,0.0,0.0,0.0,0.0,0.0,0.0,0.0,0.0,0.0,0.0,0.0,0.0,0.0,0.0,0.0,0.0,0.0,0.0,0.0,0.0,0.0,0.0,0.0,0.0,0.0,0.0,0.0,0.0,0.0,0.0,0.0,0.0,0.0,0.0,0.0,0.0,0.0,0.0,1.7261,1.7392,0.0,0.0,0.0,0.0,0.0,0.0,0.0,0.0,1.6689,0.0,0.0,0.0,0.0,0.0,0.0,0.0,0.0,0.0,0.0,0.0,0.0,0.0,0.0,0.0,0.0,0.0,0.0,0.0,0.0,0.0,0.0,0.0,0.0,0.0,0.0,0.0,0.0,0.0,0.0,0.0,0.0,0.0,0.0,0.0,0.0,0.0,0.0,0.0,0.0,0.0,0.0,0.0,0.0,0.0,0.0,0.0,0.0,0.0,0.0,0.0,0.0,0.0,0.0,0.0,1.8865,1.9098,1.9384,1.9681,1.9572,1.9506,1.9495,1.8942,1.8472,0.0,0.0,0.0,0.0,0.0,0.0,0.0,0.0,0.0,0.0,0.0,0.0,0.0,0.0,0.0,0.0,0.0,0.0,0.0,0.0,0.0,0.0,0.0,0.0,0.0,0.0,0.0,0.0,0.0,0.0,0.0,0.0,0.0,0.0,0.0,0.0,0.0,0.0,0.0,0.0,1.7635,1.7878,1.7716,0.0,0.0,0.0,0.0,0.0,0.0,1.7066,1.7066,0.0,0.0,0.0,0.0,0.0,0.0,0.0,0.0,0.0,0.0,0.0,0.0,0.0,0.0,0.0,0.0,0.0,0.0,0.0,0.0,0.0,0.0,0.0,0.0,0.0,0.0,0.0,0.0,0.0,0.0,0.0,0.0,0.0,0.0,0.0,0.0,0.0,0.0,0.0,0.0,0.0,0.0,0.0,0.0,0.0,0.0,0.0,0.0,0.0,0.0,0.0,0.0,0.0,0.0,0.0,1.9285,1.944,1.9714,2.0031,1.9878,1.9769,1.9769,1.9108,1.8573,0.0,0.0,0.0,0.0,0.0,0.0,0.0,0.0,0.0,0.0,0.0,0.0,0.0,0.0,0.0,0.0,0.0,0.0,0.0,0.0,0.0,0.0,0.0,0.0,0.0,0.0,0.0,0.0,0.0,0.0,0.0,0.0,0.0,0.0,0.0,0.0,0.0,0.0,0.0,0.0,0.0,1.8322,1.8121,1.8072,0.0,0.0,0.0,0.0,1.7392,1.7392,0.0,0.0,0.0,0.0,0.0,0.0,0.0,0.0,0.0,0.0,0.0,0.0,0.0,0.0,0.0,0.0,0.0,0.0,0.0,0.0,0.0,0.0,0.0,0.0,0.0,0.0,0.0,0.0,0.0,0.0,0.0,0.0,0.0,0.0,0.0,0.0,0.0,0.0,0.0,0.0,0.0,0.0,0.0,0.0,0.0,0.0,0.0,0.0,0.0,0.0,0.0,0.0,0.0,0.0,0.0,0.0,1.9241,1.9318,1.9506,1.9868,1.9539,1.9374,1.9384,1.8818,1.8381,0.0,0.0,0.0,0.0,0.0,0.0,0.0,0.0,0.0,0.0,0.0,0.0,0.0,0.0,0.0,0.0,0.0,0.0,0.0,0.0,0.0,0.0,0.0,0.0,0.0,0.0,0.0,0.0,0.0,0.0,0.0,0.0,0.0,0.0,0.0,0.0,0.0,0.0,0.0,0.0,0.0,1.8402,1.8353,1.8353,1.8273,0.0,0.0,1.7627,1.7432,1.7392,0.0,0.0,0.0,0.0,0.0,0.0,0.0,0.0,0.0,0.0,0.0,0.0,0.0,0.0,0.0,0.0,0.0,0.0,0.0,0.0,0.0,0.0,0.0,0.0,0.0,0.0,0.0,0.0,0.0,0.0,0.0,0.0,0.0,0.0,0.0,0.0,0.0,0.0,0.0,0.0,0.0,0.0,0.0,0.0,0.0,0.0,0.0,0.0,0.0,0.0,0.0,0.0,0.0,0.0,0.0,1.8539,1.9285,1.9506,1.9736,2.0009,1.9769,1.9638,1.9638,1.9108,1.8674,0.0,0.0,0.0,0.0,0.0,0.0,0.0,0.0,0.0,0.0,0.0,0.0,0.0,0.0,0.0,0.0,0.0,0.0,0.0,0.0,0.0,0.0,0.0,0.0,0.0,0.0,0.0,0.0,0.0,0.0,0.0,0.0,0.0,0.0,0.0,0.0,0.0,0.0,0.0,0.0,0.0,0.0,1.8571,1.8643,0.0,0.0,0.0,1.825,1.8161,0.0,0.0,0.0,0.0,0.0,0.0,0.0,0.0,0.0,0.0,0.0,0.0,0.0,0.0,0.0,0.0,0.0,0.0,0.0,0.0,0.0,0.0,0.0,0.0,0.0,0.0,0.0,0.0,0.0,0.0,0.0,0.0,0.0,0.0,0.0,0.0,0.0,0.0,0.0,0.0,0.0,0.0,0.0,0.0,0.0,0.0,0.0,0.0,0.0,0.0,0.0,0.0,0.0,0.0,0.0,0.0,0.0,1.9285,1.9638,1.99,2.0085,1.99,1.9846,1.9802,1.9241,0.0,0.0,0.0,0.0,0.0,0.0,0.0,0.0,0.0,0.0,0.0,0.0,0.0,0.0,0.0,0.0,0.0,0.0,0.0,0.0,0.0,0.0,0.0,0.0,0.0,0.0,0.0,1.5832,0.0,0.0,0.0,0.0,0.0,0.0,0.0,0.0,0.0,0.0,0.0,0.0,0.0,0.0,1.8772,1.8772,1.8891,1.8962,0.0,0.0,1.8709,1.8709,1.8709,1.8652,0.0,0.0,0.0,0.0,0.0,0.0,0.0,0.0,0.0,0.0,0.0,0.0,0.0,0.0,0.0,0.0,0.0,0.0,0.0,0.0,0.0,0.0,0.0,0.0,0.0,0.0,0.0,0.0,0.0,0.0,0.0,0.0,0.0,0.0,0.0,0.0,0.0,0.0,0.0,0.0,0.0,0.0,0.0,0.0,0.0,0.0,0.0,0.0,0.0,0.0,0.0,0.0,0.0,0.0,0.0,1.9285,1.9517,1.978,2.0074,1.978,1.9638,1.9605,1.8908,1.8472,0.0,0.0,0.0,0.0,0.0,0.0,0.0,0.0,0.0,0.0,0.0,0.0,0.0,0.0,0.0,0.0,0.0,0.0,0.0,0.0,0.0,0.0,0.0,0.0,0.0,0.0,0.0,0.0,0.0,0.0,0.0,0.0,0.0,0.0,0.0,0.0,0.0,0.0,0.0,0.0,0.0,1.8971,1.9002,1.9002,1.9002,0.0,0.0,1.8709,1.87,1.8709,1.8709,1.87,0.0,0.0,0.0,0.0,0.0,0.0,0.0,0.0,0.0,0.0,0.0,0.0,0.0,0.0,0.0,0.0,0.0,0.0,0.0,0.0,0.0,0.0,0.0,0.0,0.0,0.0,0.0,0.0,0.0,0.0,0.0,0.0,0.0,0.0,0.0,0.0,0.0,0.0,0.0,0.0,0.0,0.0,0.0,0.0,0.0,0.0,0.0,0.0,0.0,0.0,0.0,0.0,0.0,1.8586,1.9175,1.9648,1.9911,1.9976,1.9846,1.9736,1.9615,1.9218,1.8875,0.0,0.0,0.0,0.0,0.0,0.0,0.0,0.0,0.0,0.0,0.0,0.0,0.0,0.0,0.0,0.0,0.0,0.0,0.0,0.0,0.0,0.0,0.0,0.0,0.0,0.0,0.0,0.0,1.6307,1.6307,1.6316,0.0,0.0,0.0,0.0,0.0,0.0,0.0,0.0,0.0,0.0,1.9042,1.9152,1.9192,0.0,0.0,1.9121,1.9073,1.9073,1.9073,1.9033,1.8891,1.8891,0.0,0.0,0.0,0.0,0.0,0.0,0.0,0.0,0.0,0.0,0.0,0.0,0.0,0.0,0.0,0.0,0.0,0.0,0.0,0.0,0.0,0.0,0.0,0.0,0.0,0.0,0.0,0.0,0.0,0.0,0.0,0.0,0.0,0.0,0.0,0.0,0.0,0.0,0.0,0.0,0.0,0.0,0.0,0.0,0.0,0.0,0.0,0.0,0.0,0.0,0.0,0.0,1.8744,1.9241,1.9769,2.0042,2.0042,1.99,1.9736,1.9605,1.9374,1.9108,0.0,0.0,0.0,0.0,0.0,0.0,0.0,0.0,0.0,0.0,0.0,0.0,0.0,0.0,0.0,0.0,0.0,0.0,0.0,0.0,0.0,0.0,0.0,0.0,0.0,0.0,0.0,0.0,1.6482,1.6482,1.6482,0.0,0.0,0.0,0.0,0.0,0.0,0.0,0.0,0.0,0.0,1.9161,1.9262,1.9292,1.9292,1.9292,1.9292,1.9292,1.9292,1.9292,1.9271,1.9112,0.0,0.0,0.0,0.0,0.0,0.0,0.0,0.0,0.0,0.0,0.0,0.0,0.0,0.0,0.0,0.0,0.0,0.0,0.0,0.0,0.0,0.0,0.0,0.0,0.0,0.0,0.0,0.0,0.0,0.0,2.2252,0.0,0.0,0.0,0.0,0.0,0.0,0.0,0.0,0.0,0.0,0.0,0.0,0.0,0.0,0.0,0.0,0.0,0.0,0.0,0.0,0.0,0.0,1.8844,1.9583,1.9802,2.0074,2.0335,1.9878,1.9605,1.9605,1.9264,1.9008,1.8808,0.0,0.0,0.0,0.0,0.0,0.0,0.0,0.0,0.0,0.0,0.0,0.0,0.0,0.0,0.0,0.0,0.0,0.0,0.0,0.0,0.0,0.0,0.0,0.0,0.0,0.0,1.6874,1.6874,1.6874,0.0,0.0,0.0,0.0,0.0,0.0,0.0,0.0,0.0,0.0,1.9301,1.9301,1.9292,1.9292,1.9292,1.9292,1.9292,1.9301,1.9311,1.9301,1.9292,0.0,0.0,0.0,0.0,0.0,0.0,0.0,0.0,0.0,0.0,0.0,0.0,0.0,0.0,0.0,0.0,0.0,0.0,0.0,0.0,0.0,0.0,0.0,0.0,0.0,0.0,0.0,2.1955,2.201,0.0,0.0,0.0,0.0,0.0,0.0,0.0,0.0,0.0,0.0,0.0,2.0996,2.0731,0.0,0.0,0.0,0.0,0.0,0.0,0.0,0.0,0.0,0.0,0.0,0.0,1.9276,1.9802,2.0237,2.0432,2.0399,2.0216,2.0064,1.9944,1.9813,1.9528,1.9008,0.0,0.0,0.0,0.0,0.0,0.0,0.0,0.0,0.0,0.0,0.0,0.0,0.0,0.0,0.0,0.0,0.0,0.0,0.0,0.0,0.0,0.0,0.0,0.0,0.0,1.6839,0.0,0.0,0.0,0.0,0.0,0.0,0.0,0.0,0.0,0.0,0.0,1.9292,1.9292,1.9292,1.9292,1.9292,1.9292,1.935,0.0,0.0,0.0,0.0,0.0,0.0,0.0,0.0,0.0,0.0,0.0,0.0,0.0,0.0,2.4332,2.4526,2.5034,2.544,2.5528,0.0,0.0,0.0,0.0,0.0,0.0,0.0,0.0,0.0,0.0,0.0,0.0,0.0,0.0,2.2312,0.0,2.2312,0.0,0.0,0.0,0.0,0.0,0.0,0.0,0.0,2.1686,2.1642,2.173,2.173,2.1621,0.0,2.1156,2.0566,0.0,0.0,0.0,0.0,0.0,0.0,0.0,0.0,1.9715,2.0129,2.055,2.0733,2.0658,2.0593,2.0518,2.0366,2.0269,1.9944,1.9396,1.8875,1.8337,0.0,0.0,0.0,0.0,0.0,0.0,0.0,0.0,0.0,0.0,0.0,0.0,0.0,0.0,0.0,0.0,0.0,0.0,0.0,0.0,0.0,0.0,0.0,1.6908,0.0,0.0,0.0,0.0,0.0,0.0,0.0,0.0,0.0,1.844,1.8852,1.9146,1.9283,1.9292,1.9301,1.939,0.0,0.0,0.0,0.0,0.0,0.0,0.0,1.994,2.0664,2.0428,2.052,2.1514,2.2803,2.3907,2.4508,0.0,0.0,2.5655,2.6062,2.6422,2.6461,2.6538,2.6376,2.5732,2.5953,2.6153,0.0,0.0,0.0,0.0,0.0,0.0,0.0,0.0,2.3782,2.377,0.0,2.3725,0.0,0.0,0.0,0.0,0.0,2.2844,0.0,0.0,2.3001,2.3137,2.3293,2.3282,2.3193,2.2989,2.2476,2.2113,2.1848,2.0424,0.0,0.0,0.0,0.0,0.0,0.0,2.0161,2.0603,2.0807,2.0999,2.1158,2.0999,2.0903,2.086,2.0571,2.0248,1.99,1.9363,1.8841,1.8337,1.792,0.0,0.0,0.0,0.0,0.0,0.0,0.0,0.0,0.0,0.0,0.0,0.0,0.0,0.0,0.0,0.0,0.0,0.0,0.0,0.0,1.6908,0.0,0.0,0.0,0.0,0.0,0.0,0.0,0.0,0.0,0.0,1.8211,1.8504,1.8871,1.9256,0.0,0.0,0.0,0.0,1.9685,1.9902,1.9902,1.9912,1.997,1.9921,2.0063,2.0607,0.0,0.0,2.2942,2.4335,2.5368,2.6102,2.6842,2.7331,2.6685,2.6869,2.7133,2.7172,2.7172,2.6779,2.592,2.6064,2.6229,2.4156,0.0,0.0,0.0,0.0,2.4169,2.407,2.3959,2.3959,2.3893,2.3806,2.3806,0.0,0.0,0.0,0.0,0.0,0.0,2.3521,2.3361,2.3361,2.3449,2.3673,2.3673,2.3628,2.3561,2.3273,2.3124,2.3013,2.2205,2.1274,2.0248,0.0,0.0,0.0,0.0,2.0614,2.0987,2.1094,2.1126,2.1201,2.1126,2.1031,2.0903,2.0722,2.0399,1.9933,1.9407,1.8831,1.8337,1.792,0.0,0.0,0.0,0.0,0.0,0.0,0.0,0.0,0.0,0.0,0.0,0.0,0.0,0.0,0.0,0.0,0.0,0.0,0.0,1.7323,1.7332,1.7332,0.0,0.0,0.0,0.0,0.0,0.0,0.0,0.0,0.0,1.8892,1.9314,1.9614,0.0,0.0,1.9745,1.9794,1.9833,1.9912,2.0147,2.0186,0.0,2.0758,2.0466,2.0531,2.1566,2.2096,2.2719,2.375,2.4766,2.5695,2.655,2.7301,2.773,2.7761,2.7913,2.8084,2.8084,2.8112,2.7738,2.6794,2.6651,2.658,2.5128,2.5149,2.4826,2.483,2.504,2.4973,2.486,2.4746,2.4759,2.4691,2.4636,2.4636,2.4725,2.49,2.4704,0.0,0.0,0.0,2.4236,2.4135,2.4147,2.4249,2.4374,2.4374,2.4408,2.4374,2.3988,2.3825,2.3825,2.3106,2.2363,2.1526,0.0,0.0,2.1284,2.1229,2.1271,2.1383,2.1339,2.1172,2.0967,2.0967,2.0871,2.07,2.0614,2.0356,1.99,1.9429,1.8965,1.8506,1.8124,1.7862,0.0,0.0,0.0,0.0,0.0,0.0,0.0,0.0,0.0,0.0,0.0,1.7116,1.7151,0.0,0.0,0.0,1.7254,1.7358,1.7495,1.7495,0.0,0.0,0.0,0.0,0.0,0.0,0.0,1.8411,1.8619,1.8952,1.9459,1.9918,2.0098,1.9942,1.9912,1.9942,2.002,0.0,2.0147,2.0381,2.042,2.0547,2.0918,2.078,2.107,2.2292,2.3163,2.3897,2.4594,2.5401,2.6207,2.6951,2.7545,2.7962,2.8179,2.8351,2.851,2.851,2.851,2.8222,2.7366,2.7198,2.7042,2.6021,2.6414,2.5697,2.5716,2.6188,2.6015,2.5933,2.591,2.5898,2.591,2.5923,2.5923,2.5793,2.5571,2.5265,0.0,2.5123,2.4921,2.4957,2.5123,2.5123,2.5182,2.5312,2.53,2.5312,2.5288,2.4657,2.4361,2.4303,2.3453,2.3015,2.2981,2.2536,2.2319,2.24,2.2172,2.1935,2.1687,2.1486,2.114,2.064,2.0584,2.0497,2.0357,2.0345,2.0139,1.9802,1.9441,1.9077,1.8774,1.8472,1.8168,1.8008,0.0,0.0,0.0,0.0,0.0,0.0,0.0,0.0,0.0,0.0,0.0,0.0,0.0,0.0,0.0,1.7505,0.0,1.7539,1.7567,0.0,0.0,0.0,1.8195,1.8195,1.8528,1.8811,1.9053,0.0,0.0,1.9933,2.0312,2.045,2.002,1.9942,2.0039,2.0312,2.0371,2.0439,2.0713,2.0723,2.0723,2.082,2.1103,2.1672,2.2646,2.3752,2.4573,2.5285,2.5999,2.6715,2.7412,2.7748,2.7962,2.8179,2.8379,2.851,2.851,2.851,2.8342,2.7813,2.7669,2.7536,2.6373,2.6487,2.628,2.6305,2.643,2.6396,2.6258,2.6131,2.6144,2.6062,2.591,2.5923,2.5793,2.5606,2.5512,2.5394,2.5253,2.5206,2.5218,2.5241,2.5253,2.5276,2.5312,2.5312,2.5312,2.5276,2.5051,2.4897,2.4885,2.439,2.4047,2.3869,2.3474,2.2971,2.2332,2.2034,2.1806,2.1684,2.1408,2.1088,2.0831,2.0477,2.0238,2.0103,1.9775,1.9408,1.9075,1.8831,1.8607,1.8428,1.8212,1.8032,1.8008,1.8008,0.0,0.0,0.0,0.0,0.0,0.0,0.0,0.0,0.0,1.7495,1.7495,0.0,1.7495,0.0,1.7588,1.7725,1.7872,1.8162,0.0,0.0,1.8734,1.9022,1.9022,1.9119,1.9294,1.9652,1.9778,2.0011,2.0381,2.0537,2.0557,2.045,2.0459,2.0576,2.0896,2.0994,2.1121,2.1484,2.1584,2.1572,2.1623,2.1934,2.2266,2.2565,2.3388,2.4251,2.5115,2.5717,2.6437,2.7505,2.7841,2.8042,2.8351,2.8471,2.851,2.851,2.851,2.8314,2.7798,2.7729,2.7642,2.6487,2.6487,2.6487,2.6487,2.6487,2.6487,2.643,2.6339,2.6339,2.627,2.6154,2.5968,2.584,2.5723,2.5465,2.5324,2.5218,2.5123,2.5123,2.5206,2.5218,2.5241,2.5312,2.5312,2.5312,2.5276,2.5087,2.4957,2.4945,2.4478,2.4127,2.3945,2.3446,2.2875,2.224,2.2121,2.1905,2.1571,2.0988,2.0609,2.042,2.0147,1.9988,1.9918,1.9671,1.9424,1.9227,1.9073,1.8969,1.8864,1.8689,1.8574,1.8574,1.8584,1.8574,0.0,0.0,0.0,0.0,0.0,0.0,0.0,0.0,0.0,0.0,0.0,1.7821,1.796,1.8074,1.8255,1.852,1.8779,1.8926,1.8926,1.9307,1.957,1.9561,1.9736,1.9941,2.0176,2.0195,2.0293,2.0576,2.0615,2.0615,2.0615,2.0615,2.0732,2.1143,2.12,2.1346,2.1807,2.1936,2.1963,2.2129,2.2363,2.2588,2.2945,2.3507,2.4272,2.5073,2.5664,2.6373,2.733,2.7655,2.7869,2.8271,2.8379,2.8391,2.8471,2.851,2.8402,2.8138,2.8065,2.8065,2.6499,2.6452,2.6452,2.6452,2.6396,2.6383,2.6418,2.6465,2.6418,2.643,2.6361,2.5968,2.5793,2.5723,2.5253,2.5052,2.4981,2.4814,2.4861,2.5052,2.5076,2.5182,2.5312,2.5264,2.5264,2.5276,2.4909,2.4754,2.4718,2.4152,2.3776,2.353,2.2953,2.244,2.2025,2.2138,2.1901,2.1345,2.0585,2.0101,1.9919,1.9833,1.9803,1.9793,1.9743,1.9723,1.9723,1.9634,1.9561,1.9571,1.9406,1.9277,1.9277,1.9277,1.9277,0.0,1.9277,0.0,0.0,0.0,0.0,0.0,0.0,0.0,0.0,1.8174,1.8295,1.8656,1.8685,1.8877,1.9294,1.9336,1.9365,1.9385,1.9736,2.0,2.001,2.0342,2.0615,2.0615,2.0615,2.0605,2.0605,2.0615,2.0615,2.0615,2.0693,2.0869,2.123,2.1307,2.1483,2.1963,2.2051,2.2266,2.2519,2.2565,2.2777,2.3317,2.3754,2.4315,2.4988,2.5611,2.631,2.6981,2.7348,2.7632,2.8087,2.8219,2.8271,2.8471,2.851,2.8498,2.8474,2.8462,2.851,2.6396,2.6236,2.6236,2.6062,2.5793,2.5793,2.5968,2.6248,2.6084,2.5933,2.5758,2.5523,2.5229,2.4933,2.4826,2.4623,2.4381,2.4502,2.4682,2.4861,2.5028,2.5182,2.5276,2.5182,2.5147,2.5123,2.4742,2.4465,2.4298,2.4055,2.3629,2.3113,2.2665,2.2176,2.1627,0.0,0.0,0.0,2.0803,2.0639,2.0427,2.0094,1.987,1.986,1.9583,0.0,1.9396,1.936,1.937,1.937,1.9323,0.0,0.0,0.0,0.0,0.0,0.0,0.0,0.0,0.0,0.0,0.0,1.9141,1.9089,1.9053,1.9053,1.9082,1.916,1.917,1.9189,1.9287,1.96,1.9795,1.9814,2.0214,2.0478,2.0488,2.0556,2.0615,2.0615,2.0615,2.0615,2.0615,2.0615,2.0615,2.0625,2.0879,2.1269,2.168,2.1748,2.2041,2.2682,2.2789,2.2867,2.2964,2.2955,2.3008,2.3178,2.3406,2.3884,2.4509,2.5062,2.579,2.6715,2.7115,2.7429,2.8047,2.8179,2.8259,2.8471,2.851,2.851,2.851,2.851,2.851,2.6002,0.0,2.5688,2.5488,0.0,2.5135,2.5135,2.5218,2.5382,2.5347,2.517,2.4874,2.4659,2.4432,2.4034,2.3838,2.374,2.3751,2.397,2.4381,2.455,2.4802,2.5052,2.4885,2.4814,2.4766,2.4298,2.4007,2.3861,2.3409,2.2964,2.2553,2.2073,2.1617,2.1205,2.0896,2.0741,2.0741,2.0741,2.0683,2.0595,2.039,2.0234,2.0234,2.0029,0.0,0.0,0.0,0.0,0.0,0.0,0.0,0.0,1.995,0.0,1.9959,1.995,1.995,1.995,1.9922,1.9912,1.9922,1.9912,1.9774,1.9326,1.9277,1.9375,1.958,1.96,1.9687,1.994,2.0145,2.0225,2.0244,2.0468,2.0615,2.0615,2.0615,2.0615,2.0615,2.0615,2.0615,2.0615,2.0615,2.0615,2.0625,2.0957,2.1356,2.1807,2.207,2.2432,2.2984,2.3101,2.3091,2.3101,2.3101,2.3101,2.3135,2.3319,2.3667,2.409,2.4647,2.5338,2.6082,2.6528,2.7062,2.7684,2.7938,2.8151,2.8431,2.851,2.851,2.851,2.851,2.851,2.5465,2.5382,2.5004,2.4826,2.4731,2.4419,2.4118,2.3936,0.0,0.0,0.0,2.4034,2.3863,2.3779,2.3139,2.2927,2.3038,2.2927,2.3187,2.3714,2.3934,2.4236,2.4574,2.4381,2.4261,2.42,2.3703,2.3409,2.3298,2.2676,2.2214,2.1959,2.1464,2.1089,2.0867,2.0693,2.0615,2.0615,2.0615,2.0615,2.0615,2.0615,2.0615,2.0615,2.0615,2.0615,2.0615,2.0615,2.0615,2.0615,2.0615,2.0615,2.0615,2.0615,2.0615,2.0615,2.0615,2.0615,2.0615,2.0615,2.0615,2.0615,2.0615,2.0302,1.9597,1.9549,1.9658,2.0,2.0029,2.0176,2.0576,2.0605,2.0615,2.0615,2.0615,2.0615,2.0615,2.0615,2.0615,2.0615,2.0615,2.0615,2.0615,2.0615,2.0615,2.0674,2.1045,2.1512,2.2021,2.2432,2.2734,2.3023,2.3101,2.3101,2.3101,2.3101,2.3101,2.3101,2.3276,2.3493,2.3797,2.4315,2.4903,2.5485,2.603,2.6775,2.7429,2.7817,2.807,2.8431,2.851,2.851,2.851,2.851,2.851,2.4909,2.4623,2.4407,2.4129,2.3776,2.3556,2.3176,2.2692,2.3102,2.325,2.3213,2.2804,2.2553,2.2392,2.23,2.2138,2.2025,2.2327,2.2628,2.2889,2.3261,2.3567,2.3751,2.3567,2.3383,2.3187,2.2916,2.2665,2.2327,2.2214,2.1959,2.1578,2.132,2.1012,2.0683,2.0605,2.0615,2.0615,2.0615,2.0615,2.0615,2.0615,2.0615,2.0615,2.0615,2.0615,2.0615,2.0615,2.0615,2.0615,2.0615,2.0615,2.0615,2.0615,2.0615,2.0615,2.0615,2.0615,2.0615,2.0615,2.0615,2.0615,2.0615,2.0546,2.0439,2.0429,2.0449,2.0469,2.0498,2.0537,2.0605,2.0615,2.0615,2.0615,2.0615,2.0615,2.0615,2.0615,2.0615,2.0615,2.0615,2.0615,2.0615,2.0615,2.0615,2.0723,2.1271,2.2041,2.2652,2.2964,2.3023,2.3081,2.3101,2.3101,2.3101,2.3101,2.3101,2.3101,2.3135,2.3266,2.3493,2.398,2.4572,2.5327,2.5988,2.6734,2.7586,2.799,2.8179,2.8431,2.8471,2.8471,2.851,2.851,2.851,2.4093,2.3827,2.3497,2.3276,2.3075,2.2665,2.2327,2.2063,2.1921,2.2073,2.2289,2.2035,2.1835,2.1769,2.155,2.1474,2.1512,2.1665,2.1921,2.2214,2.2515,2.274,2.2927,2.2729,2.259,2.2515,2.2176,2.1949,2.1769,2.154,2.1359,2.1177,2.0974,2.076,2.0605,2.0615,2.0615,2.0615,2.0615,2.0615,2.0615,2.0615,2.0615,2.0615,2.0615,2.0615,2.0615,2.0615,2.0615,2.0615,2.0615,2.0615,2.0615,2.0615,2.0615,2.0615,2.0615,2.0615,2.0615,2.0615,2.0615,2.0615,2.0615,2.0615,2.0615,2.0615,2.0615,2.0615,2.0615,2.0615,2.0615,2.0615,2.0615,2.0615,2.0615,2.0615,2.0615,2.0615,2.0615,2.0615,2.0615,2.0615,2.0615,2.0615,2.0615,2.0683,2.1378,2.2187,2.2955,2.3091,2.3101,2.3101,2.3101,2.3101,2.3101,2.3101,2.3101,2.3101,2.3101,2.3135,2.3319,2.3677,2.4229,2.485,2.5611,2.6426,2.7231,2.7615,2.7926,2.8259,2.8339,2.8339,2.8471,2.851,2.851,2.3298,2.3075,2.2703,2.2515,2.2402,2.1921,2.1693,2.155,2.1089,2.1128,2.1502,2.1349,2.131,2.1272,2.0974,2.0896,2.1051,2.1128,2.1282,2.1578,2.1807,2.1987,2.2101,2.1949,2.1883,2.1807,2.1502,2.1359,2.1282,2.0964,2.0819,2.0819,2.0654,2.0615,2.0615,2.0615,2.0615,2.0615,2.0615,2.0615,2.0615,2.0615,2.0615,2.0615,2.0615,2.0615,2.0615,2.0615,2.0615,2.0615,2.0615,2.0615,2.0615,2.0615,2.0615,2.0615,2.0615,2.0615,2.0615,2.0615,2.0615,2.0615,2.0615,2.0615,2.0615,2.0615,2.0615,2.0615,2.0615,2.0615,2.0615,2.0615,2.0615,2.0615,2.0615,2.0615,2.0615,2.0615,2.0615,2.0615,2.0615,2.0615,2.0615,2.0615,2.0654,2.082,2.1447,2.2168,2.2789,2.3013,2.3091,2.3101,2.3101,2.3101,2.3101,2.3101,2.3101,2.3101,2.3101,2.3091,2.3178,2.345,2.3917,2.4466,2.52,2.5968,2.6633,2.7156,2.7603,2.8018,2.8179,2.8259,2.8471,2.851,2.851,2.2665,2.2478,2.2252,2.1949,2.1617,2.155,2.131,2.1022,2.0906,2.0819,2.077,2.0683,2.0731,2.0683,2.0654,2.0644,2.0683,2.0858,2.0945,2.1012,2.1215,2.1282,2.132,2.1282,2.1167,2.1051,2.0974,2.0896,2.0722,2.0644,2.0644,2.0644,2.0595,2.0615,2.0615,2.0615,2.0615,2.0615,2.0615,2.0615,2.0615,2.0615,2.0615,2.0615,2.0615,2.0615,2.0615,2.0615,2.0615,2.0615,2.0615,2.0615,2.0615,2.0615,2.0615,2.0615,2.0615,2.0615,2.0615,2.0615,2.0615,2.0615,2.0615,2.0615,2.0615,2.0615,2.0615,2.0615,2.0615,2.0615,2.0615,2.0615,2.0615,2.0615,2.0615,2.0615,2.0615,2.0615,2.0615,2.0615,2.0615,2.0615,2.0615,2.0615,2.0762,2.1064,2.1543,2.206,2.2549,2.2896,2.3091,2.3101,2.3101,2.3101,2.3101,2.3101,2.3101,2.3101,2.3101,2.3101,2.3178,2.3363,2.3711,2.4294,2.4893,2.5538,2.6238,2.6899,2.7319,2.7708,2.799,2.8259,2.8431,2.8471,2.8471,2.1883,2.1655,2.1617,2.1464,2.132,2.1205,2.1051,2.0906,2.077,2.0654,2.0605,2.0615,2.0615,2.0615,2.0615,2.0615,2.0605,2.0693,2.0731,2.0741,2.0809,2.0838,2.0848,2.0848,2.0809,2.0731,2.0693,2.0702,2.0605,2.0615,2.0615,2.0615,2.0615,2.0615,2.0615,2.0615,2.0615,2.0615,2.0615,2.0615,2.0615,2.0615,2.0615,2.0615,2.0615,2.0615,2.0615,2.0615,2.0615,2.0615,2.0615,2.0615,2.0615,2.0615,2.0615,2.0615,2.0615,2.0615,2.0615,2.0615,2.0615,2.0615,2.0615,2.0615,2.0615,2.0615,2.0615,2.0615,2.0615,2.0615,2.0615,2.0615,2.0615,2.0615,2.0615,2.0615,2.0615,2.0615,2.0615,2.0615,2.0615,2.0615,2.0615,2.0615,2.0762,2.1132,2.1611,2.2031,2.2441,2.2871,2.3062,2.3101,2.3101,2.3101,2.3101,2.3101,2.3101,2.3101,2.3101,2.3101,2.3135,2.3319,2.3667,2.4036,2.4466,2.4978,2.5569,2.6113,2.661,2.7167,2.776,2.807,2.8271,2.8299,2.8339,2.132,2.1215,2.1215,2.1167,2.1089,2.0945,2.0867,2.0829,2.0644,2.0615,2.0615,2.0615,2.0615,2.0615,2.0615,2.0615,2.0615,2.0615,2.0615,2.0615,2.0615,2.0615,2.0615,2.0615,2.0615,2.0615,2.0605,2.0605,2.0615,2.0615,2.0615,2.0615,2.0615,2.0615,2.0615,2.0615,2.0615,2.0615,2.0615,2.0615,2.0615,2.0615,2.0615,2.0615,2.0615,2.0615,2.0615,2.0615,2.0615,2.0615,2.0615,2.0615,2.0615,2.0615,2.0615,2.0615,2.0615,2.0615,2.0615,2.0615,2.0615,2.0615,2.0615,2.0615,2.0615,2.0615,2.0615,2.0615,2.0615,2.0615,2.0615,2.0615,2.0615,2.0615,2.0615,2.0615,2.0615,2.0615,2.0615,2.0615,2.0615,2.0615,2.0615,2.0615,2.0732,2.0996,2.1523,2.1963,2.2344,2.2764,2.3101,2.3101,2.3101,2.3101,2.3101,2.3101,2.3101,2.3101,2.3101,2.3101,2.3101,2.3276,2.345,2.3744,2.4036,2.438,2.4861,2.5369,2.5946,2.6622,2.7249,2.7788,2.807,2.8139,2.8259,2.1215,2.1215,2.1167,2.1051,2.0906,2.0906,2.078,2.0654,2.0605,2.0615,2.0615,2.0615,2.0615,2.0615,2.0615,2.0615,2.0615,2.0615,2.0615,2.0615,2.0615,2.0615,2.0615,2.0615,2.0615,2.0615,2.0664,2.0674,2.0674,2.0654,2.0615,2.0635,2.0683,2.0644,2.0683,2.0703,2.0635,2.0703,2.0674,2.0635,2.0625,2.0625,2.0615,2.0615,2.0615,2.0615,2.0615,2.0615,2.0615,2.0615,2.0615,2.0615,2.0615,2.0615,2.0615,2.0615,2.0615,2.0615,2.0615,2.0615,2.0615,2.0615,2.0615,2.0615,2.0615,2.0615,2.0615,2.0615,2.0615,2.0615,2.0615,2.0615,2.0615,2.0615,2.0615,2.0615,2.0615,2.0615,2.0615,2.0615,2.0615,2.0615,2.0615,2.0615,2.0625,2.0791,2.1348,2.1904,2.206,2.2637,2.3023,2.3101,2.3101,2.3101,2.3101,2.3101,2.3101,2.3101,2.3101,2.3101,2.3101,2.3144,2.3276,2.3416,2.358,2.3841,2.4196,2.4743,2.5401,2.6071,2.6775,2.7278,2.7736,2.8018,2.8219,2.0809,2.0809,2.0799,2.077,2.0731,2.0693,2.0654,2.0615,2.0615,2.0615,2.0615,2.0615,2.0615,2.0615,2.0615,2.0615,2.0615,2.0615,2.0615,2.0615,2.0615,2.0615,2.0615,2.0615,2.0615,2.0644,2.085,2.1143,2.1396,2.1456,2.1406,2.1447,2.1456,2.1447,2.1447,2.1416,2.1447,2.1387,2.1143,2.0996,2.0967,2.0762,2.0615,2.0615,2.0615,2.0615,2.0615,2.0615,2.0615,2.0615,2.0615,2.0615,2.0615,2.0615,2.0615,2.0615,2.0615,2.0615,2.0615,2.0615,2.0615,2.0615,2.0615,2.0615,2.0615,2.0615,2.0615,2.0615,2.0615,2.0615,2.0615,2.0615,2.0615,2.0615,2.0615,2.0615,2.0615,2.0615,2.0615,2.0615,2.0615,2.0615,2.0615,2.0615,2.0615,2.0693,2.1368,2.1848,2.2012,2.2607,2.3101,2.3101,2.3101,2.3101,2.3101,2.3101,2.3101,2.3101,2.3101,2.3101,2.3101,2.3101,2.3232,2.3232,2.3276,2.345,2.3841,2.4262,2.4925,2.5485,2.6155,2.6775,2.736,2.7684,2.8099,2.0615,2.0615,2.0615,2.0615,2.0615,2.0615,2.0615,2.0615,2.0615,2.0615,2.0615,2.0615,2.0615,2.0615,2.0615,2.0615,2.0615,2.0615,2.0615,2.0625,2.0713,2.0781,2.085,2.0967,2.1026,2.1075,2.1289,2.1611,2.1855,2.1936,2.1936,2.1875,2.1936,2.1936,2.1936,2.1936,2.1936,2.1816,2.1592,2.1405,2.1406,2.1192,2.1036,2.1036,2.1036,2.0879,2.0635,2.0615,2.0615,2.0615,2.0615,2.0615,2.0615,2.0615,2.0615,2.0615,2.0615,2.0615,2.0615,2.0615,2.0615,2.0615,2.0615,2.0615,2.0615,2.0615,2.0615,2.0615,2.0615,2.0615,2.0615,2.0615,2.0615,2.0615,2.0615,2.0615,2.0615,2.0615,2.0615,2.0615,2.0615,2.0615,2.0615,2.0615,2.0615,2.0615,2.1328,2.1897,2.1982,2.2578,2.3101,2.3101,2.3101,2.3101,2.3101,2.3101,2.3101,2.3101,2.3101,2.3101,2.3101,2.3101,2.3101,2.3101,2.3144,2.3276,2.3527,2.3907,2.4337,2.4861,2.5443,2.6113,2.6734,2.74,2.7817,2.0615,2.0615,2.0615,2.0615,2.0615,2.0615,2.0615,2.0615,2.0615,2.0615,2.0615,2.0615,2.0615,2.0615,2.0664,2.0644,2.0674,2.0732,2.0723,2.0713,2.1045,2.119,2.1269,2.1582,2.1787,2.1816,2.1875,2.1946,2.2002,2.2021,2.2012,2.1953,2.2012,2.206,2.1943,2.2021,2.1973,2.1973,2.1943,2.1894,2.1885,2.1816,2.1768,2.1838,2.1787,2.1476,2.0723,2.0664,2.0674,2.0654,2.0615,2.0615,2.0615,2.0615,2.0615,2.0615,2.0615,2.0615,2.0615,2.0615,2.0615,2.0615,2.0615,2.0615,2.0615,2.0615,2.0615,2.0615,2.0615,2.0615,2.0615,2.0615,2.0615,2.0615,2.0615,2.0615,2.0615,2.0615,2.0615,2.0615,2.0615,2.0615,2.0615,2.0615,2.0625,2.082,2.1388,2.1924,2.2041,2.2613,2.3023,2.3101,2.3101,2.3101,2.3101,2.3101,2.3101,2.3101,2.3101,2.3101,2.3101,2.3101,2.3101,2.3101,2.3101,2.3188,2.3266,2.3657,2.3831,2.4348,2.4903,2.5485,2.6196,2.6899,2.7522,2.0615,2.0615,2.0615,2.0615,2.0615,2.0615,2.0615,2.0615,2.0615,2.0615,2.0615,2.0615,2.0615,2.0693,2.0879,2.1025,2.1055,2.1309,2.1318,2.1152,2.1484,2.168,2.1709,2.1826,2.2041,2.2275,2.2324,2.248,2.2685,2.2725,2.2744,2.2711,2.2744,2.2711,2.2672,2.2744,2.2701,2.2672,2.2461,2.2314,2.2285,2.2041,2.1894,2.1936,2.1926,2.1728,2.1525,2.1191,2.1035,2.1016,2.0772,2.0615,2.0615,2.0615,2.0615,2.0615,2.0615,2.0615,2.0615,2.0615,2.0615,2.0615,2.0615,2.0615,2.0615,2.0615,2.0615,2.0615,2.0615,2.0615,2.0615,2.0615,2.0615,2.0615,2.0615,2.0615,2.0615,2.0615,2.0615,2.0615,2.0615,2.0615,2.0615,2.0615,2.0713,2.0986,2.1533,2.1963,2.2324,2.2711,2.3071,2.3101,2.3101,2.3101,2.3101,2.3101,2.3101,2.3101,2.3101,2.3101,2.3101,2.3101,2.3101,2.3101,2.3101,2.3135,2.3222,2.3363,2.358,2.3841,2.4337,2.502,2.5695,2.6362,2.7062,2.0615,2.0615,2.0615,2.0615,2.0615,2.0615,2.0615,2.0615,2.0615,2.0615,2.0635,2.0752,2.082,2.0908,2.1269,2.1424,2.1533,2.1924,2.1973,2.1726,2.1963,2.2109,2.2148,2.2295,2.2471,2.2643,2.2744,2.2838,2.3081,2.3101,2.3091,2.3091,2.3101,2.3081,2.3101,2.3101,2.3101,2.3052,2.2838,2.2744,2.2652,2.249,2.2353,2.2353,2.2353,2.2353,2.2314,2.1943,2.1641,2.1475,2.1191,2.1104,2.1094,2.1074,2.1094,2.1075,2.0948,2.082,2.0801,2.0713,2.0615,2.0615,2.0615,2.0615,2.0615,2.0615,2.0615,2.0615,2.0615,2.0615,2.0615,2.0615,2.0615,2.0615,2.0615,2.0615,2.0615,2.0615,2.0615,2.0615,2.0615,2.0615,2.0615,2.0762,2.0898,2.121,2.1748,2.2158,2.2529,2.2818,2.2994,2.3101,2.3101,2.3101,2.3101,2.3101,2.3101,2.3101,2.3101,2.3101,2.3101,2.3101,2.3101,2.3101,2.3101,2.3101,2.3178,2.3135,2.3276,2.3614,2.3917,2.4509,2.5189,2.5904,2.6569,2.0615,2.0615,2.0615,2.0615,2.0615,2.0615,2.0615,2.0615,2.0615,2.0644,2.0703,2.1016,2.119,2.1307,2.1719,2.1914,2.1992,2.2353,2.2539,2.25,2.2549,2.2549,2.2588,2.2808,2.2964,2.3023,2.3042,2.3071,2.3101,2.3101,2.3101,2.3101,2.3101,2.3101,2.3101,2.3101,2.3101,2.3091,2.3071,2.3052,2.3052,2.3042,2.3033,2.3013,2.2994,2.2994,2.2916,2.2623,2.2295,2.1953,2.1828,2.1799,2.1846,2.1875,2.1838,2.1758,2.1465,2.1268,2.1142,2.0986,2.0811,2.082,2.083,2.0674,2.0811,2.086,2.086,2.084,2.0811,2.0772,2.0781,2.0791,2.0791,2.0713,2.0683,2.0625,2.0615,2.0615,2.0615,2.0615,2.0615,2.0635,2.0693,2.0977,2.1151,2.1473,2.1999,2.235,2.2613,2.2877,2.3042,2.3101,2.3101,2.3101,2.3101,2.3101,2.3101,2.3101,2.3101,2.3101,2.3101,2.3101,2.3101,2.3101,2.3101,2.3101,2.3101,2.3101,2.3144,2.3406,2.3744,2.4133,2.469,2.5359,2.5946,2.0615,2.0615,2.0615,2.0615,2.0615,2.0615,2.0615,2.0615,2.0625,2.0771,2.1035,2.1132,2.1445,2.1748,2.2148,2.2353,2.2451,2.2721,2.2935,2.2935,2.2925,2.2925,2.2935,2.3033,2.3091,2.3091,2.3057,2.3101,2.3101,2.3091,2.3091,2.3101,2.3101,2.3101,2.3101,2.3101,2.3101,2.3101,2.3101,2.3101,2.3101,2.3101,2.3101,2.3101,2.3101,2.3101,2.3101,2.3003,2.2574,2.1953,2.1936,2.1936,2.1943,2.1943,2.1963,2.1934,2.1816,2.1719,2.1689,2.1582,2.1523,2.1574,2.1496,2.1584,2.1543,2.1574,2.1584,2.1584,2.1584,2.1554,2.1514,2.1494,2.1554,2.1496,2.1045,2.0683,2.0674,2.0615,2.0615,2.0615,2.0654,2.0771,2.1016,2.1221,2.1473,2.196,2.2353,2.2637,2.2818,2.2925,2.3101,2.3101,2.3101,2.3101,2.3101,2.3101,2.3101,2.3101,2.3101,2.3101,2.3101,2.3101,2.3101,2.3101,2.3101,2.3101,2.3101,2.3101,2.3188,2.3232,2.345,2.3797,2.409,2.4647,2.5232,2.0615,2.0615,2.0615,2.0615,2.0615,2.0615,2.0713,2.083,2.0859,2.1103,2.1475,2.1709,2.1914,2.2178,2.2578,2.2773,2.2812,2.2984,2.3038,2.2969,2.2818,2.2906,2.3003,2.3057,2.296,2.2969,2.2882,2.2882,2.2969,2.2969,2.3013,2.3091,2.3101,2.3101,2.3101,2.3101,2.3101,2.3101,2.3101,2.3101,2.3101,2.3101,2.3101,2.3101,2.3101,2.3101,2.3101,2.3091,2.2847,2.251,2.2412,2.2412,2.2412,2.2402,2.2412,2.2412,2.2266,2.2148,2.2109,2.2002,2.1936,2.1926,2.1936,2.1936,2.1865,2.1936,2.1936,2.1897,2.1936,2.1936,2.1936,2.1936,2.1936,2.1787,2.1416,2.1163,2.1123,2.1202,2.1123,2.1163,2.1182,2.1191,2.1504,2.1641,2.1982,2.2383,2.2604,2.2828,2.3023,2.3071,2.3101,2.3101,2.3101,2.3101,2.3101,2.3101,2.3101,2.3101,2.3101,2.3101,2.3101,2.3101,2.3101,2.3101,2.3101,2.3101,2.3101,2.3101,2.3144,2.3188,2.3276,2.345,2.3754,2.4057,2.4605,2.0615,2.0615,2.0615,2.0625,2.0693,2.0683,2.0918,2.126,2.1299,2.1543,2.1953,2.2334,2.2461,2.2607,2.2867,2.3071,2.3071,2.3081,2.296,2.2794,2.2618,2.2618,2.2828,2.2794,2.275,2.2706,2.253,2.2618,2.275,2.2803,2.2925,2.3057,2.3101,2.3101,2.3101,2.3101,2.3101,2.3101,2.3101,2.3101,2.3101,2.3101,2.3101,2.3101,2.3101,2.3101,2.3101,2.3101,2.3042,2.3081,2.3101,2.3013,2.3033,2.3062,2.3042,2.2964,2.2744,2.2568,2.2529,2.2295,2.208,2.2119,2.2109,2.2012,2.2119,2.2168,2.2158,2.2178,2.2031,2.2129,2.2139,2.208,2.2129,2.2148,2.2041,2.2021,2.1992,2.1943,2.1936,2.1936,2.1906,2.1885,2.2041,2.2256,2.2529,2.2613,2.2838,2.2955,2.3071,2.3081,2.3101,2.3101,2.3101,2.3101,2.3101,2.3101,2.3101,2.3101,2.3101,2.3101,2.3101,2.3101,2.3101,2.3101,2.3101,2.3101,2.3101,2.3101,2.3101,2.3101,2.3188,2.3276,2.3406,2.3667,2.4143,2.0615,2.0615,2.0615,2.0762,2.1064,2.1103,2.1338,2.1738,2.1748,2.1982,2.2334,2.249,2.2705,2.2945,2.3042,2.3101,2.3091,2.3047,2.2969,2.2794,2.252,2.2353,2.2397,2.2362,2.2441,2.2441,2.2441,2.253,2.2671,2.2715,2.2882,2.3013,2.3013,2.3091,2.3047,2.3047,2.3101,2.3091,2.3091,2.3047,2.3057,2.3057,2.3047,2.3047,2.3101,2.3101,2.3101,2.3101,2.3101,2.3101,2.3101,2.3101,2.3101,2.3101,2.3101,2.3071,2.3023,2.2945,2.2925,2.2828,2.2852,2.274,2.2711,2.2818,2.2828,2.2779,2.2789,2.2828,2.2828,2.274,2.273,2.2799,2.275,2.2721,2.2783,2.2803,2.2754,2.2295,2.2012,2.1953,2.1963,2.2012,2.2334,2.2432,2.2676,2.2877,2.2994,2.3081,2.3101,2.3101,2.3101,2.3101,2.3101,2.3101,2.3101,2.3101,2.3101,2.3101,2.3101,2.3101,2.3101,2.3101,2.3101,2.3101,2.3101,2.3101,2.3101,2.3101,2.3101,2.3101,2.3101,2.3188,2.3276,2.345,2.3634,2.0732,2.0879,2.0879,2.1133,2.1504,2.1553,2.1787,2.2119,2.2178,2.2412,2.2734,2.2769,2.2896,2.3081,2.3101,2.3101,2.3047,2.2828,2.2662,2.2407,2.2087,2.1883,2.1741,2.1687,2.1678,2.1865,2.1758,2.19,2.2097,2.2185,2.2274,2.2618,2.2662,2.2662,2.275,2.274,2.274,2.275,2.2784,2.2784,2.2784,2.2784,2.2784,2.2828,2.2882,2.2969,2.2969,2.3047,2.3091,2.3101,2.3101,2.3091,2.3101,2.3101,2.3101,2.3101,2.3101,2.3101,2.3091,2.3101,2.3071,2.3101,2.3101,2.3101,2.3101,2.3101,2.3101,2.3101,2.3081,2.3091,2.3101,2.3081,2.3101,2.3101,2.3101,2.3101,2.3013,2.2682,2.2471,2.2471,2.2529,2.2607,2.2734,2.2734,2.2812,2.3013,2.3023,2.3101,2.3101,2.3101,2.3101,2.3101,2.3101,2.3101,2.3101,2.3101,2.3101,2.3101,2.3101,2.3101,2.3101,2.3101,2.3101,2.3101,2.3101,2.3101,2.3101,2.3101,2.3101,2.3101,2.3101,2.3101,2.3144,2.3276,2.3416,2.0986,2.1247,2.1247,2.15,2.186,2.1909,2.2133,2.2483,2.2565,2.274,2.3042,2.3101,2.3052,2.3101,2.3101,2.3091,2.2916,2.2652,2.2353,2.2052,2.1705,2.1392,2.1203,2.097,2.0789,2.1032,2.1006,2.1096,2.1239,2.1302,2.1553,2.1865,2.1954,2.1989,2.2122,2.2167,2.2113,2.2122,2.2122,2.2122,2.2122,2.2122,2.2167,2.2255,2.2397,2.253,2.2618,2.2794,2.2925,2.3013,2.3013,2.3003,2.3047,2.3091,2.3101,2.3101,2.3101,2.3101,2.3101,2.3101,2.3101,2.3101,2.3101,2.3101,2.3101,2.3101,2.3101,2.3101,2.3101,2.3101,2.3101,2.3101,2.3101,2.3101,2.3101,2.3101,2.3101,2.3101,2.3003,2.3003,2.2886,2.2896,2.2964,2.2984,2.3052,2.3101,2.3101,2.3101,2.3101,2.3101,2.3101,2.3101,2.3101,2.3101,2.3101,2.3101,2.3101,2.3101,2.3101,2.3101,2.3101,2.3101,2.3101,2.3101,2.3101,2.3101,2.3101,2.3101,2.3101,2.3101,2.3101,2.3101,2.3101,2.3101,2.3276,2.1586,2.1438,2.1438,2.1594,2.1821,2.2072,2.2389,2.2746,2.2921,2.3023,2.3081,2.3101,2.3101,2.3101,2.3101,2.3013,2.275,2.2441,2.2087,2.1741,2.1392,2.1077,2.0564,2.0337,2.0065,1.9828,2.0011,2.0419,2.0591,2.0727,2.0826,2.1087,2.1132,2.1177,2.1212,2.1212,2.1221,2.1212,2.1221,2.1221,2.1221,2.1266,2.1347,2.1535,2.1668,2.19,2.2185,2.2274,2.2362,2.2485,2.253,2.2662,2.2838,2.3003,2.3091,2.3101,2.3101,2.3101,2.3101,2.3101,2.3101,2.3101,2.3101,2.3101,2.3101,2.3101,2.3101,2.3101,2.3101,2.3101,2.3101,2.3101,2.3101,2.3101,2.3101,2.3101,2.3101,2.3101,2.3101,2.3101,2.3101,2.3101,2.3101,2.3101,2.3101,2.3101,2.3101,2.3101,2.3101,2.3101,2.3101,2.3101,2.3101,2.3101,2.3101,2.3101,2.3101,2.3101,2.3101,2.3101,2.3101,2.3101,2.3101,2.3101,2.3101,2.3101,2.3101,2.3101,2.3101,2.3101,2.3101,2.3101,2.3101,2.3101,2.3232,2.1762,2.187,2.1702,2.1855,2.21,2.2235,2.2471,2.2784,2.2935,2.3003,2.3047,2.3091,2.3057,2.2969,2.2925,2.2706,2.2264,2.1989,2.1633,2.1195,2.0789,2.0482,2.0019,1.9745,1.9371,1.9096,1.9142,1.9425,1.9637,1.9637,1.9866,2.0002,2.0048,2.013,2.0212,2.0221,2.0238,2.0229,2.0246,2.0238,2.0275,2.0365,2.0538,2.0664,2.1033,2.1356,2.1687,2.2008,2.2176,2.2344,2.2397,2.253,2.275,2.2882,2.3013,2.3101,2.3101,2.3101,2.3101,2.3101,2.3101,2.3101,2.3101,2.3101,2.3101,2.3101,2.3101,2.3101,2.3101,2.3101,2.3101,2.3101,2.3101,2.3101,2.3101,2.3101,2.3101,2.3101,2.3101,2.3101,2.3101,2.3101,2.3101,2.3101,2.3101,2.3101,2.3101,2.3101,2.3101,2.3101,2.3101,2.3101,2.3101,2.3101,2.3101,2.3101,2.3101,2.3101,2.3101,2.3101,2.3091,2.3091,2.3101,2.3101,2.3101,2.3003,2.3101,2.3101,2.3101,2.3101,2.3101,2.3101,2.3101,2.3144,2.3276,2.1911,2.2131,2.1958,2.2008,2.2236,2.2299,2.2432,2.2671,2.2759,2.2838,2.2969,2.3013,2.2916,2.275,2.2627,2.2318,2.1687,2.1499,2.1042,2.0564,2.011,1.9837,1.9471,1.9104,1.8689,1.8512,1.845,1.8334,1.8689,1.8735,1.8827,1.8958,1.9004,1.9106,1.9331,1.9388,1.9339,1.9428,1.9437,1.942,1.9385,1.9545,1.9725,1.9812,2.0411,2.0898,2.132,2.1696,2.1963,2.2132,2.2264,2.2397,2.2618,2.2706,2.2838,2.3047,2.3101,2.3101,2.3101,2.3101,2.3101,2.3101,2.3101,2.3101,2.3101,2.3101,2.3101,2.3101,2.3101,2.3101,2.3101,2.3101,2.3101,2.3101,2.3101,2.3101,2.3101,2.3101,2.3101,2.3101,2.3101,2.3091,2.3047,2.3101,2.3101,2.3101,2.3101,2.3101,2.3101,2.3101,2.3101,2.3101,2.3101,2.3101,2.3101,2.3101,2.3101,2.3101,2.3101,2.3101,2.3091,2.3047,2.3047,2.3013,2.2872,2.2828,2.296,2.3101,2.3101,2.3101,2.3101,2.3101,2.3101,2.3144,2.3276,2.2425,2.211,2.2066,2.1971,2.1865,2.2043,2.2141,2.223,2.2627,2.2671,2.2574,2.2706,2.2662,2.2441,2.2274,2.2008,2.1642,2.1141,2.0645,2.0019,1.9691,1.9234,1.8773,1.8627,1.8334,1.8162,1.8138,1.815,1.8301,1.8287,1.8233,1.8303,1.8411,1.8426,1.8799,1.8807,1.8881,1.9097,1.9136,1.8997,1.8813,1.8989,1.9168,1.9418,1.9895,2.0523,2.1148,2.1536,2.1788,2.1868,2.1866,2.2017,2.2344,2.2441,2.2696,2.296,2.3101,2.3101,2.3101,2.3101,2.3101,2.3101,2.3101,2.3101,2.3101,2.3101,2.3101,2.3101,2.3101,2.3101,2.3091,2.3091,2.3091,2.3057,2.3013,2.3003,2.3047,2.2925,2.2925,2.2969,2.2925,2.296,2.3003,2.3047,2.3101,2.3101,2.3101,2.3091,2.3101,2.3101,2.3101,2.3101,2.3101,2.3101,2.3101,2.3101,2.3101,2.3101,2.3101,2.3101,2.3013,2.2969,2.2838,2.2794,2.2652,2.2652,2.2838,2.2969,2.3057,2.3101,2.3057,2.3101,2.3101,2.3178,2.3222,2.2274,2.2106,2.1963,2.183,2.1687,2.183,2.1963,2.2141,2.2309,2.2397,2.2441,2.253,2.2441,2.2176,2.1874,2.1553,2.123,2.069,2.0056,1.9533,1.9166,1.8759,1.8419,1.8317,1.8148,1.8128,1.8145,1.8245,1.8241,1.8219,1.8219,1.8189,1.8204,1.8294,1.8476,1.8435,1.851,1.8599,1.8629,1.8577,1.8577,1.8816,1.9134,1.9415,2.0157,2.0798,2.1302,2.1856,2.2152,2.2281,2.2199,2.2206,2.2457,2.2504,2.2574,2.2882,2.3057,2.3101,2.3101,2.3101,2.3101,2.3101,2.3101,2.3101,2.3101,2.3101,2.3101,2.3101,2.3101,2.3101,2.3057,2.3013,2.2969,2.2925,2.2838,2.2784,2.274,2.2706,2.2662,2.2706,2.275,2.2784,2.2828,2.296,2.296,2.3013,2.3003,2.3047,2.3047,2.3101,2.3101,2.3101,2.3101,2.3101,2.3101,2.3101,2.3047,2.3047,2.3047,2.3013,2.2925,2.2838,2.2706,2.2618,2.2485,2.2574,2.2706,2.2838,2.2925,2.2969,2.3013,2.3057,2.3101,2.3135,2.3353,2.2008,2.1963,2.1785,2.1687,2.1687,2.1687,2.183,2.2008,2.2097,2.2141,2.222,2.222,2.2087,2.1865,2.1472,2.115,2.0781,2.0155,1.9583,1.9108,1.8652,1.8394,1.8208,1.8204,1.8148,1.826,1.8375,1.8436,1.8487,1.8517,1.8517,1.8321,1.8302,1.837,1.8401,1.848,1.8531,1.8721,1.8671,1.8597,1.8602,1.8976,1.9261,1.9738,2.0402,2.1191,2.1605,2.1942,2.2274,2.2306,2.2211,2.2151,2.24,2.2428,2.257,2.2794,2.2907,2.2951,2.2992,2.3032,2.3076,2.3101,2.3101,2.3101,2.3101,2.3101,2.3101,2.3101,2.3013,2.3013,2.3013,2.2838,2.2706,2.2618,2.252,2.2432,2.2397,2.2441,2.2485,2.253,2.253,2.2485,2.2608,2.274,2.2828,2.2872,2.2916,2.296,2.296,2.296,2.2969,2.2916,2.2872,2.2872,2.2969,2.3013,2.3013,2.296,2.296,2.2872,2.275,2.2618,2.2485,2.2397,2.2309,2.222,2.222,2.253,2.2803,2.2891,2.2969,2.3057,2.3091,2.3135,2.3396,2.1731,2.1741,2.1696,2.1687,2.1687,2.1687,2.1687,2.1785,2.2008,2.1963,2.182,2.1785,2.166,2.1464,2.1221,2.0851,2.038,1.9853,1.9384,1.891,1.8479,1.8264,1.8169,1.8091,1.8094,1.8328,1.8599,1.8738,1.8803,1.8957,1.8745,1.8394,1.8482,1.8562,1.8664,1.876,1.8869,1.9008,1.906,1.8957,1.8978,1.9235,1.9545,1.9701,2.0249,2.0797,2.1094,2.1508,2.1734,2.1782,2.1804,2.1933,2.2162,2.2272,2.2471,2.2593,2.263,2.2656,2.2691,2.2917,2.3076,2.3101,2.3101,2.3101,2.3101,2.3101,2.3101,2.3057,2.2925,2.2838,2.275,2.2618,2.2441,2.2397,2.2309,2.2255,2.222,2.2264,2.2309,2.2397,2.2353,2.2264,2.222,2.2388,2.2564,2.2608,2.2652,2.2652,2.2608,2.2608,2.2696,2.2652,2.2564,2.2618,2.2759,2.2759,2.2706,2.2652,2.2652,2.2564,2.2432,2.2353,2.2274,2.2141,2.2052,2.1865,2.1865,2.2309,2.2662,2.2794,2.2925,2.3057,2.3144,2.3188,2.3493,2.1687,2.1687,2.1687,2.1687,2.1687,2.1687,2.1687,2.1741,2.183,2.183,2.1705,2.1571,2.1617,2.1544,2.1121,2.0864,2.0622,1.9994,1.9359,1.8842,1.8439,1.8098,1.7995,1.811,1.8268,1.8477,1.8818,1.9089,1.9111,1.922,1.9214,1.9001,1.8847,1.8957,1.9067,1.906,1.9155,1.9213,1.9272,1.9184,1.9258,1.9442,1.9791,2.0148,2.0662,2.1263,2.1669,2.19,2.1991,2.1972,2.1859,2.1887,2.1964,2.2066,2.2161,2.2277,2.2261,2.2368,2.251,2.2732,2.2945,2.3101,2.3101,2.3101,2.3101,2.3101,2.3013,2.2925,2.2838,2.275,2.253,2.2353,2.222,2.2176,2.2132,2.2043,2.2043,2.2043,2.2043,2.2087,2.1998,2.1909,2.1954,2.1954,2.2167,2.2344,2.2388,2.2397,2.2353,2.2353,2.2388,2.2441,2.2344,2.2353,2.2539,2.2485,2.2397,2.2353,2.2353,2.2264,2.222,2.223,2.2141,2.1963,2.183,2.1776,2.1909,2.2264,2.2485,2.2618,2.2838,2.3101,2.3144,2.3232,2.3493,2.1687,2.1687,2.1687,2.1687,2.1687,2.1687,2.1687,2.1687,2.1687,2.1778,2.1861,2.1663,2.1734,2.1726,2.1216,2.0696,2.044,1.982,1.9174,1.8649,1.8246,1.8046,1.7986,1.8076,1.8334,1.8597,1.8919,1.916,1.9242,1.9272,1.9235,1.9228,1.9272,1.925,1.925,1.9272,1.9272,1.9272,1.9272,1.9272,1.9316,1.9561,1.9864,2.0305,2.0743,2.1194,2.1584,2.1812,2.1988,2.198,2.1979,2.1919,2.1899,2.1919,2.191,2.1938,2.1965,2.2088,2.2339,2.2603,2.2793,2.2891,2.2974,2.2998,2.3013,2.3057,2.3057,2.2925,2.2794,2.2618,2.2397,2.2176,2.2008,2.1963,2.1865,2.182,2.182,2.182,2.1776,2.1776,2.1731,2.1785,2.1776,2.182,2.1909,2.2033,2.2043,2.2043,2.2087,2.2087,2.2176,2.2176,2.2176,2.222,2.2274,2.2176,2.2087,2.2043,2.2043,2.2043,2.1998,2.2008,2.1963,2.183,2.1741,2.1687,2.1874,2.216,2.2274,2.2441,2.275,2.3101,2.3101,2.3188,2.3363,2.1687,2.1687,2.1687,2.1696,2.1723,2.1687,2.1705,2.1769,2.1797,2.198,2.2208,2.1997,2.1981,2.1993,2.1357,2.0767,2.0142,1.9512,1.8868,1.8426,1.8164,1.8114,1.8092,1.8144,1.8286,1.8736,1.8921,1.9018,1.922,1.9227,1.9227,1.9279,1.9279,1.9272,1.9272,1.9272,1.9272,1.9272,1.9272,1.9272,1.9324,1.9524,1.9783,2.0189,2.0395,2.0858,2.1369,2.1522,2.1674,2.1785,2.1777,2.182,2.2047,2.2038,2.2146,2.2414,2.2107,2.2085,2.2301,2.2497,2.2695,2.2764,2.2936,2.2884,2.2896,2.2945,2.3013,2.2794,2.2618,2.2441,2.222,2.2043,2.1874,2.1785,2.1731,2.1687,2.1687,2.1824,2.1851,2.1778,2.1723,2.175,2.1696,2.1731,2.1731,2.1731,2.1731,2.1741,2.1839,2.1865,2.1954,2.1954,2.1954,2.1998,2.1998,2.1865,2.1776,2.1741,2.1776,2.182,2.182,2.183,2.1785,2.1696,2.1705,2.1723,2.1822,2.2019,2.2356,2.2785,2.2817,2.3057,2.3101,2.3144,2.3276,2.1687,2.1687,2.1687,2.1842,2.2016,2.1797,2.1833,2.2153,2.2364,2.2565,2.2582,2.231,2.2289,2.2171,2.1571,2.0867,2.0461,1.975,1.9162,1.8396,1.804,1.79,1.7943,1.801,1.8122,1.8286,1.8443,1.8593,1.8691,1.8907,1.9018,1.9071,1.9227,1.9272,1.9272,1.9272,1.9272,1.9272,1.9272,1.9272,1.9331,1.9428,1.9628,2.0086,2.0189,2.055,2.1216,2.1267,2.142,2.1674,2.1674,2.1827,2.2021,2.2123,2.2283,2.2485,2.2347,2.2455,2.2641,2.287,2.2968,2.3019,2.2986,2.2957,2.2938,2.2884,2.2754,2.2621,2.2555,2.2368,2.1954,2.1839,2.1759,2.1741,2.1687,2.1687,2.1742,2.198,2.2089,2.1925,2.1878,2.1851,2.1851,2.1943,2.1952,2.1897,2.1916,2.1797,2.1814,2.1768,2.1785,2.1776,2.1776,2.1776,2.1759,2.1933,2.1916,2.1951,2.1851,2.1731,2.1731,2.1824,2.1806,2.1879,2.1815,2.176,2.2061,2.2372,2.2888,2.3256,2.3149,2.3148,2.3207,2.3174,2.3144,2.1888,2.1916,2.2053,2.2254,2.241,2.2062,2.2126,2.2492,2.2794,2.2968,2.2992,2.2676,2.269,2.2574,2.1903,2.105,2.0704,1.9768,1.9042,1.8265,1.801,1.7793,1.774,1.7799,1.7905,1.8016,1.8167,1.8325,1.8482,1.8646,1.8757,1.8966,1.9175,1.9272,1.9272,1.9272,1.9272,1.9272,1.9272,1.9272,1.9272,1.9376,1.9524,1.9835,2.0034,2.0344,2.0917,2.1224,2.1326,2.1573,2.1725,2.1827,2.203,2.2224,2.2384,2.2577,2.2878,2.297,2.3164,2.352,2.3623,2.3601,2.3289,2.3129,2.3118,2.3186,2.3045,2.2898,2.2659,2.2497,2.2316,2.2162,2.2044,2.2053,2.2062,2.208,2.2144,2.241,2.2446,2.2263,2.2181,2.2163,2.2135,2.2199,2.2282,2.2217,2.2153,2.2034,2.1934,2.1906,2.1952,2.2007,2.2062,2.2163,2.2263,2.2263,2.2254,2.2144,2.2062,2.1998,2.2144,2.2346,2.2199,2.2108,2.2236,2.2355,2.2529,2.2861,2.3177,2.3271,2.3221,2.3257,2.338,2.3343,2.3237,2.23,2.2355,2.2683,2.2848,2.2858,2.2565,2.262,2.2931,2.2968,2.3197,2.3459,2.3169,2.3055,2.3,2.2106,2.1191,2.0372,1.9346,1.8624,1.8115,1.7799,1.7687,1.7635,1.7641,1.7747,1.7911,1.8016,1.8055,1.8318,1.8482,1.8646,1.8921,1.9175,1.9279,1.9272,1.9272,1.9272,1.9272,1.9272,1.9272,1.9272,1.9324,1.9472,1.968,1.9828,2.0197,2.0668,2.0925,2.1173,2.142,2.1674,2.1878,2.208,2.2375,2.2686,2.3038,2.3438,2.3587,2.3777,2.4101,2.415,2.3987,2.3658,2.3447,2.3346,2.3392,2.326,2.3214,2.3103,2.3159,2.3131,2.2907,2.273,2.2739,2.2739,2.2757,2.2776,2.2849,2.2858,2.2794,2.2757,2.2721,2.2675,2.2693,2.262,2.2574,2.2547,2.2574,2.2465,2.2327,2.241,2.2593,2.2666,2.2767,2.2776,2.2648,2.2602,2.2492,2.2602,2.2593,2.2748,2.2757,2.2611,2.2584,2.2803,2.2931,2.3006,2.3043,2.3211,2.3269,2.3495,2.3466,2.3628,2.3544,2.35,2.2158,2.2176,2.2292,2.2584,2.3084,2.3499,2.3547,2.337,2.3666,2.3797,2.3682,2.3435,2.3073,2.2677,2.1827,2.1003,2.0122,1.9294,1.8572,1.8115,1.7747,1.7641,1.7589,1.7641,1.7635,1.7694,1.7747,1.7793,1.7898,1.816,1.8541,1.8921,1.9123,1.9227,1.9279,1.9272,1.9272,1.9272,1.9272,1.9272,1.9272,1.9272,1.948,1.9628,1.968,2.005,2.0411,2.0617,2.0917,2.1275,2.142,2.1674,2.2375,2.2476,2.2736,2.3497,2.3746,2.3895,2.4183,2.4291,2.435,2.439,2.4112,2.3772,2.3572,2.3484,2.3439,2.3447,2.3466,2.3456,2.3379,2.3218,2.3123,2.3123,2.3123,2.3133,2.316,2.3251,2.3251,2.3151,2.3123,2.3123,2.3096,2.3041,2.2968,2.294,2.295,2.3023,2.2986,2.284,2.2867,2.3068,2.3114,2.3178,2.3023,2.2885,2.2876,2.2876,2.3014,2.3068,2.3014,2.2995,2.294,2.3032,2.3215,2.3297,2.3334,2.3437,2.3586,2.3788,2.3962,2.3868,2.3796,2.3756,2.3779,2.2175,2.2202,2.2342,2.273,2.3256,2.3795,2.375,2.3399,2.3804,2.3845,2.3438,2.3279,2.2828,2.2173,2.1463,2.0696,1.9879,1.9042,1.837,1.8062,1.7747,1.7641,1.7589,1.7589,1.7641,1.7589,1.7589,1.7641,1.7694,1.801,1.8384,1.8705,1.8966,1.9175,1.9279,1.9272,1.9272,1.9272,1.9272,1.9272,1.9272,1.9272,1.9428,1.9532,1.9583,1.9843,2.0153,2.0256,2.0609,2.1019,2.1165,2.1717,2.2375,2.2636,2.3138,2.3795,2.3935,2.4291,2.4637,2.4735,2.4745,2.4695,2.4597,2.43,2.4045,2.3842,2.371,2.3643,2.3646,2.3657,2.3551,2.3446,2.3455,2.3464,2.3464,2.3464,2.3556,2.3675,2.3611,2.3501,2.3474,2.3492,2.3464,2.3409,2.3446,2.3538,2.3584,2.362,2.3529,2.3306,2.3419,2.3593,2.3574,2.3556,2.34,2.327,2.3352,2.3474,2.3574,2.3574,2.3419,2.3428,2.3529,2.3584,2.3657,2.3703,2.3721,2.3895,2.4082,2.4211,2.4211,2.4082,2.3951,2.388,2.3985,2.2218,2.2244,2.2731,2.3035,2.3338,2.3587,2.3329,2.2878,2.3288,2.3288,2.2828,2.2778,2.2224,2.1463,2.085,2.0174,1.9465,1.8684,1.8213,1.7964,1.7747,1.7589,1.7589,1.7589,1.7589,1.7589,1.7589,1.7589,1.7694,1.7905,1.8167,1.8377,1.8698,1.8914,1.9063,1.9063,1.9063,1.9011,1.9063,1.9116,1.9272,1.9272,1.9272,1.9324,1.9376,1.948,1.9732,1.9931,2.0241,2.0712,2.1216,2.1768,2.2476,2.2937,2.3587,2.3886,2.3985,2.443,2.4833,2.4932,2.5079,2.5079,2.503,2.4658,2.4349,2.4107,2.3935,2.3926,2.3929,2.3929,2.3871,2.3822,2.3831,2.3831,2.3831,2.3831,2.3877,2.3941,2.3914,2.3831,2.3831,2.384,2.384,2.3794,2.3767,2.4036,2.4082,2.4082,2.3941,2.3749,2.3794,2.399,2.3944,2.3898,2.3935,2.3849,2.4018,2.4101,2.4082,2.4055,2.3813,2.3923,2.4174,2.4073,2.3914,2.4064,2.4137,2.4211,2.4211,2.4211,2.4211,2.4211,2.4125,2.4022,2.4189,2.1845,2.1904,2.2652,2.2887,2.2787,2.2987,2.2677,2.1971,2.1903,2.1954,2.192,2.1725,2.1259,2.0483,1.9983,1.9361,1.8788,1.8377,1.7957,1.7799,1.7641,1.7589,1.7589,1.7589,1.7589,1.7589,1.7589,1.7589,1.7635,1.7852,1.8016,1.8122,1.8384,1.8586,1.8691,1.8691,1.8691,1.8743,1.8743,1.8907,1.9168,1.9272,1.9272,1.9272,1.9324,1.9428,1.9628,1.9783,2.0351,2.1019,2.142,2.2224,2.3279,2.3538,2.3786,2.4035,2.4035,2.444,2.4784,2.4981,2.503,2.5079,2.4932,2.4686,2.443,2.4291,2.4202,2.4202,2.4211,2.4211,2.4211,2.4211,2.4211,2.4211,2.4211,2.4211,2.4211,2.4211,2.4211,2.4211,2.4211,2.4211,2.4211,2.4211,2.4211,2.4192,2.4183,2.4174,2.4165,2.3996,2.3969,2.4119,2.4137,2.4137,2.4211,2.4211,2.4211,2.4211,2.4156,2.4174,2.4211,2.4211,2.4211,2.4211,2.4183,2.4211,2.4211,2.4211,2.4211,2.4211,2.4211,2.4211,2.4211,2.4116,2.4429,2.1674,2.1776,2.2485,2.2434,2.2072,2.2114,2.17,2.0995,2.0696,2.0534,2.0483,2.0439,2.0181,1.9554,1.9101,1.8698,1.822,1.7957,1.7799,1.7641,1.7589,1.7589,1.7589,1.7589,1.7589,1.7589,1.7589,1.7635,1.7635,1.7687,1.7852,1.7964,1.8167,1.8265,1.8318,1.837,1.837,1.8422,1.837,1.8586,1.8959,1.9011,1.9123,1.9123,1.9279,1.9428,1.9739,1.999,2.0712,2.1623,2.2325,2.2979,2.3728,2.3985,2.4134,2.4233,2.4291,2.4399,2.4794,2.499,2.5039,2.5137,2.4981,2.4784,2.4637,2.4489,2.4202,2.4211,2.4211,2.4211,2.4211,2.4211,2.4211,2.4211,2.4211,2.4211,2.4211,2.4211,2.4211,2.4211,2.4211,2.4211,2.4211,2.4211,2.4211,2.4211,2.4211,2.4211,2.4211,2.4211,2.4211,2.4211,2.4211,2.4211,2.4211,2.4211,2.4211,2.4211,2.4211,2.4211,2.4211,2.4211,2.4211,2.4211,2.4211,2.4211,2.4211,2.4211,2.4211,2.4211,2.4211,2.4211,2.4211,2.4211,2.447,2.1581,2.1674,2.208,2.1869,2.1208,2.1097,2.068,1.9968,1.9672,1.925,1.8878,1.925,1.9101,1.8788,1.8415,1.816,1.7957,1.774,1.7635,1.7589,1.7589,1.7589,1.7589,1.7589,1.7589,1.7589,1.7589,1.7589,1.7641,1.7635,1.7747,1.7911,1.8016,1.8062,1.8213,1.8265,1.822,1.822,1.816,1.8213,1.8429,1.8646,1.8757,1.8914,1.9123,1.9368,1.9835,2.0454,2.1121,2.2274,2.3279,2.4035,2.4332,2.4578,2.4587,2.4637,2.4529,2.4784,2.5137,2.5235,2.5391,2.5489,2.5128,2.4932,2.4794,2.4597,2.4301,2.4211,2.4211,2.4211,2.4211,2.4211,2.4211,2.4211,2.4211,2.4211,2.4211,2.4211,2.4211,2.4211,2.4211,2.4211,2.4211,2.4211,2.4211,2.4211,2.4211,2.4211,2.4211,2.4211,2.4211,2.4211,2.4211,2.4211,2.4211,2.4211,2.4211,2.4211,2.4211,2.4211,2.4211,2.4211,2.4211,2.4211,2.4211,2.4211,2.4211,2.4211,2.4211,2.4211,2.4211,2.4211,2.4211,2.4251,2.444,2.1019,2.107,2.1173,2.0858,2.0344,2.0086,1.9665,1.9086,1.8781,1.8422,1.8265,1.8003,1.801,1.8122,1.7852,1.7747,1.7747,1.7635,1.7635,1.7589,1.7589,1.7589,1.7589,1.7589,1.7589,1.7589,1.7589,1.7589,1.7589,1.7589,1.7641,1.7694,1.7694,1.7747,1.7747,1.7799,1.7852,1.7852,1.7852,1.7845,1.795,1.8167,1.8429,1.8646,1.8803,1.9368,1.9939,2.0557,2.1666,2.2929,2.4183,2.4883,2.5137,2.5128,2.5088,2.5039,2.4932,2.5039,2.5294,2.5342,2.5538,2.5635,2.5333,2.5088,2.4892,2.4637,2.4399,2.4211,2.4211,2.4211,2.4211,2.4211,2.4211,2.4211,2.4211,2.4211,2.4211,2.4211,2.4211,2.4211,2.4211,2.4211,2.4211,2.4211,2.4211,2.4211,2.4211,2.4211,2.4211,2.4211,2.4211,2.4211,2.4211,2.4211,2.4211,2.4211,2.4211,2.4211,2.4211,2.4211,2.4211,2.4211,2.4211,2.4211,2.4211,2.4211,2.4211,2.4211,2.4211,2.4211,2.4211,2.4211,2.4211,2.4251,2.439]}]]